GFSGL_250_spd_000.txt.gz
Wind_Speed
48 49 50 53 54 56 58 58 63 65 67 66 70 70 73 77 76 81 83 78 66 51 45 41 41 46 51 55 61 64 67 69 69 70 66 66 70 80 79 72 74 67 63
51 53 54 55 59 64 61 62 64 66 68 70 73 72 73 77 70 83 93 84 66 53 49 45 40 43 49 54 61 64 69 69 71 74 72 69 70 74 82 80 77 73 68
55 54 55 60 65 64 61 66 65 69 69 73 76 76 79 76 73 86 98 89 67 54 53 48 46 41 46 49 56 59 62 65 67 71 76 75 75 76 80 84 81 78 73
58 59 60 59 62 55 73 74 68 73 70 76 80 82 80 78 77 88 96 98 73 57 53 51 49 44 47 54 57 55 56 58 60 66 73 78 83 81 83 84 89 85 80
60 55 56 58 63 74 72 72 74 73 74 79 86 86 89 76 78 90 99 104 73 62 60 61 61 60 58 58 56 55 54 57 61 66 71 75 83 85 81 86 89 90 87
60 64 59 64 72 73 72 76 76 72 78 84 88 88 75 76 77 88 106 100 80 68 72 68 65 63 59 58 55 54 52 54 59 61 66 70 77 81 79 83 90 94 93
63 64 61 70 72 75 74 73 72 79 81 88 89 84 74 67 77 99 112 103 92 78 72 72 69 61 57 56 56 54 52 53 54 56 59 61 68 72 73 77 87 93 97
64 67 72 75 74 73 74 71 80 86 90 87 80 71 69 75 91 107 108 102 97 80 74 72 67 61 57 54 53 53 49 48 49 49 51 57 63 66 70 76 84 93 100
66 66 69 74 77 78 75 79 83 84 86 78 71 72 71 88 103 109 109 109 96 82 79 75 68 59 55 55 52 49 48 43 44 42 47 53 58 63 67 74 81 92 102
68 71 72 75 69 70 74 74 72 72 62 61 63 75 92 96 106 110 115 112 92 87 86 72 67 57 54 52 49 46 44 38 37 39 43 47 54 57 68 75 81 91 99
68 65 70 74 79 73 79 74 70 54 49 54 63 90 97 103 109 115 117 104 91 94 84 76 65 55 48 48 42 39 36 32 32 33 37 41 48 53 68 76 79 89 97
58 61 69 61 67 68 72 60 54 52 61 79 83 101 103 108 116 120 114 97 94 91 83 75 61 51 46 42 35 31 28 26 27 28 31 36 40 48 63 74 78 87 95
59 53 63 58 39 4 51 70 81 80 94 102 101 107 108 113 121 114 98 92 95 88 82 68 57 48 42 35 29 25 24 24 23 24 28 31 32 43 53 68 75 84 93
66 54 60 58 37 54 79 81 86 97 109 109 112 109 113 121 105 96 97 97 98 87 73 59 51 41 36 30 25 22 26 26 22 21 22 24 27 33 43 57 70 81 88
71 74 79 77 76 73 87 93 97 105 112 111 111 114 119 102 100 103 101 95 92 76 63 54 43 38 31 28 24 25 28 24 23 22 19 23 23 28 36 48 61 76 83
64 70 74 81 81 87 87 89 97 98 100 104 111 117 98 103 101 103 97 92 77 63 55 47 38 33 28 27 27 30 31 26 22 21 21 18 15 24 30 42 54 66 78
75 80 83 81 80 86 87 91 88 89 102 102 93 91 103 105 101 97 90 77 64 56 47 41 33 28 27 26 31 33 34 30 23 22 15 17 22 22 28 36 49 62 72
76 80 80 79 85 92 95 93 89 95 99 94 98 104 103 102 97 91 79 65 55 48 42 37 31 27 25 28 34 37 37 34 28 28 21 23 27 26 25 26 44 56 65
75 82 84 86 94 93 90 88 93 93 94 101 100 103 101 99 90 79 65 57 49 44 39 36 30 27 25 31 37 42 43 41 34 31 32 36 38 38 38 36 46 55 60
86 89 88 79 84 85 87 93 90 91 96 98 98 99 97 91 79 69 58 50 46 42 39 37 31 28 27 34 37 49 47 47 39 37 35 31 40 38 41 38 59 59 64
76 78 84 84 87 89 92 94 99 96 98 101 97 91 83 72 67 59 51 46 42 39 38 37 34 29 31 34 40 54 56 55 47 41 40 37 41 43 40 39 51 72 67
85 90 93 93 96 97 99 97 99 100 98 93 86 76 68 62 55 51 49 46 40 38 37 36 34 31 32 34 43 51 63 61 56 49 44 43 40 49 47 46 51 53 69
94 97 99 95 96 99 98 97 96 92 88 82 71 65 58 53 49 47 48 44 39 37 35 36 35 33 32 35 38 49 63 69 63 59 53 48 48 46 54 56 57 54 58
87 86 85 85 84 86 87 85 79 73 68 67 64 60 52 45 42 39 41 42 37 35 33 34 34 34 33 36 41 43 54 70 72 69 64 59 55 55 53 66 71 66 64
71 68 67 66 64 65 63 64 65 63 61 55 51 50 48 44 40 33 32 33 32 29 26 26 27 26 27 30 36 45 49 59 76 78 74 69 63 61 61 65 75 71 74
58 57 58 58 58 58 59 58 56 53 52 48 43 39 39 40 36 32 28 27 28 27 26 22 24 26 25 25 28 35 44 52 62 82 83 79 75 70 69 70 73 72 73

GFSGL_250_spd_003.txt.gz
Wind_Speed
46 45 47 47 51 52 54 55 55 58 55 63 65 64 65 59 65 72 77 78 74 65 74 82 81 70 43 39 40 43 48 59 67 74 75 75 72 72 74 74 77 72 70
49 51 52 50 51 54 54 55 58 60 62 68 66 65 65 62 70 75 83 84 79 71 78 88 86 85 57 43 43 46 50 58 68 74 79 77 76 75 73 77 76 80 75
52 55 56 57 57 59 59 59 63 64 65 68 68 66 63 66 73 83 86 84 73 68 84 88 88 90 85 58 54 55 53 56 66 71 77 77 78 76 74 77 79 78 81
58 59 61 61 62 61 63 62 65 64 66 68 65 66 66 69 76 84 83 76 70 76 88 94 96 99 90 63 57 55 56 54 60 62 71 77 77 77 77 75 79 81 80
60 62 65 67 64 64 64 66 69 70 72 70 68 67 68 72 77 81 77 67 67 84 96 99 102 105 96 66 63 61 56 51 55 58 64 71 75 72 74 76 81 81 83
61 64 64 59 53 70 70 75 75 75 72 69 65 68 76 76 77 74 66 63 74 87 99 106 106 111 94 73 67 59 54 48 50 56 63 65 69 70 71 72 78 78 83
66 66 67 76 61 60 72 81 79 74 71 69 75 82 77 78 73 66 64 69 82 91 105 110 111 116 88 73 68 59 53 48 50 56 59 65 73 73 70 72 73 77 82
69 66 61 43 53 83 80 75 78 76 75 81 82 78 72 66 67 59 57 88 103 108 120 115 112 110 94 82 74 65 52 47 48 52 54 61 66 72 75 76 79 81 86
68 60 50 68 84 84 75 75 77 79 80 87 73 72 61 52 58 61 69 101 110 112 115 112 113 108 100 91 78 62 51 46 41 44 49 51 57 61 68 70 78 79 87
63 57 62 61 70 73 72 71 75 75 79 72 62 45 48 58 63 71 91 109 107 111 116 117 117 111 102 86 74 61 53 47 41 41 42 44 48 51 53 55 66 73 78
67 69 64 63 67 67 65 68 65 70 59 62 68 62 56 61 73 99 108 109 109 113 115 119 105 102 94 84 70 59 50 47 40 38 35 36 37 41 43 48 56 67 72
65 58 56 60 55 63 61 59 51 57 40 68 63 74 80 99 103 108 108 109 109 112 116 108 102 102 92 80 66 56 45 41 34 32 30 28 31 35 37 40 47 61 65
56 50 47 47 52 59 55 56 47 21 40 67 86 99 100 99 103 108 113 110 118 118 111 106 108 103 91 74 65 53 40 33 29 27 26 25 26 29 31 34 43 54 61
43 45 47 54 55 59 68 69 75 70 86 93 97 95 99 107 111 113 111 113 118 108 106 103 105 99 82 67 58 47 34 26 25 24 22 21 21 23 24 26 35 45 57
47 46 59 64 66 76 80 80 81 89 86 86 87 96 105 108 108 105 110 115 105 110 106 106 106 93 73 60 47 39 28 22 25 25 22 20 20 20 19 24 31 38 48
63 66 71 70 77 77 81 87 98 104 100 97 98 103 100 99 105 106 113 112 109 108 103 105 97 78 64 48 39 31 23 26 28 26 23 21 21 25 22 23 27 31 41
73 82 81 86 83 85 90 99 103 94 94 99 101 102 103 106 104 95 98 101 104 102 102 99 84 66 51 41 34 28 22 30 29 27 25 24 24 20 20 14 23 28 37
81 80 82 85 86 92 98 88 89 89 88 93 98 104 100 88 89 94 98 101 99 100 97 84 68 54 43 36 31 26 24 33 33 30 28 23 23 23 21 15 24 32 42
94 92 96 99 99 98 98 92 91 93 91 88 87 92 94 95 96 98 99 98 96 89 76 63 56 45 40 32 31 28 27 37 37 36 32 29 24 21 21 25 20 37 53
94 97 97 99 100 87 76 77 85 89 89 91 95 99 102 103 101 95 90 86 79 66 59 52 47 43 38 32 32 31 31 39 44 41 37 35 30 31 30 26 23 36 60
94 98 90 79 80 84 86 89 94 98 99 100 100 98 96 93 90 86 82 69 60 55 51 48 43 41 38 33 33 36 34 38 50 47 44 39 37 36 34 35 35 39 69
84 82 85 86 90 94 98 99 96 95 93 91 88 86 82 80 76 69 62 60 53 49 44 42 41 39 35 32 32 35 38 41 53 54 51 46 43 43 40 41 44 42 74
87 89 92 94 98 99 89 86 84 81 77 74 71 67 63 60 57 56 55 53 48 45 40 38 37 34 33 30 29 33 38 40 50 61 58 55 50 48 44 46 52 55 83
95 99 102 102 81 77 76 73 68 65 63 61 60 58 56 54 49 47 48 48 44 39 35 31 28 27 27 27 27 29 32 37 44 59 64 62 56 53 52 47 54 64 71
102 97 78 72 69 73 71 67 66 63 61 58 56 53 49 47 43 40 40 41 38 33 30 26 23 22 22 21 21 22 26 35 39 47 66 68 65 59 57 55 59 61 73
74 69 66 67 69 65 63 60 54 51 48 47 46 43 39 37 37 35 34 35 31 28 26 23 22 22 22 22 22 23 23 26 31 41 49 68 73 69 63 61 60 64 65

GFSGL_250_spd_006.txt.gz
Wind_Speed
51 53 54 51 51 50 53 55 57 60 58 52 54 55 58 57 64 66 64 64 59 65 64 62 56 59 65 71 75 82 76 69 51 62 63 61 61 65 71 78 76 74 73
54 55 54 54 56 56 58 60 60 65 55 52 53 57 60 63 67 70 68 62 64 69 66 65 60 61 77 80 86 89 87 74 54 52 66 70 62 59 66 71 78 78 77
55 55 56 57 57 59 61 61 58 53 50 57 60 62 68 71 68 69 66 65 70 68 65 62 49 74 76 87 88 92 95 80 60 46 59 68 67 57 56 65 71 80 80
58 58 60 62 62 64 64 66 61 65 56 60 64 72 73 67 68 68 70 71 70 65 64 62 52 68 79 90 96 103 102 74 58 50 53 63 62 58 52 53 66 72 80
63 64 65 65 66 67 69 65 55 62 61 65 68 72 75 73 71 68 70 72 71 66 63 55 61 65 90 96 102 104 109 74 59 48 49 56 61 59 57 52 59 67 74
66 68 68 65 62 64 50 48 46 69 59 66 70 84 81 76 72 75 75 71 70 66 55 59 60 88 100 101 105 108 111 74 65 52 43 46 55 58 60 55 53 60 67
64 66 66 61 57 48 44 48 66 68 67 71 85 90 83 77 72 73 76 71 67 59 59 64 87 93 103 103 109 114 101 84 73 57 43 39 47 57 60 59 55 50 55
63 65 65 61 54 50 45 60 66 70 77 82 87 90 90 79 74 79 67 55 56 54 61 86 94 100 106 104 111 117 98 87 78 54 41 41 42 55 59 60 57 55 56
68 69 64 58 53 44 48 56 62 72 79 80 86 91 82 76 68 53 51 56 56 66 94 93 98 107 105 111 114 108 97 90 76 56 41 37 42 48 54 55 60 60 61
68 67 66 64 49 42 49 55 61 70 76 78 81 74 59 53 50 51 55 61 72 103 105 100 101 104 109 110 110 103 100 87 75 54 44 38 36 39 47 51 57 58 64
69 67 62 54 49 46 44 50 56 63 71 76 72 63 43 42 50 59 67 78 96 112 110 107 105 112 113 104 104 96 89 88 68 52 43 37 31 31 36 44 51 55 56
68 59 52 47 42 39 46 49 52 59 63 69 73 62 49 55 63 72 82 90 100 113 105 106 109 111 108 106 103 93 87 80 60 48 38 34 29 27 31 37 42 43 48
60 51 42 44 40 41 48 51 56 62 70 71 75 76 73 65 75 89 91 96 101 108 108 107 107 108 107 107 98 91 81 67 51 42 34 30 25 23 25 26 27 32 41
48 42 36 45 42 50 59 57 62 68 69 77 83 86 93 93 94 95 99 103 106 103 104 103 105 108 105 96 95 86 74 61 45 37 30 26 23 22 21 20 21 27 33
54 42 42 51 53 49 57 64 69 77 84 89 92 97 96 95 96 101 102 101 99 99 101 104 106 98 98 97 91 79 67 52 40 32 27 25 24 21 16 15 18 18 24
52 47 47 52 61 67 73 80 79 79 82 89 92 94 97 100 104 95 98 91 95 98 98 94 95 100 96 91 80 71 57 44 35 29 26 27 23 21 19 15 14 18 19
69 66 69 66 69 77 82 75 79 90 93 97 97 101 96 95 98 87 85 87 90 95 99 99 100 95 88 79 71 59 49 39 31 27 29 28 24 22 19 19 19 17 21
75 76 76 74 73 78 84 85 85 89 95 96 99 97 96 84 89 95 98 99 102 102 95 92 91 82 75 65 57 51 40 36 30 28 32 30 27 23 21 19 16 15 21
83 83 77 77 76 75 79 84 85 90 95 96 90 85 89 95 98 103 106 101 94 90 86 81 74 64 57 55 49 42 37 33 31 30 35 33 29 23 22 20 19 19 25
93 80 77 77 81 85 87 89 94 95 89 85 90 95 98 101 105 98 86 82 78 72 68 64 57 52 50 45 41 36 34 34 31 32 38 37 33 27 23 18 19 24 33
84 82 85 85 86 91 92 100 97 87 92 97 97 100 102 92 80 76 70 65 63 59 54 52 51 47 42 39 36 34 32 33 32 35 40 43 39 33 28 23 26 27 36
89 91 92 89 94 98 99 88 91 96 97 98 98 90 77 72 66 64 63 61 56 52 49 46 44 42 40 36 33 31 30 30 33 34 39 47 46 40 35 31 33 41 46
85 90 92 93 91 90 94 97 100 100 99 94 79 73 68 64 58 55 54 51 47 44 43 40 37 36 35 32 30 28 27 27 31 34 36 47 52 48 43 39 40 49 55
82 87 88 92 95 96 98 98 97 94 83 76 69 64 59 55 51 47 44 42 39 36 33 29 29 29 29 27 24 23 24 26 29 32 35 38 54 54 50 45 43 48 64
91 91 93 94 94 95 92 86 81 74 68 64 60 56 52 48 43 38 37 34 32 32 31 29 28 27 25 22 20 19 20 20 23 29 32 37 45 60 57 51 48 46 71
90 86 80 75 71 70 70 66 64 61 59 56 53 51 47 44 42 40 37 35 32 31 31 30 29 27 24 22 20 20 21 21 21 22 24 31 35 53 63 60 54 53 65

GFSGL_250_spd_009.txt.gz
Wind_Speed
44 45 46 47 49 50 52 54 57 57 57 59 55 49 47 46 52 57 57 59 59 65 66 71 65 61 56 56 47 49 51 61 77 88 80 82 67 51 55 58 72 77 82
45 47 49 51 52 54 55 57 57 57 49 53 56 47 46 55 57 62 65 66 66 77 81 76 68 60 56 49 47 52 58 64 81 84 87 88 79 54 52 53 61 75 78
50 51 53 54 54 55 55 54 56 48 46 51 51 49 52 58 63 66 65 71 72 84 82 84 73 57 54 50 51 57 71 81 85 85 89 93 74 63 51 53 48 56 75
54 55 55 53 49 46 50 58 54 47 54 50 57 56 54 59 68 68 71 79 88 91 88 86 71 50 39 54 55 69 74 89 91 93 91 86 73 64 54 51 49 46 58
57 56 53 49 47 46 50 51 48 50 62 66 60 54 61 69 76 84 85 84 90 95 84 86 59 58 39 54 60 77 92 97 94 92 88 82 70 60 51 49 49 47 51
62 57 52 51 51 52 49 47 43 44 50 53 67 70 68 76 81 85 86 91 93 91 91 71 68 60 46 61 75 92 93 102 98 95 86 73 69 59 47 45 45 46 53
59 56 54 55 58 54 52 46 43 45 52 55 65 72 85 86 85 86 89 92 92 86 74 73 60 56 62 82 90 96 100 101 100 93 84 74 68 57 45 44 43 44 51
61 57 57 58 59 59 57 53 48 47 51 62 67 75 86 89 87 86 83 88 82 80 78 73 73 74 85 89 96 101 101 100 102 93 75 71 63 51 46 42 43 44 49
59 58 61 63 63 65 61 58 51 51 59 58 65 75 82 82 82 79 77 74 72 78 70 68 75 84 90 96 96 96 98 103 101 88 80 64 60 50 45 41 39 44 46
64 63 67 70 70 68 64 60 53 54 58 64 69 74 79 80 80 82 81 71 69 73 77 82 84 92 96 96 100 103 103 99 93 87 74 64 53 47 40 36 36 42 44
65 67 71 73 74 72 70 61 52 48 54 62 57 65 69 81 77 77 78 79 80 82 93 91 91 91 92 98 103 99 96 94 90 83 70 59 47 37 34 33 32 37 39
71 73 74 77 71 70 61 60 55 50 51 51 52 69 79 79 78 83 86 88 90 92 93 94 94 98 97 97 95 92 90 89 85 77 62 51 40 31 26 28 29 30 31
73 75 76 75 68 65 57 62 56 58 60 64 69 76 84 78 77 80 89 91 90 92 96 99 103 97 95 92 85 93 94 93 82 65 53 43 34 25 22 24 24 24 28
76 72 71 69 69 65 60 61 61 62 64 68 70 73 70 80 84 90 89 92 95 96 100 101 101 94 87 89 98 96 97 85 69 58 48 37 29 20 20 21 21 23 26
73 70 71 73 71 63 59 59 56 55 57 64 69 72 83 90 96 96 94 93 93 95 100 97 95 94 97 102 101 94 79 71 61 53 41 30 25 19 20 21 19 19 19
74 77 73 72 68 63 63 63 62 67 70 77 77 81 83 87 89 90 92 92 95 97 92 93 97 103 106 103 87 74 69 62 52 43 35 26 22 21 21 22 20 18 16
75 74 73 72 69 69 69 68 69 73 77 82 80 79 84 81 84 87 91 93 98 95 96 100 106 107 94 78 73 64 59 51 43 39 27 25 22 25 24 24 23 21 19
73 70 72 74 76 74 76 79 79 78 78 72 73 80 84 85 87 91 94 100 94 97 103 107 99 81 75 69 63 58 51 45 41 33 25 25 24 29 27 26 23 21 21
74 74 74 77 81 82 82 86 89 90 87 81 84 86 86 87 91 93 94 94 98 105 99 81 78 72 68 62 57 52 47 42 37 31 25 26 27 34 30 28 24 22 20
78 81 82 84 86 89 92 94 93 86 79 81 87 90 89 91 89 90 95 99 100 88 78 73 69 65 60 56 51 47 41 36 33 28 24 26 30 37 34 29 25 22 21
83 83 87 89 94 92 88 88 83 81 81 80 82 84 87 91 95 98 98 90 76 70 65 60 56 52 49 46 42 39 34 32 29 27 25 27 30 39 39 31 26 25 25
88 89 95 96 90 81 79 80 79 81 84 87 90 93 95 96 95 89 76 69 61 56 53 49 46 44 42 39 37 34 30 28 27 24 25 27 31 38 42 35 31 30 29
86 86 78 77 78 80 84 87 89 91 93 94 94 94 92 84 74 69 61 56 50 47 45 42 40 37 34 32 31 27 25 24 23 22 23 26 32 36 45 40 37 35 33
76 78 81 83 84 87 91 94 96 95 90 83 76 72 69 66 60 55 51 47 43 41 40 38 37 34 32 30 28 26 24 23 21 21 22 22 29 35 47 46 42 38 40
79 82 87 90 93 96 96 86 74 67 64 64 61 60 57 54 52 49 45 44 43 42 40 38 36 33 31 29 28 27 25 23 20 20 20 20 24 33 42 50 46 44 45
86 89 91 94 92 80 68 61 59 55 56 56 53 52 51 49 44 43 43 41 39 39 40 39 37 35 33 30 28 28 27 25 23 20 19 19 20 27 36 51 52 50 50

GFSGL_250_spd_012.txt.gz
Wind_Speed
37 37 37 40 43 45 48 50 49 48 47 49 45 43 46 48 49 59 49 53 57 58 62 68 68 68 67 71 69 50 40 43 38 47 55 66 80 78 80 51 51 43 59
41 39 41 42 45 48 50 52 46 44 45 48 45 48 50 44 51 55 51 57 59 60 67 70 71 75 69 71 68 50 49 49 36 49 61 77 81 87 74 58 60 45 47
43 43 44 46 47 51 53 48 43 45 48 45 43 51 54 54 54 49 53 55 64 68 71 74 74 80 78 75 70 52 48 47 48 62 67 82 90 90 78 86 70 50 47
49 48 48 49 50 50 49 43 45 43 48 44 33 36 47 53 54 52 53 66 66 72 80 82 83 87 82 81 65 54 47 56 61 62 78 88 93 83 93 90 74 55 45
53 54 53 54 53 49 44 43 45 43 49 46 35 39 47 55 54 56 63 70 78 81 81 84 86 89 89 70 64 62 63 58 62 79 88 94 80 93 87 76 68 58 51
58 59 58 58 53 49 47 43 44 44 47 46 35 47 52 53 55 61 70 72 78 79 80 85 87 88 84 78 72 64 69 76 83 93 90 90 92 86 73 71 67 50 51
64 64 61 57 54 53 49 48 47 48 51 49 48 55 60 61 65 70 72 74 79 83 84 86 87 84 87 83 79 78 83 89 91 93 87 96 87 75 70 70 67 48 48
70 68 64 61 57 53 52 53 53 57 54 55 55 58 61 68 72 77 82 81 81 82 85 85 78 77 79 82 83 87 89 96 94 91 97 80 75 74 68 70 62 47 45
71 70 67 64 60 58 56 56 60 62 62 63 63 65 65 66 75 79 81 81 79 84 84 83 81 75 77 80 85 89 98 92 91 99 86 76 76 69 60 63 55 48 45
72 72 68 64 62 61 62 63 65 67 70 68 69 63 63 66 66 62 64 66 68 74 81 77 80 85 86 92 94 94 94 97 96 87 82 77 77 73 56 53 48 45 39
70 69 68 64 63 63 67 69 70 71 68 62 65 63 65 67 62 56 63 72 77 82 84 89 93 99 97 93 94 99 102 105 87 83 82 81 78 62 48 47 45 40 36
67 68 70 69 68 70 71 73 72 71 66 64 63 64 68 69 70 74 76 79 81 79 81 87 92 96 100 99 103 106 101 90 85 87 89 82 68 52 44 41 38 35 32
67 67 69 71 74 73 74 74 73 71 64 68 67 68 70 72 69 70 76 82 84 84 88 90 95 102 104 101 93 97 91 86 88 91 82 65 56 48 41 35 33 33 28
69 68 72 74 75 75 74 74 72 73 74 72 69 70 71 72 71 74 78 81 80 84 86 91 98 99 96 91 91 87 88 89 90 79 62 57 47 41 33 30 31 31 27
70 73 74 73 73 73 74 74 74 77 75 76 70 70 69 72 74 78 79 82 88 92 94 93 93 92 89 89 89 89 89 85 72 62 53 49 42 34 31 28 29 28 25
76 78 76 74 77 75 73 76 78 78 78 76 76 75 74 76 79 82 87 85 86 84 83 84 84 84 86 88 90 89 84 70 63 55 46 41 35 31 28 27 28 28 25
77 77 78 76 73 76 78 79 84 81 80 79 77 77 79 82 89 88 81 76 76 77 78 79 83 87 90 91 88 75 67 61 56 47 42 38 33 27 26 27 29 27 25
74 74 70 73 76 79 82 82 82 79 77 77 78 82 85 81 78 74 75 75 78 82 85 86 89 91 91 80 69 63 57 52 46 41 39 35 29 26 27 29 29 28 27
70 72 74 77 80 82 83 82 81 81 81 83 84 83 78 75 77 78 80 84 87 90 90 91 92 85 67 63 59 56 51 46 41 38 35 32 29 26 29 31 31 28 27
73 73 76 81 84 85 84 83 84 83 83 79 76 75 79 82 83 86 89 91 93 93 90 85 70 64 58 54 52 48 44 41 38 35 32 30 28 27 30 34 33 30 30
76 79 81 80 81 80 81 81 81 79 78 78 82 82 85 88 91 93 93 89 83 75 68 62 58 52 49 47 44 41 38 35 33 31 29 28 28 28 31 36 36 32 31
77 77 79 81 81 80 79 79 77 80 82 84 86 89 91 94 90 82 72 67 62 61 57 53 49 45 44 43 39 36 33 30 29 27 26 25 26 27 31 36 38 34 34
76 78 77 77 78 78 77 77 80 84 86 88 91 95 93 79 68 64 59 57 56 53 50 48 44 42 41 40 38 35 30 27 25 23 22 21 23 24 28 35 40 36 34
77 77 76 77 76 76 79 81 84 88 90 92 94 85 72 65 61 57 52 51 49 45 43 42 42 41 39 36 34 32 30 27 24 21 20 19 19 21 25 33 40 38 39
76 77 77 77 79 80 82 85 88 91 92 93 80 72 64 57 55 51 47 45 42 40 39 40 40 39 37 35 32 30 29 26 24 22 20 18 17 18 24 30 38 40 43
76 76 78 79 81 84 86 88 92 92 91 77 67 58 52 47 43 42 41 40 39 38 39 38 39 38 36 34 32 29 28 25 23 23 21 18 17 17 21 27 36 41 46

GFSGL_250_spd_015.txt.gz
Wind_Speed
35 35 36 35 35 38 40 41 44 48 48 42 42 44 45 41 39 42 45 48 55 51 53 55 50 56 63 61 68 67 70 71 69 69 50 36 45 52 53 53 69 71 69
40 40 40 38 39 41 42 44 48 51 49 44 42 42 47 38 40 49 53 51 51 55 54 54 57 64 61 68 70 74 70 70 62 56 55 52 44 47 53 60 73 77 64
46 45 44 42 43 43 46 48 51 50 51 45 46 42 45 41 41 47 56 56 55 53 54 59 63 66 71 71 71 74 73 69 64 63 60 62 64 66 67 73 73 70 78
51 48 47 48 46 48 49 50 52 52 49 43 45 44 47 39 41 47 52 58 63 57 56 63 65 67 69 72 74 72 76 77 68 71 66 67 67 68 74 76 72 85 90
54 52 51 52 51 53 54 54 53 52 51 49 49 48 49 48 46 54 59 61 65 68 69 70 73 74 76 76 76 75 68 67 70 71 70 72 78 85 77 78 84 95 77
55 54 55 57 57 57 55 56 56 54 51 49 51 52 52 55 56 58 63 69 72 75 76 77 79 79 77 74 73 70 67 72 74 76 79 82 89 78 90 98 104 86 81
58 59 61 61 61 62 59 58 57 56 53 53 52 53 58 61 62 65 67 67 70 72 75 74 74 73 74 74 71 70 79 82 80 80 88 96 94 98 100 102 82 81 80
64 65 66 66 65 65 62 60 60 59 56 54 55 55 57 61 62 69 69 65 66 70 76 75 72 73 71 76 77 80 83 87 87 92 94 94 97 99 108 89 88 86 82
69 69 70 70 71 70 67 65 63 62 59 57 60 63 64 62 67 67 68 67 67 67 66 63 63 69 72 79 81 79 83 85 84 87 95 103 105 107 95 87 79 79 74
73 74 74 73 73 72 71 69 67 63 63 63 65 68 68 70 70 68 70 69 68 72 71 72 76 80 79 86 89 87 87 88 87 98 105 103 104 98 95 90 82 66 53
77 77 76 74 74 73 71 69 68 69 69 68 71 73 73 71 72 70 71 74 77 79 77 80 83 88 93 95 97 97 97 98 97 97 100 103 100 89 84 75 63 55 52
81 79 78 74 74 72 70 69 70 72 72 75 76 77 76 75 72 70 75 78 82 81 81 83 85 89 88 85 90 95 94 98 104 108 106 91 89 86 78 63 54 49 45
82 82 79 74 72 72 69 71 72 74 74 77 80 78 78 72 69 76 81 84 86 86 83 81 78 80 84 80 80 82 81 83 81 80 82 84 83 74 61 54 47 44 39
83 81 77 73 71 70 71 73 75 74 75 80 81 80 78 74 77 84 87 90 90 89 85 82 82 79 73 72 71 72 75 78 81 81 80 78 69 58 51 47 43 37 34
81 79 77 74 73 75 74 76 77 79 80 80 80 80 81 82 85 89 93 92 89 86 85 78 72 72 72 73 75 76 81 82 82 80 74 62 57 50 43 39 36 31 32
80 80 78 76 76 77 79 79 80 79 79 81 80 82 83 87 90 91 89 85 81 78 76 76 77 77 78 80 81 81 82 81 78 68 58 53 47 43 38 35 33 31 30
80 80 77 77 79 79 80 80 81 81 80 83 84 85 86 90 91 86 82 80 78 78 80 82 82 84 87 85 83 84 81 69 59 58 54 48 43 39 34 32 30 26 29
80 80 80 75 74 77 76 76 76 79 81 82 84 88 90 87 84 83 82 78 80 82 84 85 88 90 86 81 76 67 61 57 51 50 48 44 40 37 32 29 28 26 29
77 72 70 70 72 74 74 79 81 81 79 84 85 87 85 84 83 82 81 82 83 86 89 88 82 76 70 64 60 55 51 47 45 44 43 39 36 33 31 28 28 29 31
67 61 66 69 72 74 77 80 82 80 79 80 84 82 83 80 81 82 84 85 86 90 80 67 63 60 58 54 51 47 46 43 40 40 38 35 32 30 28 26 26 27 32
64 68 70 70 74 77 79 79 80 80 82 81 79 80 85 83 83 85 86 86 89 74 65 58 56 55 53 49 46 44 41 39 38 37 36 33 29 28 24 23 24 26 32
68 69 72 74 73 78 76 79 81 82 81 82 78 80 81 84 87 86 86 90 78 66 60 58 54 52 49 45 40 38 38 37 35 34 31 31 29 27 25 23 23 26 31
74 72 73 77 78 80 80 80 81 83 84 82 79 82 87 87 87 86 89 78 67 60 58 55 48 44 42 40 39 36 35 34 32 30 29 28 27 25 24 22 23 25 30
83 84 87 88 82 83 82 81 84 84 84 82 82 86 88 91 85 88 78 65 58 52 47 44 42 41 40 37 35 32 32 31 30 29 27 25 24 23 20 20 22 25 29
82 88 87 87 93 89 84 84 84 84 86 87 89 91 92 89 88 78 64 56 50 47 45 41 40 39 38 36 34 33 31 29 28 28 26 24 22 21 18 18 21 24 30
94 91 91 91 91 86 86 86 87 86 85 89 89 92 89 86 77 62 55 50 48 44 41 41 39 37 36 34 33 33 33 31 28 25 25 23 21 21 19 18 18 22 28

GFSGL_250_spd_018.txt.gz
Wind_Speed
34 34 33 33 34 34 36 35 37 42 43 48 49 50 49 46 45 47 51 50 53 51 50 53 54 60 60 59 54 53 56 56 61 56 47 40 52 45 48 47 39 44 47
37 37 37 38 39 39 40 40 41 44 46 49 54 55 54 50 48 49 52 53 53 54 55 57 61 64 63 52 55 57 60 61 62 55 54 52 55 56 57 52 50 51 57
41 41 41 43 43 43 44 45 45 46 48 52 54 55 55 53 52 51 53 55 55 57 60 61 64 65 66 64 62 65 66 62 60 59 60 61 61 64 67 64 61 62 67
46 45 45 47 47 48 48 48 49 49 50 54 57 59 55 54 52 53 55 57 58 61 61 62 64 67 69 70 70 64 60 59 60 59 61 64 64 71 67 70 73 80 70
51 51 49 50 52 53 52 53 52 52 55 55 58 60 57 54 56 54 54 57 60 64 62 59 59 59 62 67 70 68 64 65 61 65 64 64 73 71 70 72 81 65 68
56 56 53 55 57 57 56 56 56 56 57 60 61 59 57 53 57 57 58 62 62 63 66 64 60 63 64 63 53 58 59 66 69 74 75 80 74 75 75 82 68 75 78
61 61 58 61 62 61 59 58 58 60 61 61 64 61 59 57 59 60 62 62 66 66 67 66 64 64 66 58 60 64 72 67 78 78 83 89 90 88 83 84 88 85 92
65 65 64 64 67 65 64 62 63 64 65 66 67 65 63 61 59 62 64 68 69 71 69 68 68 66 67 70 68 70 74 80 86 90 90 93 92 80 82 87 90 100 102
71 69 68 66 68 69 67 68 69 70 70 70 71 69 66 66 65 64 68 72 73 72 71 70 69 74 77 77 78 79 82 85 88 90 90 92 92 92 89 88 96 101 97
76 73 72 72 72 72 71 72 73 74 74 74 73 71 72 73 72 75 76 78 75 74 73 76 78 79 82 85 85 83 81 80 81 84 86 86 84 83 82 78 79 84 87
77 76 77 79 78 76 76 78 77 77 77 77 74 75 75 76 77 80 80 79 78 77 79 80 82 83 85 88 87 81 81 79 80 75 72 73 72 74 78 80 84 86 84
80 80 81 83 83 81 82 83 81 79 77 75 77 77 77 77 79 82 80 80 80 84 80 81 83 87 90 86 80 77 74 72 72 74 74 76 77 80 83 85 84 80 70
82 83 84 86 85 84 83 85 83 79 75 75 75 77 77 79 81 81 82 79 83 83 83 87 89 89 84 81 79 79 79 80 80 79 79 79 80 84 84 79 73 63 57
83 86 87 86 86 85 84 81 77 76 73 75 75 78 80 81 82 82 83 81 84 83 86 91 89 85 83 81 82 82 82 84 86 85 81 82 82 77 70 60 57 56 49
86 86 86 85 86 84 82 78 76 76 76 75 77 80 82 82 82 82 81 84 85 86 89 87 86 84 81 83 84 85 85 86 85 83 77 71 65 60 58 55 52 49 44
81 81 82 83 83 80 80 78 77 77 73 75 78 79 81 81 80 80 83 83 84 88 87 84 81 82 83 85 85 86 83 77 73 70 65 61 58 56 51 50 46 42 40
79 79 81 77 78 79 79 78 79 74 68 71 76 77 78 82 81 81 79 83 86 85 84 84 83 86 86 85 87 78 71 67 62 57 55 52 49 47 45 43 39 37 35
74 74 74 76 77 77 80 76 72 63 66 72 72 74 79 83 79 78 83 85 83 84 82 85 88 85 83 84 76 69 62 58 56 54 50 46 44 42 40 37 35 34 31
72 70 73 64 67 75 70 73 68 66 69 77 73 79 78 78 78 81 84 81 83 85 84 87 92 88 83 73 64 59 55 53 50 47 46 42 38 38 35 34 33 30 28
66 63 64 58 66 72 76 76 72 68 71 75 76 78 79 79 80 84 85 86 87 88 89 92 88 85 74 65 59 54 49 46 43 41 41 38 36 35 33 30 29 29 28
59 61 60 60 72 76 79 82 78 74 69 70 77 85 85 90 92 90 87 88 89 90 91 92 84 78 67 58 51 46 45 42 42 39 37 35 33 32 31 29 26 24 26
59 63 65 71 67 70 77 76 77 78 80 81 84 86 90 98 95 88 87 91 92 93 93 85 79 67 56 50 48 44 42 41 41 39 36 33 30 30 30 28 25 23 22
58 63 63 68 75 78 82 83 83 86 88 86 89 95 99 94 86 85 87 89 89 91 90 82 70 58 51 48 45 42 43 42 39 36 34 32 29 29 29 28 25 23 20
58 62 64 69 74 79 82 87 89 91 97 99 99 104 100 94 85 85 87 91 94 89 80 74 61 54 50 45 44 42 42 41 39 34 31 30 27 26 26 25 24 23 20
73 72 73 80 82 84 85 85 90 95 99 99 100 96 91 87 89 87 89 94 86 79 76 63 56 51 45 42 43 40 40 40 39 35 31 27 26 25 24 24 23 22 20
80 84 85 85 85 90 99 101 101 97 91 94 88 86 90 90 88 90 89 85 78 76 64 55 51 46 45 42 41 40 39 37 37 36 31 27 24 24 23 22 22 22 21

GFSGL_250_spd_021.txt.gz
Wind_Speed
32 31 31 31 31 31 30 30 33 37 39 40 43 45 46 50 51 52 51 50 48 48 49 51 52 53 51 51 51 48 48 51 47 55 58 52 46 39 36 39 42 44 47
36 35 35 35 35 35 33 35 37 40 42 44 45 48 50 52 53 54 54 54 53 53 54 52 55 56 57 56 55 51 50 52 53 55 51 46 41 44 44 47 50 51 52
41 41 41 39 39 39 38 39 41 42 44 46 49 52 53 56 59 59 58 57 53 54 55 56 56 60 61 61 56 54 52 51 54 55 47 46 51 53 54 56 57 55 57
46 46 47 45 43 44 45 46 46 45 46 48 50 52 53 57 60 61 61 59 54 55 57 59 62 62 61 60 59 60 58 58 58 56 54 55 58 60 60 61 62 64 67
50 50 52 49 49 48 50 51 51 51 50 50 52 54 55 58 62 64 63 61 59 58 61 64 63 67 62 61 63 61 61 61 63 62 62 56 68 72 68 68 72 78 78
54 56 56 57 54 53 55 57 55 54 55 55 56 56 58 61 63 65 63 61 61 64 64 68 67 68 65 63 65 63 64 65 65 66 66 68 72 76 79 82 85 79 76
58 61 63 62 60 59 59 61 60 58 59 60 61 62 62 65 66 67 65 64 63 65 69 70 72 69 67 64 67 64 67 68 70 73 75 74 74 77 74 74 75 77 83
63 65 68 69 68 63 63 65 63 63 64 64 67 67 67 68 69 70 68 67 65 72 73 73 74 72 68 70 70 71 71 75 78 79 77 75 74 74 75 74 75 75 74
68 70 71 73 73 69 67 68 68 68 69 70 71 71 71 72 73 71 70 69 71 74 76 77 75 73 74 74 76 76 77 79 81 78 74 73 73 73 74 72 73 73 74
74 76 76 77 75 74 73 73 73 73 73 75 71 74 75 76 76 74 79 77 78 78 78 77 76 75 77 78 81 79 81 83 78 76 72 73 75 76 77 78 79 80 81
78 79 78 79 79 76 76 77 78 75 77 78 77 78 79 80 79 79 78 78 79 80 79 78 80 80 80 82 79 83 84 79 77 76 79 81 83 83 83 83 83 83 83
84 83 81 82 82 80 80 80 78 77 78 82 83 83 83 80 79 79 79 81 79 80 81 80 81 83 82 79 82 83 81 78 80 85 87 88 86 86 86 82 78 73 70
88 87 86 86 84 84 82 79 80 79 82 84 85 85 80 78 78 79 79 78 80 78 79 82 83 81 79 82 82 82 81 83 89 92 90 88 87 82 73 67 64 59 57
89 88 88 88 88 86 84 84 84 85 86 85 82 79 79 75 76 79 79 78 75 78 82 81 78 76 80 80 82 84 87 90 95 92 90 83 74 68 65 60 57 54 52
89 91 91 92 90 89 88 88 86 84 84 79 77 77 77 74 78 76 75 73 78 79 78 77 77 82 84 84 86 88 91 93 92 89 82 73 67 61 55 52 49 46 45
92 86 83 82 84 88 86 82 80 78 78 77 77 72 72 76 73 69 71 74 79 78 80 81 86 93 97 88 89 91 92 91 87 79 72 68 64 58 54 49 46 44 43
82 84 85 81 72 66 71 75 77 76 72 73 75 72 76 72 69 69 72 76 74 76 81 88 91 100 86 85 90 91 92 87 78 66 60 56 54 51 48 45 43 40 40
60 64 65 67 67 65 69 73 70 69 72 72 71 73 69 72 72 75 82 79 79 83 90 90 101 106 100 87 89 93 85 79 67 58 52 48 46 45 43 40 39 38 37
62 64 64 62 67 71 67 65 64 66 71 60 67 70 73 74 77 80 78 83 84 85 93 104 108 96 92 90 91 87 80 71 60 54 50 47 44 42 40 38 37 35 34
58 59 58 57 55 55 57 59 57 53 53 58 67 72 75 76 78 83 86 86 84 94 103 103 102 99 94 89 88 80 72 63 56 51 47 46 44 42 39 36 35 33 31
47 42 50 57 55 56 56 54 51 51 54 63 70 80 83 83 85 79 80 91 96 100 101 101 95 93 92 88 80 75 64 56 51 49 48 45 43 41 38 35 32 31 29
45 56 61 56 53 56 61 60 53 60 66 72 78 76 77 76 79 84 87 92 95 98 99 99 97 92 88 80 76 68 56 49 47 47 46 44 40 40 37 35 31 29 27
32 41 51 53 46 51 53 56 61 63 65 68 73 75 77 80 83 86 96 98 99 100 103 96 94 88 81 74 69 59 49 45 46 46 45 42 39 36 37 34 30 28 26
34 37 45 56 54 56 50 59 61 63 67 69 75 80 84 87 88 85 85 89 105 99 88 91 85 85 74 74 63 52 44 43 45 43 42 40 38 35 34 33 29 26 25
48 52 51 55 60 65 69 68 72 74 77 83 89 91 94 94 95 97 95 99 100 91 86 78 84 78 73 67 56 47 42 42 41 40 39 37 36 35 32 31 28 25 24
61 61 59 66 68 71 73 73 78 80 81 83 89 93 91 90 90 93 100 102 96 91 82 79 76 74 71 60 48 43 41 40 41 38 36 36 36 34 32 28 26 23 22

GFSGL_250_spd_024.txt.gz
Wind_Speed
28 28 30 29 30 29 30 30 31 33 35 36 38 38 40 42 46 48 49 49 49 51 50 45 44 43 44 49 51 51 47 46 43 42 39 38 40 41 39 38 37 34 42
33 33 33 33 34 33 33 36 35 37 37 38 39 43 44 45 48 51 54 55 56 54 52 50 47 47 50 56 56 53 49 50 49 49 44 45 46 44 42 36 41 44 47
42 37 37 37 37 38 38 40 41 43 42 42 43 45 46 48 50 53 54 59 61 62 57 56 55 53 59 61 61 60 56 56 55 54 52 52 49 44 43 44 49 53 59
45 42 41 41 41 41 42 44 46 48 47 46 47 48 50 51 53 55 57 60 63 63 61 61 59 58 65 66 65 64 60 60 60 56 56 59 53 52 52 56 55 59 63
48 47 45 45 46 46 46 48 50 52 52 51 52 54 54 55 57 60 61 62 64 67 65 64 62 66 68 69 69 67 67 66 64 64 63 62 58 56 57 57 61 66 72
52 53 51 51 52 52 51 51 53 55 56 55 54 57 58 59 61 64 65 65 67 64 69 67 68 71 71 72 72 73 71 68 69 65 69 65 64 65 63 61 60 63 63
56 58 59 58 58 59 57 55 58 60 60 61 60 60 62 63 64 67 67 67 67 68 68 66 72 74 74 74 74 73 71 73 72 72 70 70 68 67 63 64 63 63 66
62 62 62 64 66 65 64 62 62 63 64 66 65 65 67 67 69 72 70 69 68 70 71 72 77 77 75 72 75 73 74 74 72 70 72 70 67 67 66 68 73 74 76
70 67 68 68 70 70 70 69 67 66 68 70 68 71 74 74 75 74 71 71 73 68 71 76 76 77 75 76 74 76 77 77 74 76 73 71 71 72 74 78 82 81 79
73 75 75 75 72 72 74 74 73 70 71 72 72 75 80 81 73 67 76 76 75 73 77 77 77 81 79 78 76 74 73 74 80 92 79 75 77 79 82 85 82 78 76
77 79 78 79 80 79 78 80 79 77 75 74 76 76 72 55 61 77 71 70 70 73 76 77 80 82 78 76 79 78 76 79 86 97 89 82 82 85 91 90 83 71 64
85 83 83 84 83 84 83 84 83 82 79 79 79 79 85 73 80 76 76 73 73 75 81 78 81 75 73 77 72 75 80 90 99 100 95 84 88 92 88 82 74 66 60
89 88 89 88 88 88 88 88 85 86 85 82 76 69 55 69 78 76 79 80 83 81 78 81 75 73 79 81 80 84 88 95 101 100 101 92 91 85 78 70 64 59 56
82 89 92 90 92 92 88 87 85 87 92 92 82 78 84 85 83 80 82 79 83 80 78 76 72 78 81 82 83 87 94 99 101 97 97 93 88 78 68 62 58 53 51
57 70 77 82 85 85 82 79 73 65 63 68 54 61 75 78 77 77 78 78 79 78 70 69 75 81 83 83 86 93 99 101 101 108 101 91 81 72 65 60 56 50 46
61 65 63 66 65 66 61 59 54 46 43 76 75 76 72 74 75 75 80 79 75 71 68 73 78 84 93 89 90 95 97 104 108 110 93 83 77 68 63 59 54 50 45
57 54 34 29 43 52 48 30 61 75 80 79 88 81 78 75 78 77 75 71 66 64 70 78 83 88 89 89 96 97 104 107 100 93 83 77 69 62 59 55 52 48 43
49 41 34 49 83 73 60 63 71 84 93 92 94 89 80 79 73 69 62 63 62 65 75 82 86 85 86 95 97 99 105 106 93 82 77 71 62 57 54 51 47 43 40
54 65 66 60 81 72 73 72 87 97 102 95 92 84 82 76 67 61 59 61 73 75 81 82 83 87 92 93 98 104 108 92 81 75 73 65 57 52 49 48 45 40 38
67 64 74 75 68 66 63 65 78 80 83 79 79 81 70 60 60 58 57 63 71 78 80 83 87 89 98 102 102 104 106 87 79 73 68 61 54 50 47 45 44 39 36
65 58 50 55 55 58 64 59 62 65 71 72 71 67 65 67 64 63 64 68 73 77 79 86 89 95 99 96 97 102 97 82 74 73 67 58 53 50 48 45 43 38 36
65 56 51 51 53 53 59 61 66 67 72 67 66 69 70 68 62 66 70 70 71 76 83 92 94 94 91 95 96 101 82 78 73 69 60 55 50 50 48 44 41 38 34
51 57 60 55 51 52 50 53 56 59 65 67 64 55 57 61 62 65 69 72 77 79 85 83 81 84 92 94 92 95 84 79 72 66 56 50 48 47 46 43 40 38 33
58 60 54 51 53 53 61 63 60 65 58 64 63 66 63 64 71 74 79 77 82 91 91 88 90 90 94 94 96 96 81 76 70 62 51 47 46 44 45 43 40 36 33
52 58 47 44 49 53 52 55 56 52 57 60 61 66 68 72 75 76 77 84 89 90 90 91 94 94 97 93 94 86 78 73 67 58 48 44 44 43 42 42 39 34 31
59 63 55 46 51 54 55 60 60 63 60 62 68 70 71 74 79 83 83 86 82 82 84 89 92 98 92 92 94 93 84 75 65 54 45 41 41 41 41 41 38 34 30

GFSGL_250_spd_027.txt.gz
Wind_Speed
30 30 29 29 30 29 27 29 30 32 31 31 32 32 34 37 38 41 43 44 46 47 48 49 48 42 44 45 49 51 54 54 54 51 51 48 48 48 47 48 51 48 42
36 33 33 32 33 34 32 33 34 36 35 34 36 36 37 41 43 45 48 51 52 54 57 58 58 49 51 50 55 57 58 60 60 59 55 53 53 52 51 51 54 50 48
39 35 36 36 36 37 38 37 38 40 40 38 38 39 39 43 48 51 52 55 58 58 61 64 60 57 58 60 61 60 62 63 63 65 62 58 57 57 55 54 51 49 52
42 40 40 41 40 41 42 43 44 44 44 44 43 44 43 46 50 53 56 58 61 63 67 70 65 58 63 65 67 65 65 66 67 64 65 65 60 53 53 54 56 56 56
47 47 45 46 46 47 46 47 49 50 49 49 50 49 47 49 52 55 59 61 65 67 71 71 58 61 66 67 69 70 68 71 74 69 70 65 60 56 59 63 57 55 53
51 53 51 50 51 53 51 50 53 55 55 53 55 56 55 54 56 59 62 65 68 73 76 56 60 65 68 70 70 72 73 74 72 74 69 61 59 66 72 68 67 60 58
59 58 59 58 58 58 57 56 57 58 58 59 60 61 61 60 61 64 66 69 70 70 58 55 62 66 67 69 71 75 74 73 74 74 69 67 70 76 72 77 72 66 64
65 64 65 63 64 64 62 62 62 62 62 62 64 64 64 65 66 69 71 73 75 70 53 61 67 63 67 72 77 74 74 75 73 75 73 73 75 80 85 88 84 80 75
72 72 68 68 68 68 69 70 68 65 65 65 65 67 67 68 70 73 76 78 75 69 69 57 67 67 73 76 76 74 76 79 78 75 78 81 86 90 97 94 86 82 79
80 79 76 75 73 72 73 73 74 73 71 69 69 70 71 70 74 77 78 77 75 75 65 62 71 75 74 74 75 78 77 82 80 82 85 86 91 98 100 100 92 83 74
86 85 83 80 79 78 79 77 78 81 80 79 76 76 75 76 78 77 76 70 68 63 61 65 75 72 74 76 81 81 83 80 81 87 86 91 99 105 112 106 87 78 71
85 88 87 85 85 84 83 82 83 83 84 83 81 79 79 78 80 78 79 59 53 56 65 73 75 77 76 79 85 88 85 81 83 84 90 98 106 112 114 98 81 74 66
66 65 70 79 82 85 88 89 89 89 89 87 85 83 82 81 80 79 59 56 53 61 73 76 74 75 78 84 90 86 80 83 83 89 96 104 110 113 112 95 79 68 59
55 54 54 37 35 43 47 53 58 57 56 59 71 71 74 71 65 54 60 65 67 76 73 68 71 80 80 87 92 87 84 85 89 97 101 108 109 116 100 85 72 61 56
53 39 21 23 36 43 43 49 49 40 37 40 42 46 51 61 63 60 63 53 59 64 73 75 77 79 82 92 91 88 86 89 92 101 105 110 109 116 94 80 69 58 56
45 35 22 25 32 42 45 25 23 20 21 24 23 38 49 49 52 60 61 67 75 76 81 84 84 88 84 90 93 84 87 89 94 101 102 103 108 106 87 77 65 58 56
45 39 49 45 37 44 42 35 32 31 31 17 18 35 52 61 65 76 80 85 85 88 87 92 92 93 82 92 92 85 86 87 96 97 101 103 107 95 83 73 63 58 55
35 49 55 40 33 39 47 33 23 35 51 37 56 57 69 75 83 93 93 98 100 97 90 94 91 89 98 95 86 82 86 91 101 99 101 105 97 87 79 70 63 58 53
23 20 30 27 24 59 50 40 44 54 61 65 67 75 76 82 80 90 104 103 108 98 96 99 100 99 91 86 80 82 89 97 97 97 100 104 97 85 78 68 61 56 51
18 39 46 30 51 98 89 53 50 58 64 76 77 88 91 89 91 92 98 102 102 104 109 101 107 106 89 80 81 86 94 98 93 95 102 101 95 83 77 66 59 53 49
42 45 55 56 78 84 72 65 66 65 68 73 81 92 95 95 100 106 107 106 105 107 103 102 98 85 74 75 82 85 89 85 89 100 101 104 96 80 73 64 57 52 50
58 61 64 66 78 76 76 70 70 75 79 76 74 83 91 104 115 111 100 95 103 102 98 89 79 69 73 81 82 92 97 92 94 98 103 102 91 75 70 62 56 52 49
63 59 75 80 84 86 87 87 80 77 74 75 78 78 80 88 94 97 92 91 93 94 87 79 77 74 79 86 89 92 89 95 96 100 92 87 89 74 69 59 55 51 48
70 74 78 76 74 78 81 82 82 82 82 84 86 74 80 81 84 84 85 87 89 85 83 75 73 77 81 89 91 92 95 95 98 95 91 90 89 74 69 56 52 50 46
84 83 84 85 82 82 82 79 77 73 73 84 74 75 76 80 82 85 87 86 82 79 78 75 78 82 87 90 93 94 95 94 95 88 91 90 87 75 67 55 49 48 45
89 86 84 83 85 87 86 85 92 95 89 87 81 89 93 90 86 75 70 72 73 75 79 82 83 83 88 88 88 93 95 97 86 90 89 84 76 69 64 53 46 44 43

GFSGL_250_spd_030.txt.gz
Wind_Speed
30 29 29 29 28 25 25 27 29 31 31 31 31 31 31 31 32 35 37 38 41 45 48 51 53 57 62 48 37 43 50 53 61 59 57 57 56 54 54 48 44 41 41
37 38 37 36 35 32 28 29 33 34 35 35 36 37 37 37 37 38 41 42 44 48 53 55 57 60 61 40 42 44 51 58 67 64 59 59 60 61 50 44 42 46 51
42 42 41 38 36 35 32 33 36 38 38 37 38 40 40 41 42 43 46 48 48 51 55 59 62 61 59 46 48 50 54 63 66 64 65 68 67 61 48 46 51 53 55
42 41 41 40 38 38 38 38 39 40 42 40 41 44 44 45 45 47 50 52 53 54 58 62 64 64 61 51 51 57 57 63 69 64 67 65 70 57 51 51 54 58 65
44 45 45 44 44 43 43 44 44 44 45 44 45 48 49 50 50 50 52 55 57 59 61 64 65 63 54 54 61 59 55 62 68 65 70 68 68 64 65 62 61 69 75
53 54 52 52 51 51 50 48 49 49 50 51 52 53 54 55 55 55 54 56 59 63 65 66 66 62 52 59 59 57 59 66 64 65 72 70 72 69 68 68 73 81 86
59 59 60 61 59 59 56 55 55 55 56 58 58 59 60 61 60 58 57 60 63 67 69 70 66 63 61 60 61 61 62 69 64 69 75 73 72 71 75 79 86 91 93
65 66 64 66 65 64 63 61 61 61 61 62 63 64 65 66 65 63 60 63 68 70 71 70 68 62 60 56 58 60 66 65 68 73 78 84 85 83 89 89 94 98 100
77 75 75 75 72 69 67 68 67 65 64 66 67 68 71 72 70 69 65 66 69 74 74 69 70 64 54 55 55 63 69 68 68 75 86 89 86 94 95 97 100 105 105
72 79 82 80 77 73 75 73 73 72 74 74 73 74 76 77 76 74 72 72 72 75 76 69 66 61 59 58 56 71 69 71 74 81 92 91 92 97 98 103 104 109 108
69 69 73 78 80 82 79 80 78 78 79 80 83 81 82 81 81 79 78 76 72 69 69 62 62 58 64 57 62 72 71 76 84 93 93 94 95 101 105 105 108 109 109
69 69 68 71 71 70 70 70 71 71 74 73 79 83 80 74 68 68 61 56 43 48 54 64 61 57 60 59 65 70 79 82 93 92 91 102 101 108 104 115 113 109 108
66 65 63 65 68 66 63 58 55 54 49 53 48 45 47 50 49 41 37 45 50 51 62 70 65 56 57 62 60 71 83 86 87 93 102 105 104 110 111 114 111 106 108
64 59 59 59 63 62 57 47 35 39 29 43 37 35 28 29 26 36 44 44 53 61 67 67 68 58 63 78 76 83 90 95 97 99 103 103 113 108 114 120 109 109 112
59 54 56 59 61 57 47 39 33 20 4 9 19 12 9 17 24 35 47 72 61 68 70 72 61 61 81 83 82 89 99 106 101 101 114 111 113 108 113 104 105 111 108
55 50 55 54 52 46 48 43 24 15 17 21 10 10 18 24 31 31 16 54 76 54 80 71 72 80 79 85 97 110 110 108 111 105 119 110 106 106 102 102 105 114 103
57 55 59 49 48 50 47 30 25 23 22 17 12 23 22 18 28 43 56 63 67 68 85 83 88 91 89 95 102 105 108 99 109 108 115 99 94 97 103 103 107 111 104
62 60 56 51 47 55 55 46 36 31 24 17 16 30 38 40 44 40 48 55 74 77 86 84 84 90 98 102 105 112 115 115 112 108 112 90 94 99 98 103 108 106 102
67 67 63 51 51 55 61 47 45 47 30 25 30 33 39 45 53 58 60 64 68 77 79 82 95 95 99 104 107 114 116 113 111 101 94 94 94 94 99 102 109 108 100
64 64 63 48 44 54 63 67 65 65 63 65 50 62 62 57 56 58 66 66 71 78 83 94 100 97 99 104 115 116 113 105 99 98 90 89 91 96 97 102 113 101 97
68 68 59 45 46 50 61 64 67 72 74 70 74 69 66 65 63 64 68 73 75 79 84 85 88 92 99 100 98 92 89 96 99 95 94 88 90 94 98 104 100 98 93
68 66 62 54 50 51 44 36 51 58 61 59 66 56 62 68 70 72 67 69 73 73 74 73 78 85 88 87 85 89 90 95 95 87 83 84 89 93 101 105 96 94 89
68 67 64 62 58 59 50 43 41 47 54 57 59 66 69 69 71 71 72 71 69 71 77 83 88 84 85 89 92 93 89 82 81 82 82 86 91 97 99 100 93 90 86
71 69 68 66 64 68 70 61 61 53 52 61 62 62 62 64 70 73 73 76 79 83 87 91 92 92 91 84 82 81 77 78 78 78 84 89 96 95 100 96 89 88 80
65 72 73 72 71 77 79 78 73 76 72 74 69 72 73 73 77 80 80 80 84 89 93 94 94 86 80 75 73 76 76 76 79 83 88 92 93 93 91 89 88 83 77
57 62 68 69 77 80 80 83 86 87 85 86 83 84 86 90 88 85 85 91 96 101 100 86 76 76 73 74 76 77 78 78 83 86 88 90 94 94 89 89 86 82 76

GFSGL_250_spd_033.txt.gz
Wind_Speed
27 27 25 24 23 23 24 25 25 26 26 28 29 28 29 31 30 31 32 34 36 37 40 43 46 50 52 55 56 51 43 43 43 43 50 54 58 61 61 61 67 70 68
33 32 31 32 31 32 32 31 30 30 29 29 32 32 34 35 36 35 36 38 40 42 44 48 50 53 56 58 60 49 50 49 54 52 51 54 56 58 62 61 65 77 68
40 38 37 37 39 39 38 37 35 34 34 32 34 35 36 39 40 41 41 42 44 46 48 50 53 56 59 58 58 54 52 56 56 54 51 50 55 60 66 73 76 75 78
44 42 42 41 37 35 36 36 37 38 38 39 40 41 42 44 45 45 47 48 49 52 53 54 56 58 62 61 62 62 58 60 53 52 50 52 55 65 70 81 85 86 86
43 44 45 41 41 40 39 39 40 43 43 44 45 46 47 48 50 50 52 54 55 56 58 58 58 60 63 65 66 67 61 53 54 46 56 59 63 72 80 85 88 91 91
50 51 50 49 48 49 48 48 48 49 50 50 52 53 54 53 54 55 57 58 59 59 61 62 62 63 65 65 66 64 58 51 50 47 55 59 66 79 82 87 96 95 84
57 56 57 56 57 57 55 55 57 56 56 57 57 58 59 58 59 59 61 60 63 66 65 66 68 65 62 65 62 55 51 51 52 50 56 64 70 80 86 93 96 100 96
64 63 63 63 64 61 61 61 62 61 62 62 63 63 62 65 65 65 67 66 67 70 70 70 68 63 60 57 52 52 46 51 53 51 60 67 73 83 91 95 104 99 103
59 64 66 66 69 68 68 70 69 67 69 68 69 69 69 70 71 71 72 72 72 75 74 71 63 57 47 43 48 52 47 52 60 56 65 70 79 88 97 105 100 101 108
53 55 54 56 59 59 62 66 68 70 72 75 74 73 73 73 74 73 74 69 64 53 49 47 46 43 42 44 49 46 47 53 50 60 68 76 84 96 100 104 104 107 114
44 48 52 54 55 55 56 56 56 61 63 65 66 65 63 67 65 60 56 44 41 37 37 36 34 42 45 44 52 49 50 56 49 69 81 85 94 99 107 109 110 109 116
44 44 47 53 57 56 55 56 53 52 60 61 53 55 56 58 55 35 32 23 23 24 28 30 38 48 40 48 50 55 61 49 60 73 81 93 100 106 109 111 116 111 114
47 47 47 49 53 56 57 52 53 57 58 53 50 53 51 42 32 25 17 12 18 27 37 43 44 42 48 55 49 66 73 69 72 79 89 97 103 106 113 108 115 113 111
53 51 52 51 51 52 54 47 44 37 59 53 51 48 46 33 27 18 12 17 32 38 44 52 45 42 40 50 58 68 76 77 80 89 88 97 102 108 112 114 114 112 113
58 56 55 57 57 56 58 56 45 54 66 49 46 39 32 36 32 17 19 19 31 36 30 30 52 39 47 62 76 81 83 90 90 89 92 97 102 109 113 118 115 116 111
64 63 61 61 61 59 58 56 53 54 54 50 38 42 43 26 25 20 24 27 30 21 15 22 40 54 50 53 71 80 88 82 87 91 93 101 101 109 115 113 110 109 101
71 67 67 63 63 63 64 61 49 47 52 52 48 42 31 30 29 22 26 33 28 35 51 60 58 70 68 62 73 75 79 80 86 90 95 95 101 107 113 107 110 102 95
76 73 71 66 68 68 62 62 50 48 53 53 48 38 34 40 39 33 34 33 44 60 66 65 58 69 77 80 82 75 73 76 83 87 92 100 104 101 99 104 99 93 92
77 74 73 72 77 71 64 59 50 48 49 50 50 46 39 39 45 42 45 48 58 52 53 53 59 71 68 60 70 73 80 82 82 86 89 92 96 98 101 97 93 90 91
74 77 76 75 76 71 63 59 47 39 38 45 46 36 57 57 48 45 45 46 53 60 66 63 60 69 64 66 72 75 73 74 81 88 85 86 95 99 96 90 86 89 91
77 69 78 77 72 66 62 60 52 45 45 45 50 40 62 65 79 78 73 73 62 66 69 67 64 62 66 69 69 68 74 79 80 81 86 93 89 94 87 86 86 89 89
67 70 73 68 65 63 65 58 56 46 49 52 53 62 63 55 64 73 78 79 77 68 73 75 70 72 70 67 70 71 76 78 83 87 92 89 95 89 88 87 85 87 89
67 67 66 65 67 66 63 60 61 48 50 52 57 65 75 74 74 79 80 80 74 70 74 78 83 76 77 74 72 78 79 83 88 94 93 89 89 91 87 84 83 85 88
72 68 69 72 69 64 64 66 64 54 50 55 54 57 63 65 59 69 64 72 65 61 66 68 69 76 73 74 76 82 84 91 96 94 96 88 88 92 84 81 82 85 88
77 79 78 76 70 64 64 67 64 60 56 58 58 60 64 61 53 58 58 57 60 59 61 64 73 76 82 86 90 94 97 101 92 86 84 83 81 81 80 80 82 84 88
74 78 76 72 68 63 63 63 64 63 60 61 67 71 73 74 73 71 72 71 69 71 76 82 84 85 91 95 94 93 93 87 79 84 80 76 78 76 80 82 85 87 89

GFSGL_250_spd_036.txt.gz
Wind_Speed
28 28 27 24 22 20 19 18 19 22 24 26 28 28 27 25 27 27 30 31 33 34 37 40 42 44 45 46 47 49 48 48 41 34 32 30 37 39 46 61 60 61 71
32 32 31 29 28 27 26 27 27 28 31 30 30 29 30 29 31 34 34 35 36 39 41 43 46 47 48 49 50 52 51 47 38 31 35 34 42 41 45 56 59 73 77
36 34 34 33 32 32 33 33 34 34 34 34 33 32 32 32 35 38 39 41 42 44 46 48 50 51 52 54 54 53 53 46 35 31 31 36 43 43 50 57 60 79 78
39 40 39 38 37 39 39 40 42 41 39 37 35 35 35 37 40 42 44 47 48 49 51 53 54 54 57 57 56 54 53 46 33 34 31 42 48 44 47 56 67 77 82
42 43 45 44 44 44 44 43 42 41 40 40 41 41 42 44 46 47 48 50 52 54 56 58 60 58 60 62 58 53 45 42 33 35 35 42 44 44 49 60 77 83 83
44 46 44 45 43 45 45 45 46 45 46 46 48 49 50 52 53 53 53 55 56 57 60 61 61 63 64 61 56 50 38 40 32 37 37 39 37 45 54 68 82 83 87
51 50 49 50 50 50 51 53 53 53 53 53 53 53 54 56 58 58 58 58 61 61 63 65 65 64 58 54 50 44 31 32 35 38 37 35 37 46 59 77 84 89 91
55 55 56 57 56 56 57 58 58 57 57 59 59 59 60 61 63 63 63 62 64 62 65 66 63 57 51 44 39 30 34 33 35 37 42 35 44 51 70 83 86 90 98
61 61 58 57 55 53 54 56 56 56 55 54 53 53 53 55 55 57 57 60 57 55 58 58 54 50 37 22 26 37 43 45 38 40 41 38 46 56 72 83 88 94 98
37 38 36 36 37 37 40 41 42 43 44 43 43 46 50 52 51 47 53 53 47 51 51 47 42 29 21 23 29 41 43 41 44 42 45 47 51 63 80 84 92 94 99
34 35 35 35 35 37 41 42 43 44 37 40 45 42 48 47 45 46 50 51 49 43 40 33 27 25 31 34 34 39 46 46 43 48 54 54 53 68 82 87 92 94 97
37 37 39 40 39 39 37 39 42 44 45 44 46 46 49 52 49 51 51 51 48 32 30 27 21 33 38 38 35 42 44 30 36 49 58 57 63 73 86 91 92 90 96
45 45 44 44 44 43 42 43 43 45 47 47 45 48 44 47 53 57 50 52 41 30 23 17 29 32 38 18 25 30 38 29 39 59 75 70 69 76 78 85 85 90 96
52 51 48 48 47 47 47 49 50 50 52 52 49 39 46 45 62 66 63 56 43 30 16 20 19 23 22 26 24 24 26 37 48 59 71 76 73 81 82 86 91 93 96
59 58 57 56 57 54 52 53 53 57 55 56 61 52 46 54 62 64 63 52 38 31 15 20 19 16 28 34 31 40 43 55 53 53 60 71 77 81 80 83 86 91 97
64 65 65 64 64 61 59 59 57 60 59 61 61 61 55 46 54 51 52 49 41 34 21 28 31 32 37 35 50 51 58 54 55 56 65 67 70 74 76 77 82 87 85
69 69 70 70 69 67 65 61 62 64 64 60 64 67 62 55 43 39 37 39 41 36 30 37 35 51 43 44 48 63 62 62 64 64 63 64 65 68 70 77 80 85 94
77 76 75 73 72 71 69 65 69 71 71 68 67 67 62 47 44 30 36 38 41 37 41 50 47 54 65 57 59 57 56 60 57 58 70 71 71 70 75 80 83 87 94
84 83 79 77 75 74 72 69 69 70 72 69 73 68 61 44 41 26 24 39 42 40 56 57 59 66 68 60 56 60 64 66 66 73 75 72 72 75 77 84 85 89 95
88 88 87 84 82 78 76 73 73 74 75 78 73 68 51 41 38 37 38 43 42 57 64 65 73 73 70 73 67 61 66 70 71 74 75 75 76 78 76 83 89 90 96
84 82 82 82 82 82 83 80 75 75 67 60 50 49 46 42 41 47 51 41 43 53 63 67 69 71 76 73 70 76 79 74 71 73 70 75 79 82 84 82 85 95 100
88 85 83 78 75 72 69 72 64 59 53 54 62 59 53 53 48 54 56 48 50 58 66 68 69 68 68 70 74 72 68 71 71 71 77 75 75 76 75 89 94 101 105
93 90 90 88 81 79 78 73 74 76 72 73 80 78 59 51 56 55 63 54 58 57 59 62 63 65 65 69 71 68 67 65 69 72 77 80 78 79 85 92 99 96 85
94 93 84 83 80 80 81 83 88 90 84 74 71 74 67 57 52 54 65 65 57 62 70 73 74 72 76 78 73 69 64 65 68 71 71 74 79 83 90 98 98 84 77
89 94 96 95 94 90 90 89 86 75 68 71 69 72 64 60 56 51 59 60 60 57 55 52 55 55 62 58 60 65 71 71 71 72 78 83 86 91 94 91 82 74 73
85 89 91 89 87 81 75 83 78 69 68 71 71 68 63 63 61 56 50 57 57 60 65 66 65 65 68 69 71 73 72 77 78 81 83 90 90 93 87 76 73 73 77

GFSGL_250_spd_039.txt.gz
Wind_Speed
33 31 29 27 24 21 20 19 18 18 17 18 21 23 24 25 25 24 27 28 30 32 35 38 40 42 43 44 44 44 45 48 44 34 23 18 21 32 39 40 46 56 63
35 33 30 29 27 25 24 24 23 22 23 24 26 28 28 29 29 28 29 32 34 37 40 42 44 46 47 48 48 48 47 48 41 33 23 24 22 26 37 41 46 56 60
36 34 33 30 30 29 28 28 28 29 30 32 32 34 35 32 31 33 35 37 40 42 44 45 48 49 50 50 52 52 52 46 37 29 26 22 26 26 40 41 47 59 67
39 38 36 32 31 32 32 32 33 35 35 37 38 35 34 34 36 38 40 43 45 47 47 48 49 52 55 54 55 56 55 47 37 21 27 26 30 29 39 39 45 61 70
41 40 39 35 36 36 36 36 38 39 40 40 39 39 39 41 43 45 45 47 48 50 52 54 55 56 57 57 56 54 51 42 34 27 28 28 29 24 37 38 42 56 69
42 42 40 40 40 40 40 40 42 43 42 43 43 45 46 47 47 49 50 52 54 55 56 55 56 57 57 57 54 50 37 25 26 30 26 29 33 32 42 35 37 53 65
43 43 42 42 42 42 41 43 45 46 46 49 51 53 53 54 56 57 57 57 56 56 54 51 51 53 53 46 44 35 16 19 32 33 32 33 35 39 46 43 44 54 64
47 47 47 46 46 46 47 49 50 52 53 55 57 57 55 55 54 52 49 47 47 44 44 44 44 46 47 40 37 15 22 31 34 31 35 39 38 37 42 43 45 52 65
52 52 51 49 50 51 53 53 55 56 54 49 45 43 43 45 42 42 41 41 44 43 37 40 44 43 44 38 18 15 22 28 30 34 25 36 36 42 44 46 49 59 65
59 55 53 50 47 46 46 41 35 31 31 34 33 34 33 34 36 40 38 39 37 38 42 42 44 46 40 22 15 21 22 28 26 34 43 42 39 45 48 52 59 59 71
49 46 40 36 35 33 29 29 29 32 31 34 35 34 35 36 39 40 43 42 37 40 42 41 40 43 42 19 18 18 22 21 24 22 33 42 45 47 55 55 58 63 68
37 37 37 35 32 30 30 31 33 33 36 38 40 40 41 40 40 42 46 46 46 44 44 40 37 47 34 22 16 15 15 23 25 19 26 36 42 48 55 58 56 62 62
38 38 37 37 38 38 39 40 37 38 39 40 42 42 46 48 45 47 48 50 50 52 52 49 46 38 33 19 19 17 17 27 27 35 38 47 43 51 60 53 54 60 62
46 46 45 44 46 47 48 47 46 45 44 44 45 47 47 47 51 52 52 53 56 58 60 55 49 37 26 19 28 38 33 32 36 35 42 56 56 58 62 57 62 67 70
52 51 52 53 53 53 54 54 55 54 52 53 54 54 53 54 55 54 57 55 60 63 58 53 36 27 23 20 48 48 41 33 35 34 54 58 56 67 63 62 68 67 66
57 57 58 59 59 58 58 57 58 59 58 57 57 60 62 60 63 63 62 63 60 57 53 48 36 36 43 39 44 39 39 42 43 47 56 59 59 59 58 63 65 67 67
63 63 63 65 62 60 61 62 61 61 61 62 63 62 63 67 65 69 67 62 64 56 50 42 35 28 35 44 31 38 47 58 62 69 62 70 65 62 61 63 67 68 68
72 72 71 71 70 69 69 69 69 69 68 67 66 67 68 69 68 71 70 68 63 57 48 37 30 30 41 44 38 41 48 63 64 63 70 75 61 61 62 65 67 69 71
77 78 77 77 77 77 76 75 76 77 74 75 70 72 74 72 70 71 68 51 56 53 45 43 39 39 37 40 48 68 77 67 68 65 71 64 62 66 68 65 67 70 71
82 83 82 82 82 81 81 80 80 79 78 75 73 70 71 68 66 69 46 43 48 49 49 46 46 56 54 58 42 62 66 61 63 66 62 61 66 66 65 65 69 69 68
87 88 87 86 86 86 85 82 81 81 79 74 74 73 65 58 54 49 52 58 63 53 56 56 50 56 59 61 53 69 62 62 56 58 59 62 63 63 61 63 63 67 71
90 88 87 85 86 87 86 83 80 78 77 76 76 74 72 66 61 62 65 74 84 81 68 68 59 47 53 53 54 56 56 59 64 62 60 61 63 68 63 62 68 72 73
91 89 90 89 90 88 89 84 81 82 84 83 82 80 74 71 71 76 80 77 78 67 54 61 70 67 64 66 62 57 58 62 63 66 67 67 66 61 65 72 71 74 76
94 93 93 94 96 95 93 92 90 88 87 84 82 80 81 79 84 84 78 70 60 51 48 50 45 60 72 69 67 64 63 65 65 65 65 61 65 67 72 73 76 77 79
98 96 97 95 95 96 95 94 96 96 92 92 91 88 87 92 88 80 66 69 59 53 50 43 59 52 58 61 53 54 54 52 56 56 58 63 67 71 72 74 80 79 80
102 100 97 91 94 93 95 92 87 84 84 90 86 90 83 79 78 80 70 73 66 61 56 51 53 51 53 53 57 60 61 61 65 70 71 73 75 76 79 80 79 77 76

GFSGL_250_spd_042.txt.gz
Wind_Speed
34 32 31 29 25 23 20 19 18 17 14 13 15 17 20 22 26 27 27 26 28 29 32 35 36 39 39 40 39 41 43 45 44 44 29 24 18 21 25 28 31 35 40
33 35 33 32 28 24 22 21 21 19 18 18 19 23 25 27 27 26 26 28 30 34 37 39 40 42 43 45 46 46 45 47 50 42 31 23 20 17 22 29 32 34 41
36 35 33 30 27 27 26 25 23 23 23 25 26 26 30 32 32 30 32 33 36 39 41 43 45 48 50 52 53 51 51 49 46 37 28 23 25 25 29 30 36 41 32
38 37 36 34 31 30 29 27 27 26 27 29 30 31 33 34 34 34 37 40 42 45 47 49 52 55 56 57 57 56 47 40 32 23 22 20 22 27 27 31 31 39 40
40 41 40 37 35 34 32 30 29 29 30 32 33 35 36 38 40 42 45 49 51 53 55 57 58 57 56 55 49 46 37 29 20 14 16 20 23 26 29 31 31 34 44
42 43 39 38 37 36 34 33 35 34 35 36 38 40 42 45 47 47 50 55 57 56 56 54 52 48 47 46 44 40 34 20 9 17 20 29 34 35 34 36 35 40 45
41 38 37 35 35 36 36 37 38 38 39 40 41 44 46 49 52 52 53 50 48 47 45 44 45 44 37 38 38 35 36 5 11 14 19 24 30 31 40 37 31 35 44
43 42 40 38 38 37 37 39 40 41 42 44 46 48 51 52 49 43 39 39 36 39 41 41 41 33 36 35 35 30 12 9 9 15 19 20 21 26 37 38 40 36 47
45 45 43 42 41 41 43 44 45 46 47 46 48 50 47 40 33 30 27 28 36 36 39 44 42 38 33 32 34 29 11 9 4 13 10 19 24 24 25 32 39 45 47
52 50 47 45 47 48 47 48 48 49 47 46 40 36 33 32 33 33 32 31 34 37 40 41 41 40 40 35 33 37 22 11 13 19 24 22 22 25 34 38 41 48 54
55 51 50 52 52 52 52 54 53 44 38 37 36 33 33 34 34 36 36 35 35 36 38 41 43 42 43 41 35 40 25 17 25 23 21 20 23 35 39 37 44 53 55
51 53 53 50 48 44 41 37 35 34 34 34 31 31 33 34 36 40 45 44 44 46 43 46 48 45 44 39 39 41 29 18 22 25 21 29 33 34 36 42 47 58 61
34 34 34 35 35 34 35 34 34 35 36 34 33 34 36 37 41 46 48 50 51 50 52 54 57 47 41 37 38 39 31 27 21 22 25 29 31 33 46 46 52 61 65
41 39 37 37 38 38 39 39 38 39 39 39 41 42 42 45 48 49 49 51 52 54 53 53 61 54 45 39 37 39 35 32 31 35 41 34 36 42 47 54 57 60 62
44 42 42 43 44 45 44 43 43 44 45 47 47 49 50 51 52 51 53 54 56 60 60 57 59 60 57 47 36 40 47 49 41 44 40 33 36 39 44 53 59 68 66
47 47 47 48 49 49 48 47 48 49 51 51 51 52 53 54 56 56 57 59 59 61 67 67 61 65 62 52 45 40 49 50 33 21 25 32 46 49 54 63 72 74 68
52 52 52 54 54 54 53 55 53 53 53 53 55 57 59 60 61 61 64 66 66 64 61 60 54 39 40 46 48 39 43 38 44 34 31 37 53 48 63 76 80 72 66
58 59 58 59 56 57 61 60 59 59 61 63 64 66 68 67 67 67 69 70 68 65 61 41 36 40 40 39 43 50 45 47 52 48 37 52 63 44 71 78 65 66 60
64 64 65 65 64 64 64 66 66 66 67 68 69 70 68 67 69 70 71 68 66 65 60 49 47 53 57 58 58 51 49 46 52 48 37 52 68 74 66 70 65 60 62
72 70 68 70 71 69 67 69 71 70 69 71 72 71 72 74 74 73 71 72 70 66 61 54 54 56 63 73 72 51 61 56 49 53 35 64 78 67 57 63 66 60 59
78 78 75 74 73 73 73 73 74 74 75 78 77 78 77 76 76 75 73 74 67 66 64 62 61 65 69 78 78 62 60 64 60 57 60 67 67 64 70 67 65 66 64
85 84 81 78 78 79 80 80 81 82 83 85 83 84 82 80 79 78 75 71 71 71 69 67 68 74 75 79 72 61 51 65 66 68 71 76 85 89 76 67 65 63 65
83 84 84 84 85 85 86 88 87 86 87 86 86 84 80 80 80 80 79 80 76 76 72 72 75 71 67 59 54 55 47 53 64 66 66 70 73 74 67 65 68 64 60
89 90 90 92 90 90 92 91 90 88 88 87 85 85 85 84 84 82 83 80 74 74 74 77 71 63 50 44 52 53 51 42 45 52 57 58 62 60 59 55 54 56 60
96 95 97 97 95 96 97 98 97 95 92 90 89 87 87 85 83 80 82 83 83 79 75 82 74 68 56 60 64 50 57 61 60 59 55 52 55 57 56 56 58 60 63
97 97 97 96 99 103 105 103 103 102 100 95 91 94 93 93 90 87 85 87 81 78 83 76 83 75 72 69 70 53 47 50 65 69 70 60 61 64 66 65 72 72 72

GFSGL_250_spd_045.txt.gz
Wind_Speed
37 33 30 28 25 22 18 15 14 13 13 11 12 11 11 14 17 21 24 23 24 25 28 32 36 40 44 46 48 50 50 49 47 38 32 23 19 17 20 25 25 24 24
39 36 35 30 26 23 20 18 18 18 18 16 16 18 18 20 22 25 27 29 30 33 36 39 43 45 48 52 53 51 47 39 35 34 30 12 14 11 12 19 25 27 26
40 39 36 32 28 27 26 24 23 22 21 21 22 23 24 27 28 30 33 35 36 39 43 46 48 51 53 52 49 44 41 38 30 24 24 13 5 6 11 16 23 26 28
40 39 36 33 32 33 31 28 26 26 25 26 26 27 29 31 32 34 36 37 41 44 48 51 53 49 47 45 43 43 39 31 23 20 12 10 14 14 15 18 21 24 18
40 39 37 35 34 33 31 29 28 27 27 28 29 30 31 33 35 36 39 42 45 48 52 46 38 39 41 42 41 34 32 28 22 10 9 9 12 17 21 19 23 18 20
41 42 38 36 35 35 34 34 33 31 33 32 32 32 33 34 36 39 43 46 49 45 36 38 34 35 36 39 35 33 31 27 15 10 13 16 16 14 17 18 16 24 24
42 42 40 39 40 39 37 37 38 36 36 34 33 34 34 36 40 43 47 47 35 30 28 32 32 35 35 33 30 25 28 28 14 15 12 13 16 17 16 21 25 24 29
42 41 40 37 35 34 34 37 38 38 36 34 34 36 38 41 44 46 42 28 28 26 28 33 35 36 39 42 38 36 32 28 16 14 16 12 15 20 22 27 28 31 37
44 42 38 36 35 34 36 37 37 39 36 35 38 41 43 45 46 39 28 27 28 26 31 30 36 36 35 39 40 41 42 32 20 19 23 24 23 24 23 16 26 33 37
46 44 40 38 37 37 39 37 38 38 38 41 42 45 47 47 37 29 25 24 24 29 33 34 35 39 41 41 39 37 40 39 29 29 29 25 31 33 29 27 32 36 40
49 44 41 40 42 43 41 41 42 42 43 45 46 44 40 34 33 27 25 27 30 32 36 39 40 43 43 45 45 42 37 41 38 34 31 28 30 29 30 35 41 45 45
49 48 47 48 47 45 45 46 47 45 46 39 38 36 35 31 30 30 30 34 36 39 43 43 41 45 48 53 52 49 43 42 41 39 36 28 34 26 32 42 45 49 52
55 54 54 54 52 51 51 50 46 38 34 34 36 37 35 34 33 34 36 39 41 43 46 46 47 49 51 51 56 54 46 43 42 42 36 39 36 37 41 47 43 46 47
52 54 56 55 53 48 41 38 35 35 37 37 39 38 36 37 38 39 42 44 46 47 46 46 49 52 55 54 56 31 28 35 35 41 39 39 44 36 42 37 37 45 54
40 40 41 42 41 39 37 37 39 39 41 41 39 38 38 40 41 44 46 48 49 49 50 52 54 56 54 53 40 28 34 36 39 40 37 45 46 40 42 32 34 45 48
47 47 47 46 45 43 41 41 44 45 45 43 43 42 43 44 44 46 48 49 52 55 56 57 57 57 54 52 51 45 46 42 41 47 49 41 46 46 37 36 34 47 64
54 53 53 52 47 47 46 45 47 48 49 46 46 47 47 48 51 51 51 51 51 52 55 58 60 59 55 55 54 56 54 54 54 50 55 46 41 43 40 45 71 59 83
59 58 55 52 50 52 50 50 49 49 49 50 51 52 52 53 54 54 53 53 54 56 59 59 61 60 56 57 58 55 54 57 60 65 64 49 43 53 54 51 56 60 59
63 61 60 57 57 57 56 51 51 51 51 52 53 54 53 54 56 57 57 56 60 63 65 64 64 60 60 61 60 55 55 52 58 65 63 46 47 54 58 60 46 67 66
66 66 66 65 63 60 60 58 58 56 57 58 61 59 58 60 63 64 64 64 65 67 69 71 70 66 61 64 65 57 56 56 64 65 62 51 45 55 56 49 51 55 61
72 72 72 70 69 67 64 64 66 66 65 66 67 66 65 67 70 70 70 70 70 71 72 71 71 66 66 67 63 57 60 60 58 53 58 46 45 49 60 56 64 71 74
76 75 75 73 73 74 74 75 76 76 75 73 74 74 73 74 75 75 74 74 74 75 74 73 71 74 72 66 60 65 60 60 51 53 55 48 38 48 56 61 65 77 82
83 82 79 78 78 79 80 82 82 81 81 81 81 80 79 78 78 79 81 82 81 78 76 74 78 77 76 71 69 60 64 62 53 70 60 47 39 47 52 54 60 66 71
86 86 88 86 85 87 87 87 88 88 87 85 84 84 85 87 87 88 89 85 81 80 81 83 79 75 73 68 63 58 64 68 73 69 54 46 46 44 53 54 55 55 57
89 90 89 88 87 87 88 87 89 89 90 90 91 93 94 94 93 90 86 91 88 86 85 80 76 72 64 62 56 65 76 74 72 66 60 48 48 50 50 63 69 69 70
96 94 93 92 91 91 92 93 94 94 95 96 97 98 99 98 94 92 92 87 75 72 72 75 72 71 70 63 64 73 79 82 70 73 59 56 50 53 48 51 53 56 62

GFSGL_250_spd_048.txt.gz
Wind_Speed
41 36 32 31 30 28 26 24 21 17 14 13 14 14 15 15 16 16 18 22 27 29 30 33 38 42 45 47 49 46 42 40 37 35 32 28 22 17 18 17 21 21 18
44 39 36 35 31 29 27 23 22 19 16 16 18 18 21 21 21 22 24 27 31 31 33 37 42 46 50 48 38 36 36 37 35 31 30 24 14 10 4 5 8 8 10
49 44 40 37 34 31 29 26 24 22 20 21 21 21 22 23 24 26 27 29 32 33 36 42 46 47 37 32 35 36 31 29 29 29 31 23 12 6 6 5 9 14 17
51 48 43 39 36 34 34 31 29 26 26 25 25 25 24 25 27 27 29 31 32 37 41 45 41 32 31 34 31 31 29 31 27 30 27 14 12 13 10 12 15 17 24
50 49 44 41 40 38 36 33 32 31 31 29 28 27 26 28 28 29 31 32 35 40 44 35 25 27 29 28 32 29 29 28 25 24 20 16 17 19 19 18 22 22 22
50 47 44 43 42 40 38 37 37 36 34 32 30 29 29 30 30 31 32 34 38 42 31 24 25 27 23 24 29 33 35 33 32 30 24 25 22 21 23 22 25 22 24
46 45 46 44 42 39 38 38 35 35 35 35 34 32 32 32 33 32 34 37 39 36 26 25 22 22 25 29 32 32 34 37 30 31 33 20 28 21 26 27 28 25 26
43 42 42 42 40 39 39 38 37 37 37 37 36 35 33 33 33 34 38 40 39 26 25 25 24 26 29 30 30 34 38 37 36 33 31 29 26 27 28 30 30 30 37
44 45 46 44 42 41 40 41 39 38 37 36 35 34 33 32 34 38 41 40 28 26 26 24 27 28 29 31 36 40 43 44 41 36 36 32 26 34 34 33 34 38 41
43 45 43 40 40 40 37 37 37 39 37 36 35 34 34 35 37 40 41 32 28 28 29 30 32 32 34 35 39 43 49 50 48 40 37 38 37 36 38 30 26 30 33
48 45 42 42 41 40 40 41 41 41 40 38 35 38 39 38 40 41 33 29 29 31 31 34 35 37 38 40 44 47 50 47 45 31 28 35 34 32 35 30 28 26 30
51 46 44 43 40 40 41 39 40 41 41 40 41 42 41 40 41 36 30 31 31 33 35 36 37 38 39 42 47 50 50 46 36 26 25 30 32 34 34 30 34 32 50
53 49 49 50 50 50 47 46 46 46 46 45 44 43 44 43 40 34 33 34 34 35 36 38 40 41 42 47 48 48 48 45 39 37 43 41 35 36 34 38 44 45 43
60 57 55 54 54 53 52 51 49 50 50 50 50 47 47 42 41 38 37 38 36 35 36 39 41 41 44 48 47 48 48 45 37 38 45 49 50 41 31 34 44 47 46
63 63 62 62 61 59 56 55 55 54 54 53 48 47 45 43 41 40 40 38 36 38 39 42 43 45 46 47 47 48 50 51 48 46 51 49 50 50 47 45 47 50 53
49 52 55 58 62 60 58 56 53 51 49 48 47 46 45 44 42 42 42 42 41 42 44 46 47 45 47 50 51 51 54 54 52 51 54 56 56 57 55 50 48 44 51
45 42 42 45 48 48 47 45 43 44 45 45 45 46 47 45 43 43 45 46 46 47 49 49 48 48 50 54 55 56 56 54 51 50 55 58 59 58 53 59 55 47 50
50 48 49 49 47 46 47 47 47 48 48 47 48 49 49 50 50 50 50 50 52 52 52 51 52 52 55 57 60 63 61 56 53 55 56 55 58 58 59 59 54 49 49
56 56 56 55 54 54 53 53 53 52 52 52 51 51 53 53 53 52 52 52 52 54 54 55 56 58 60 63 64 65 64 62 57 60 56 55 54 48 54 57 53 45 45
64 61 60 61 60 59 58 57 57 56 56 56 56 57 58 57 57 56 53 53 56 57 59 62 64 66 68 69 68 69 69 69 65 65 59 62 49 48 58 59 50 44 47
66 65 64 63 64 62 63 63 62 62 63 62 63 63 62 62 61 60 59 60 63 66 69 69 72 73 74 72 70 72 72 72 70 65 59 48 42 55 51 46 43 44 46
74 71 68 67 66 67 66 66 68 70 71 69 69 68 69 69 69 68 68 70 73 74 75 77 78 77 75 75 75 78 78 75 66 61 58 47 50 60 50 42 36 35 39
82 79 74 73 72 72 71 71 73 75 76 77 76 77 77 78 78 77 78 79 79 80 81 82 81 81 80 79 81 78 69 61 59 59 52 44 53 61 67 43 36 36 37
87 84 81 80 79 78 78 78 77 77 78 78 79 80 80 81 82 83 83 83 84 84 88 87 84 83 85 84 80 65 61 59 59 54 51 49 47 57 57 57 63 52 40
91 89 88 85 87 86 85 84 85 83 82 83 83 83 84 85 86 86 86 87 90 90 89 88 87 87 84 78 66 62 68 63 62 53 59 57 52 56 61 62 61 65 57
95 94 93 92 92 91 90 89 89 90 90 89 89 91 91 91 92 93 94 94 93 94 91 91 89 79 72 70 67 65 69 69 61 57 51 59 62 65 67 58 75 64 61

GFSGL_250_spd_051.txt.gz
Wind_Speed
41 40 37 34 31 30 29 27 25 22 19 17 18 18 18 17 17 17 16 20 22 27 30 31 36 41 45 37 33 33 32 31 31 29 32 35 28 19 14 10 9 6 7
38 40 38 35 34 33 32 29 27 25 22 21 19 19 20 18 17 20 21 22 24 28 30 33 39 45 34 30 33 32 32 29 28 26 32 37 28 14 9 7 0 3 3
40 41 42 40 37 35 34 32 32 28 26 24 23 21 21 20 19 19 22 23 26 28 29 34 40 31 26 28 28 31 35 33 28 30 31 33 29 15 9 7 7 8 9
44 44 46 43 40 36 36 36 34 31 29 27 24 22 23 23 22 22 23 25 27 28 29 34 35 24 25 25 25 31 30 33 32 27 30 28 30 25 14 12 14 17 15
45 46 47 47 43 40 39 38 36 34 31 30 28 26 25 26 24 23 25 27 27 27 31 35 26 25 24 22 25 25 28 30 33 34 31 29 29 24 22 20 19 21 21
47 48 48 48 47 43 41 40 38 36 33 31 31 31 30 28 27 27 28 29 28 29 32 34 22 22 21 24 23 25 28 33 36 36 36 36 31 25 27 27 23 18 24
46 48 49 48 49 46 43 42 40 38 36 35 36 37 36 34 31 31 30 29 28 30 35 32 23 21 21 21 21 24 27 29 34 32 40 40 35 33 26 27 30 28 27
41 49 49 50 48 46 46 43 42 41 39 38 36 35 33 33 32 32 32 29 30 32 36 29 24 20 21 24 25 26 26 30 35 33 39 38 34 34 35 28 32 33 36
38 48 51 50 49 46 46 44 42 40 39 38 37 36 34 34 32 33 32 31 31 33 35 28 28 27 26 27 26 28 32 34 34 35 32 26 31 30 27 32 29 33 41
41 42 44 45 43 44 43 42 40 42 42 42 41 38 34 33 33 34 32 34 34 35 33 28 30 31 31 28 27 30 36 34 36 37 33 31 30 37 34 33 26 30 34
47 43 44 47 48 47 45 43 43 44 46 45 43 38 36 36 36 34 35 37 37 39 34 30 31 33 32 32 30 32 34 34 35 37 38 36 40 44 41 45 41 38 31
51 47 44 44 44 44 42 42 47 47 46 43 42 39 38 37 36 37 38 41 39 41 36 33 34 36 36 35 32 34 35 37 39 38 40 39 41 42 44 47 47 44 39
57 54 52 46 44 41 41 43 45 44 44 44 43 41 40 39 41 41 43 44 45 44 38 37 37 39 38 36 35 37 36 38 40 42 45 45 43 44 41 42 43 46 48
62 59 56 53 51 50 47 49 47 44 45 46 46 47 45 45 47 47 48 49 49 44 40 39 41 40 39 38 38 40 39 40 42 43 46 49 49 45 44 49 48 42 43
65 64 62 57 56 54 54 53 52 52 52 52 53 52 50 50 52 52 52 52 49 43 40 43 43 41 41 41 41 43 43 43 46 48 50 53 53 52 54 55 53 54 52
63 62 61 61 61 59 57 57 56 57 57 57 57 57 56 56 56 55 54 50 47 43 44 46 45 46 46 46 45 47 46 48 51 54 56 58 58 58 54 57 58 59 62
57 60 61 62 61 60 60 60 60 60 60 60 60 59 60 58 56 52 49 48 48 48 46 47 48 48 50 50 49 49 50 53 55 58 60 64 62 63 59 57 63 60 60
45 45 46 49 51 52 53 54 55 56 54 54 56 54 52 49 47 47 49 51 53 51 50 51 52 52 52 51 52 52 54 56 58 60 63 66 67 69 66 63 62 52 50
52 49 47 45 43 42 43 44 45 46 46 45 46 47 47 48 51 52 53 54 55 55 54 54 54 55 54 54 54 57 59 60 63 65 66 66 70 72 71 64 56 50 49
58 57 53 51 50 50 49 50 50 52 53 54 54 54 54 55 55 57 58 58 57 57 57 57 59 59 57 59 62 64 66 67 69 70 69 70 73 70 60 58 57 47 36
65 63 61 59 59 59 58 57 56 55 54 55 56 57 58 58 58 58 59 60 61 60 61 62 63 64 64 66 69 73 74 76 74 74 74 73 72 67 57 62 53 33 37
75 72 70 69 68 66 66 64 63 63 62 63 63 63 64 64 64 63 64 64 64 64 64 65 66 68 70 74 78 81 81 80 76 75 77 78 75 59 56 58 49 46 50
81 79 77 76 75 74 72 71 71 70 69 69 68 69 69 69 69 70 71 70 71 72 72 73 76 77 80 82 83 83 81 79 78 78 81 76 65 61 51 48 52 54 53
88 85 83 82 81 80 79 77 76 75 75 74 73 73 73 74 74 74 76 77 78 78 79 80 81 80 81 83 85 82 81 81 83 87 83 78 63 62 59 56 58 52 46
95 94 92 90 88 87 85 84 83 83 83 81 80 79 79 79 78 79 79 80 81 82 83 83 83 85 85 85 85 84 84 88 90 83 78 70 63 59 60 61 60 54 52
99 99 97 95 96 94 91 88 88 88 89 86 85 85 86 84 85 85 86 86 85 85 87 88 89 89 90 90 89 91 91 86 81 82 76 64 59 60 57 55 54 55 55

GFSGL_250_spd_054.txt.gz
Wind_Speed
32 32 33 33 31 29 30 30 27 24 23 22 19 17 15 16 15 14 15 17 19 23 25 27 30 35 35 28 31 27 28 31 31 29 33 32 31 24 13 11 8 7 4
34 33 36 36 33 32 33 33 30 28 27 26 22 19 16 16 16 14 16 18 21 23 25 27 31 35 32 27 23 26 28 29 30 33 34 34 30 27 15 12 4 5 5
31 36 35 36 36 35 35 35 33 32 31 28 25 21 18 15 16 16 16 19 20 23 26 26 30 35 29 25 23 23 25 26 30 31 32 33 32 28 18 12 12 8 5
33 36 38 38 40 38 37 36 35 35 33 31 27 23 20 17 16 17 19 20 21 23 25 26 30 34 26 23 23 22 24 30 33 34 29 32 34 29 24 19 14 17 16
32 35 41 43 41 42 43 41 38 36 36 34 30 26 24 22 21 20 21 22 25 24 25 25 29 32 23 20 19 20 23 27 31 34 33 37 33 26 22 21 22 21 19
33 34 37 44 46 45 45 44 41 39 39 37 34 30 27 27 25 23 25 26 28 26 25 25 28 30 21 17 17 20 21 22 29 29 31 34 30 30 25 22 26 26 24
38 33 37 42 48 49 45 46 45 42 41 38 37 34 31 29 28 29 32 30 28 26 25 24 28 28 22 19 20 23 22 22 27 27 32 29 27 30 28 32 32 26 27
41 38 39 41 41 47 49 48 47 45 41 39 38 35 34 33 32 30 30 29 28 26 26 26 27 28 23 21 21 25 21 23 26 22 26 28 27 25 24 29 28 25 29
45 43 43 41 39 43 51 49 46 44 42 39 38 39 38 35 34 32 32 30 27 27 28 28 29 29 26 25 24 27 24 24 24 23 23 25 28 27 25 30 34 29 28
50 48 46 42 38 42 46 50 45 45 43 43 42 40 40 37 37 34 34 31 29 30 31 30 31 32 30 27 26 26 25 24 26 24 25 28 30 32 29 31 34 39 40
54 52 48 44 41 39 44 48 50 47 46 45 44 42 43 42 39 36 36 33 31 32 34 34 33 34 33 32 29 28 26 25 28 30 30 31 36 39 42 45 45 42 43
55 54 49 45 44 42 43 48 50 52 51 49 48 47 47 42 39 38 36 36 32 36 37 37 36 37 38 36 33 31 31 30 31 31 32 32 36 39 41 45 49 51 55
48 52 52 50 48 46 42 44 47 47 49 49 49 50 49 42 40 39 39 37 36 40 41 41 40 41 40 41 37 33 33 33 33 34 35 35 38 42 43 47 50 49 50
50 52 56 57 52 49 47 42 44 49 51 53 53 52 45 43 42 40 39 40 41 43 45 45 46 44 42 42 40 38 36 36 37 37 39 39 42 46 49 51 50 52 54
52 55 56 58 58 56 53 52 50 50 51 51 50 47 46 45 44 42 43 45 46 47 47 49 48 47 47 46 42 43 41 41 41 42 43 43 44 48 52 55 58 58 59
52 55 58 60 63 63 60 58 56 56 56 55 53 52 51 50 49 48 49 50 51 51 50 52 50 50 52 46 45 46 44 44 45 45 47 46 47 50 53 57 61 61 60
49 54 58 60 63 65 64 64 64 62 62 61 58 57 56 55 54 53 53 54 53 53 54 55 55 53 50 49 48 47 47 47 47 48 51 51 51 55 59 61 62 62 62
51 52 55 57 58 60 62 62 62 62 63 64 62 61 60 58 58 59 58 57 56 57 55 53 51 51 51 50 51 51 50 50 50 53 56 57 58 60 64 68 65 64 64
53 52 51 53 58 60 61 61 62 62 62 63 64 63 62 63 64 62 57 53 51 49 49 50 49 49 49 52 53 53 53 53 56 58 61 63 65 65 69 73 68 67 64
56 56 54 52 52 54 54 55 55 56 56 56 57 57 55 54 51 49 48 48 49 49 49 50 52 53 55 55 56 56 57 58 59 61 63 66 70 71 75 73 73 69 67
62 61 59 57 55 53 52 50 50 50 49 47 46 48 50 51 51 51 52 54 55 54 55 55 57 56 56 57 58 60 60 61 63 65 69 74 75 77 74 72 75 71 70
73 70 67 65 63 62 61 59 57 56 54 54 54 55 56 57 57 57 57 57 58 58 59 60 60 60 60 61 62 63 65 67 69 71 75 77 78 75 75 74 79 76 71
83 80 75 72 71 70 69 69 68 67 66 66 65 64 63 62 61 62 63 63 63 64 64 64 65 67 66 67 69 70 72 74 75 76 77 77 78 78 77 79 80 75 72
90 87 80 75 75 76 76 76 75 74 73 72 71 71 70 70 70 70 70 70 71 72 71 71 70 71 73 74 74 75 76 76 78 80 78 80 79 81 79 78 79 77 74
97 92 87 82 84 86 86 85 85 84 83 83 82 82 80 79 79 77 77 76 76 76 76 76 76 76 78 80 79 81 82 83 82 82 83 84 84 82 79 80 79 78 76
100 98 92 88 89 90 93 94 93 92 92 91 90 89 87 86 84 81 81 82 81 82 83 83 82 84 84 84 86 85 86 87 86 87 86 86 85 83 82 81 82 80 78

GFSGL_250_spd_057.txt.gz
Wind_Speed
24 28 29 27 27 29 27 25 23 20 18 19 19 16 14 13 12 12 12 12 15 19 21 23 24 27 29 23 21 23 24 26 29 30 31 32 29 23 15 13 9 10 12
26 27 30 31 31 31 30 29 28 25 23 23 22 20 18 13 13 12 13 14 16 17 20 23 24 26 28 23 20 20 23 26 28 30 31 35 26 20 17 13 10 10 9
23 24 30 34 35 34 33 32 29 27 26 26 25 23 20 17 14 13 14 18 17 18 21 23 24 24 27 22 19 19 22 26 28 30 31 34 26 22 13 15 13 9 10
26 23 28 36 37 36 35 33 31 29 28 29 28 27 23 20 18 16 17 18 20 21 22 24 23 23 25 21 17 17 20 24 26 28 29 28 25 29 25 23 21 12 10
29 28 28 31 35 37 38 37 34 32 30 30 31 29 27 25 23 22 22 22 22 22 24 26 24 23 23 22 16 16 20 23 25 29 26 27 22 24 20 26 21 18 21
33 32 27 28 31 40 41 40 38 35 33 32 31 32 31 29 26 27 27 26 26 26 28 26 26 23 23 23 18 18 21 24 24 26 25 23 26 23 20 24 28 22 22
36 34 30 30 30 32 36 41 42 40 38 35 34 33 32 34 33 32 31 29 28 28 26 26 26 23 22 23 20 16 18 24 23 24 22 22 21 25 25 25 28 31 29
38 37 35 34 33 31 34 37 42 43 42 40 38 37 36 35 37 36 34 32 30 30 28 27 26 25 24 25 24 18 18 21 22 23 22 20 22 21 24 24 25 27 31
40 41 41 39 36 36 34 35 36 42 46 45 41 40 38 38 37 37 35 34 33 31 30 28 27 24 26 26 26 25 20 21 24 23 24 23 23 24 21 25 25 26 28
44 45 45 43 41 40 38 34 34 38 42 47 46 44 42 40 39 38 38 37 35 34 33 29 29 26 27 27 28 28 28 26 27 27 27 27 26 24 26 27 28 32 33
45 46 45 45 45 43 39 36 37 38 42 48 49 46 45 44 43 42 41 40 38 36 35 32 31 29 30 29 30 31 32 33 31 29 30 30 30 29 29 29 33 36 38
46 44 44 43 45 46 44 41 41 40 42 47 52 50 49 47 46 43 41 42 40 39 38 35 36 34 35 34 33 32 34 36 35 32 32 32 33 33 33 35 34 37 44
45 43 44 44 47 49 48 45 43 42 42 45 49 53 53 50 48 48 48 45 43 42 41 38 39 39 39 39 38 37 38 39 39 38 34 36 37 38 38 37 38 39 44
47 45 44 45 46 48 50 49 47 46 43 42 48 52 53 54 52 48 44 43 45 43 42 42 42 42 42 44 43 43 43 43 43 41 38 38 40 41 42 40 41 43 47
47 44 45 46 48 48 50 53 53 50 47 47 44 46 47 50 50 47 45 44 45 46 46 47 45 45 47 47 48 46 47 47 45 41 41 41 42 44 45 43 45 47 51
47 43 43 45 49 52 53 55 59 54 52 54 50 51 52 52 49 46 46 47 45 45 47 49 50 50 50 49 48 49 50 49 45 43 43 44 45 44 47 45 49 52 54
48 41 40 43 45 39 54 54 56 58 61 60 58 55 54 52 49 49 50 49 49 51 52 53 53 51 51 51 52 53 51 48 45 45 46 47 46 47 48 50 53 55 54
49 38 47 33 55 65 58 54 55 59 64 65 63 60 61 61 58 58 56 54 54 53 53 54 53 54 56 54 52 50 48 46 46 46 47 47 47 50 51 54 56 56 58
60 59 65 70 70 69 60 57 58 58 61 63 64 65 64 63 62 60 58 57 57 55 55 56 57 55 53 49 46 47 48 49 49 50 50 50 51 53 54 57 59 61 62
64 67 69 71 70 66 64 62 61 59 59 61 62 63 64 64 64 62 60 59 58 57 57 57 55 50 46 46 48 49 50 51 51 52 52 53 54 55 58 60 62 65 65
64 64 65 64 65 64 64 63 61 60 60 60 60 61 63 63 63 61 60 59 58 57 54 49 46 47 50 51 52 53 53 54 55 56 57 58 59 61 63 65 67 67 67
70 66 66 66 67 66 66 65 62 59 58 57 59 62 62 62 62 60 58 57 53 51 51 51 52 54 54 54 55 56 58 59 60 61 62 64 66 67 68 68 70 69 72
78 74 74 75 73 72 69 67 64 61 61 60 59 60 59 58 57 57 57 57 56 54 54 54 54 56 58 60 62 63 64 66 67 68 68 70 71 71 73 74 75 75 76
85 85 83 83 81 78 75 72 70 69 67 67 65 63 63 62 62 63 62 62 61 62 62 62 62 64 64 65 67 68 70 71 73 73 74 76 76 77 78 79 79 78 78
93 92 91 90 88 86 84 80 78 76 74 74 72 72 71 72 72 71 70 71 71 70 70 70 71 72 73 74 75 75 77 77 77 77 78 79 79 81 82 82 83 84 82
100 99 96 94 93 92 90 89 88 86 81 79 78 78 79 81 81 79 79 78 77 77 79 79 81 81 82 83 83 82 82 83 83 83 82 84 86 87 86 86 86 86 85

GFSGL_250_spd_060.txt.gz
Wind_Speed
21 20 22 23 22 23 24 23 23 22 20 17 15 14 13 10 8 10 12 12 14 16 18 21 22 23 26 26 23 21 25 29 31 34 33 32 28 19 19 12 14 10 11
25 22 22 23 25 26 27 26 26 24 23 20 16 15 14 13 11 10 12 12 15 16 18 20 22 23 24 26 23 19 23 28 29 32 29 27 29 28 27 24 22 18 13
25 24 23 24 29 32 30 30 28 28 27 24 21 19 18 17 16 13 14 13 16 17 20 20 22 23 23 25 24 21 20 24 28 29 29 25 23 22 21 20 17 18 13
33 27 26 26 29 31 33 32 32 29 29 27 24 24 22 21 19 17 18 16 17 19 21 22 23 22 22 22 23 20 20 22 25 24 25 25 24 20 22 21 16 15 16
35 33 32 27 26 26 30 34 35 32 31 29 28 27 25 26 25 22 21 22 21 23 24 24 24 23 22 21 22 20 20 20 21 22 19 19 18 17 18 20 21 20 19
35 37 35 28 24 26 30 35 37 36 35 32 30 28 27 27 27 27 27 26 25 25 26 25 25 25 22 20 21 20 19 19 20 20 20 16 15 15 17 19 21 23 24
35 33 35 34 30 29 30 36 39 39 38 37 34 32 29 28 28 30 32 31 31 29 29 27 26 25 25 21 19 20 18 19 21 22 19 20 19 18 17 18 19 21 21
36 33 32 34 35 33 30 32 34 36 40 38 38 37 34 32 30 31 31 33 34 33 32 31 28 27 26 24 20 20 20 20 22 22 24 23 22 22 23 20 21 23 23
36 36 37 35 35 35 36 34 30 30 32 35 38 40 39 37 35 33 32 34 34 35 33 33 31 30 29 28 25 23 22 24 24 24 26 27 28 25 26 26 23 23 26
38 37 36 35 36 37 39 38 35 32 29 31 36 39 42 42 41 38 36 36 36 35 35 35 33 33 32 31 30 28 25 27 28 28 28 29 33 32 27 28 30 29 28
41 39 37 37 38 37 36 37 37 37 35 34 34 37 39 43 44 42 41 40 39 38 38 37 36 36 35 35 34 33 30 29 31 32 32 32 33 36 34 33 32 33 34
44 43 40 39 40 38 37 38 40 40 40 39 37 36 37 42 43 46 44 44 43 44 42 41 39 39 37 38 38 38 35 34 35 36 36 36 37 38 38 37 35 37 38
47 45 42 39 40 42 41 39 41 43 43 44 42 39 36 38 43 46 48 47 48 49 47 44 43 43 41 40 40 39 38 39 39 40 40 41 41 42 41 40 40 40 40
49 47 44 43 42 43 43 42 44 43 45 47 47 44 40 37 39 45 49 52 54 54 50 47 47 45 44 42 42 43 43 42 42 43 43 44 45 45 43 41 42 42 43
54 49 46 46 45 43 42 43 45 46 46 48 50 51 48 42 40 41 47 55 56 55 52 49 47 48 45 45 46 44 44 44 45 44 44 45 47 46 43 42 45 44 44
55 52 50 48 46 45 45 46 46 47 48 49 51 54 52 47 44 44 44 48 50 48 47 48 48 49 48 48 47 46 46 46 46 46 47 48 47 44 42 43 43 43 45
59 57 54 50 49 47 45 44 46 49 51 53 55 58 56 53 51 52 46 49 47 44 45 47 49 51 50 50 50 50 47 46 47 48 48 48 45 42 43 45 45 46 48
62 61 57 56 54 49 46 48 49 45 31 68 57 59 59 59 58 52 52 53 52 49 46 49 50 53 54 54 52 49 48 49 50 51 51 45 42 45 47 47 47 48 49
64 51 56 59 55 48 47 48 46 44 45 47 55 49 55 54 55 60 60 60 60 58 55 57 57 56 56 55 53 51 52 52 54 53 46 43 45 48 48 48 48 51 52
66 68 63 56 41 46 50 61 55 49 48 47 56 49 53 54 55 55 57 60 62 63 63 62 62 62 62 60 57 56 56 55 52 48 46 48 50 51 51 51 52 53 56
76 74 75 70 68 73 67 75 72 63 68 64 71 72 65 56 55 55 57 60 61 63 63 63 63 64 63 63 62 61 58 54 50 49 52 53 53 53 54 55 57 58 60
77 79 79 78 79 80 80 78 83 77 77 77 77 76 72 67 63 59 60 60 61 63 64 64 65 64 64 63 60 56 54 52 54 55 55 56 57 57 59 61 62 63 66
92 89 88 88 87 88 87 81 85 88 85 80 79 80 79 73 67 64 63 62 62 63 63 64 64 65 63 59 57 57 57 58 58 58 58 60 62 63 64 67 68 69 70
96 91 91 90 88 88 90 92 85 88 89 88 88 84 79 75 73 70 68 65 62 61 61 62 62 61 59 60 61 61 62 62 63 63 64 67 69 70 72 74 75 75 75
103 97 93 89 88 87 87 88 89 92 92 92 90 86 84 82 77 73 70 70 69 65 65 64 63 63 64 65 67 68 69 70 70 71 73 74 76 77 79 80 81 81 80
103 100 99 96 94 95 95 94 92 93 93 95 94 90 88 85 82 80 78 75 74 73 71 70 70 70 71 72 74 77 78 79 80 80 80 82 84 85 85 86 87 86 85

GFSGL_250_spd_063.txt.gz
Wind_Speed
26 24 20 22 23 23 24 25 24 23 20 16 12 12 12 12 11 11 9 9 8 12 14 18 22 24 23 25 27 27 26 28 28 30 24 22 25 22 19 18 15 13 13
29 30 28 23 22 23 24 23 23 24 22 19 15 14 15 15 15 14 11 9 9 11 13 16 21 24 22 22 25 25 25 26 28 26 27 25 19 23 21 19 19 19 17
30 30 29 27 24 25 26 26 27 25 24 21 19 18 19 19 18 17 16 12 12 11 13 16 20 22 22 20 21 24 23 23 24 25 23 24 23 23 20 19 18 14 12
30 31 31 29 29 28 24 26 28 27 26 25 23 24 25 24 21 21 20 17 16 14 15 18 21 22 21 20 19 20 22 21 21 23 20 17 18 19 18 18 16 16 14
31 32 32 30 29 28 27 26 28 29 28 27 27 27 27 27 26 25 24 22 20 18 18 20 21 22 22 20 20 18 19 20 20 20 21 18 14 14 13 13 15 15 19
35 37 39 35 31 31 32 30 30 31 32 32 31 29 30 30 30 29 27 27 26 24 22 22 23 25 24 21 20 20 18 18 17 19 19 18 19 18 18 19 20 20 17
37 35 35 32 31 32 30 30 31 33 32 32 32 33 32 31 32 32 30 29 29 28 27 26 26 27 26 24 22 21 20 19 18 18 19 21 22 22 24 25 25 22 20
40 37 35 34 37 37 33 32 32 31 32 33 33 34 35 35 35 34 33 32 31 30 29 29 28 28 28 26 24 25 24 23 23 21 20 22 23 25 27 28 29 29 26
43 40 38 36 36 37 39 38 37 34 33 34 33 35 37 37 38 38 37 35 34 32 31 30 29 28 29 29 28 28 28 27 28 27 24 23 24 24 26 30 32 33 33
48 45 41 39 37 37 37 37 36 35 34 29 32 36 37 38 42 43 41 39 38 36 34 32 32 31 30 31 30 30 31 31 33 32 30 28 29 29 29 30 31 35 36
55 47 43 40 38 38 37 36 35 35 36 35 35 36 37 39 41 40 39 41 40 41 38 38 36 35 33 34 33 34 34 34 36 36 35 34 33 33 34 36 36 38 40
58 52 48 43 40 38 38 36 37 36 38 41 42 42 40 38 38 37 37 39 40 43 44 43 42 41 37 37 37 37 37 38 39 39 38 38 37 37 37 38 39 42 43
59 55 52 46 43 41 39 39 39 39 38 38 41 42 43 43 42 39 36 36 38 43 45 46 46 43 43 41 39 40 41 41 42 42 42 43 40 40 40 41 44 46 47
60 58 56 50 48 46 44 42 42 41 40 41 40 40 41 42 44 44 42 41 39 42 43 43 46 47 45 44 43 43 44 44 44 44 45 44 42 43 43 44 47 49 47
62 61 59 56 55 51 48 46 44 43 42 43 43 41 40 40 44 45 46 45 44 44 44 44 44 45 47 49 48 49 48 47 47 46 46 44 43 45 44 47 49 50 46
64 62 62 60 57 55 51 50 49 47 46 44 44 42 39 43 45 49 49 50 51 50 48 48 46 42 41 42 45 48 50 47 47 47 46 46 47 47 46 49 51 52 44
66 65 64 60 59 58 56 54 53 52 50 47 43 43 42 45 48 51 45 44 53 55 55 53 53 45 40 41 44 47 48 45 44 47 47 48 48 46 49 51 54 49 43
68 65 64 65 63 61 62 61 58 54 52 50 48 45 48 51 47 53 51 42 41 60 56 55 52 51 50 46 47 49 48 49 49 50 49 50 50 50 52 55 53 46 43
68 66 66 63 65 65 66 64 60 60 56 51 46 46 46 44 45 50 50 50 54 53 50 54 62 62 59 54 56 58 57 55 53 54 55 53 53 55 55 54 50 45 48
65 65 67 70 70 66 66 61 59 59 50 46 42 48 50 46 35 38 46 46 45 48 49 54 58 57 57 58 58 62 62 62 60 58 56 57 57 57 56 54 49 47 51
66 64 59 58 57 55 58 62 61 67 56 55 56 44 58 65 60 66 66 59 52 51 50 50 52 53 55 58 60 62 63 62 60 60 59 61 60 58 56 53 51 52 53
62 60 61 61 58 63 69 75 63 62 46 63 59 58 70 74 69 69 65 67 68 63 63 66 63 62 64 60 61 60 61 62 61 61 62 62 61 57 54 55 56 58 59
69 64 64 66 68 75 81 86 77 74 69 80 75 73 77 76 73 71 74 74 73 74 75 71 67 72 70 70 67 64 62 61 60 60 62 60 58 57 57 59 61 63 65
81 76 75 76 78 80 81 82 82 84 82 83 75 82 83 82 83 80 78 80 79 83 85 82 80 77 78 77 71 66 65 63 60 59 60 61 62 62 63 65 67 70 71
87 82 86 84 86 86 85 86 84 92 94 88 87 85 84 87 90 90 91 90 89 91 89 90 85 84 87 83 78 72 70 69 66 64 64 65 65 67 68 71 76 78 79
97 98 93 88 90 92 98 96 92 89 90 86 83 84 88 92 95 94 96 93 91 91 92 90 90 89 88 87 82 78 78 77 75 72 70 69 70 73 76 81 84 85 85

GFSGL_250_spd_066.txt.gz
Wind_Speed
24 28 27 27 27 26 25 23 23 22 21 16 14 12 9 8 9 9 10 9 10 10 11 14 18 23 23 22 22 25 25 24 22 23 23 20 21 18 15 16 17 16 15
25 27 29 29 28 26 27 27 26 24 22 19 17 16 13 11 10 10 13 13 12 11 11 12 16 19 21 22 20 20 23 23 22 21 20 22 22 21 21 22 20 19 18
27 28 29 30 32 31 29 27 26 24 23 21 20 17 16 14 12 13 16 17 16 14 13 13 14 17 18 20 19 19 19 21 21 20 18 16 18 20 21 21 20 18 20
28 28 29 32 33 33 32 28 26 25 24 23 21 20 20 19 17 18 19 21 21 19 17 16 15 15 17 19 19 19 18 19 20 20 19 18 15 14 16 17 20 24 22
32 30 32 32 31 31 32 30 29 26 25 25 24 24 24 23 22 22 21 23 24 24 23 20 19 17 18 19 18 17 17 17 18 20 20 20 19 19 17 16 18 21 24
37 35 32 32 31 32 30 28 29 29 29 27 27 26 26 26 25 26 25 25 26 26 26 25 24 22 22 21 19 18 18 17 18 19 20 21 21 22 22 21 21 23 25
44 40 36 34 33 35 31 29 31 35 34 33 30 29 29 29 29 30 27 27 27 27 28 28 29 28 27 25 23 21 20 19 19 20 20 21 22 22 21 21 22 23 26
47 44 40 37 38 39 40 36 33 35 36 35 33 32 32 32 32 32 30 30 29 29 29 29 29 30 29 28 25 24 22 21 21 21 23 23 22 24 26 26 26 26 26
53 50 46 41 39 38 36 36 35 33 32 33 30 30 35 35 34 34 32 32 32 32 32 32 32 32 32 31 29 29 26 25 26 25 24 25 26 28 29 31 29 30 31
60 55 48 44 40 39 37 35 36 38 38 36 34 35 35 37 36 36 35 35 35 35 37 37 37 36 36 35 34 31 31 29 29 30 29 29 29 30 32 33 34 33 33
63 55 49 47 44 41 40 35 34 36 36 38 38 37 35 36 35 36 35 34 34 36 37 39 40 39 39 39 37 36 34 33 32 33 33 35 34 34 37 39 38 36 36
63 59 55 51 48 44 43 39 37 37 36 35 36 36 38 38 36 35 34 33 31 35 36 37 39 40 41 42 43 41 38 36 36 35 35 37 38 39 40 40 42 40 39
65 62 59 55 52 48 45 42 40 40 39 37 36 36 39 39 37 37 37 36 35 37 37 37 37 37 38 41 43 43 42 40 38 38 39 40 42 43 43 42 41 41 41
68 66 64 60 57 53 49 47 44 44 43 41 40 39 40 38 37 37 37 37 39 42 41 41 40 40 40 38 39 41 43 41 40 40 41 45 46 46 46 44 42 43 44
72 71 68 64 61 58 55 54 51 49 48 43 42 41 40 39 40 40 40 40 42 43 42 43 42 41 40 41 41 39 38 39 41 43 44 44 44 45 44 43 43 43 43
76 74 70 66 65 62 61 59 55 53 53 48 45 43 42 41 43 43 43 45 43 44 44 44 42 39 39 33 38 39 41 39 38 40 41 44 43 42 44 45 44 42 44
79 75 70 67 65 64 62 61 59 56 55 52 49 45 45 46 47 47 47 45 46 45 43 41 39 41 36 36 38 38 35 38 42 44 44 43 45 47 47 45 43 46 48
78 76 72 67 64 65 65 64 61 59 57 55 54 50 48 50 48 48 47 41 44 42 39 39 46 47 40 43 43 46 35 38 44 51 54 55 55 56 56 55 54 53 53
79 77 72 66 65 66 66 66 61 62 62 60 59 55 53 52 51 49 45 49 42 39 36 32 52 60 54 52 50 48 44 36 38 42 50 52 54 55 58 59 57 57 55
81 79 72 67 68 67 66 63 65 58 58 61 60 54 52 54 53 50 48 47 49 42 33 27 69 54 44 43 44 44 44 52 49 49 53 54 53 53 53 55 56 57 55
79 79 72 71 70 66 62 65 60 57 40 65 57 56 55 58 56 51 57 58 54 50 54 48 52 50 55 55 54 55 56 59 59 54 56 59 60 56 54 56 57 56 54
80 74 70 73 70 67 69 66 62 62 66 73 66 64 63 61 56 60 62 60 56 57 57 61 67 71 64 61 63 69 70 70 67 66 67 65 65 61 58 57 59 59 57
74 78 76 63 50 62 67 65 65 66 66 60 53 58 54 49 58 64 63 68 66 67 68 64 67 66 72 69 70 72 72 77 78 77 74 71 72 68 64 63 61 62 61
82 74 74 80 76 68 70 70 62 61 58 58 60 53 43 47 49 60 62 69 71 69 72 70 73 78 78 78 76 76 79 81 82 85 82 74 71 69 66 68 67 66 66
89 86 81 81 82 84 81 75 69 63 62 55 69 72 68 82 83 77 72 74 76 77 81 83 83 83 84 81 80 83 87 90 91 87 86 80 76 76 72 73 75 74 73
97 94 91 88 84 83 80 79 75 73 76 45 46 71 74 82 88 91 91 91 89 89 90 91 95 97 92 87 86 86 87 90 92 90 88 84 83 83 82 83 82 82 82

GFSGL_250_spd_069.txt.gz
Wind_Speed
20 22 26 28 29 31 30 28 25 23 21 18 15 14 12 10 10 9 6 4 6 8 10 12 15 18 21 22 19 20 22 23 21 20 21 21 21 21 23 23 23 22 18
20 22 26 28 31 31 32 31 29 27 27 24 22 18 15 14 12 11 11 8 7 9 12 13 15 16 16 18 21 18 17 19 21 19 17 17 17 16 18 19 21 22 22
24 23 25 28 31 33 33 33 33 31 30 28 26 22 19 17 14 12 12 12 11 11 13 15 16 17 16 17 17 18 18 15 15 17 17 17 17 17 17 16 17 19 20
29 27 25 28 30 30 29 31 31 30 28 28 27 25 24 21 18 15 16 15 15 15 15 17 18 19 18 18 18 18 18 17 14 13 13 15 16 17 18 20 21 20 21
32 33 29 28 28 30 31 29 26 29 28 28 27 26 26 24 21 20 19 19 17 16 16 18 20 21 22 22 21 21 19 18 17 15 14 14 14 15 17 18 21 24 25
38 35 33 31 31 32 32 30 28 27 24 26 28 28 28 27 26 25 24 23 22 20 19 18 20 22 24 24 24 23 22 20 18 18 18 18 18 18 18 20 20 22 24
46 40 37 37 35 33 33 31 30 29 24 24 24 30 31 31 29 29 29 26 25 24 23 22 21 22 23 24 25 25 23 23 21 19 19 20 21 22 23 23 24 24 25
52 44 41 42 40 38 35 35 34 34 31 29 28 31 32 33 32 33 33 31 29 29 28 27 25 25 24 25 27 27 27 26 24 21 20 21 22 23 24 25 26 28 29
57 52 45 45 45 42 40 36 35 36 36 35 31 27 27 28 28 30 32 32 32 32 31 30 28 28 27 28 29 30 31 28 29 28 25 23 23 24 26 28 29 31 34
57 58 57 51 49 47 42 38 35 38 39 37 31 29 29 29 30 32 34 32 33 31 32 29 29 28 29 31 31 33 34 32 32 31 31 29 28 27 27 29 32 33 34
60 60 61 57 56 50 44 40 39 38 36 36 33 32 33 32 31 32 32 32 29 28 29 28 29 30 29 29 30 32 33 35 35 34 34 34 32 30 31 32 34 36 38
64 62 66 58 60 50 46 43 41 40 38 37 34 33 32 30 31 33 33 34 30 30 32 32 33 32 30 30 30 30 29 30 34 35 35 34 34 34 34 35 37 38 38
73 66 57 57 56 53 50 47 43 43 41 39 39 37 35 34 33 34 34 34 33 34 34 35 35 33 33 34 33 32 32 29 30 31 32 33 34 35 37 39 39 37 39
88 72 68 64 59 57 56 52 49 47 46 42 41 42 39 36 36 35 35 35 36 36 37 37 34 35 35 34 34 33 31 28 27 29 28 30 31 34 35 36 36 36 38
103 98 82 73 68 64 60 57 54 52 50 48 45 43 41 39 38 37 36 36 37 38 38 37 36 37 35 34 32 30 29 28 27 27 28 29 30 33 35 37 40 41 43
104 99 86 78 76 69 64 61 59 57 55 52 50 46 45 44 42 41 39 37 37 37 38 40 38 38 36 30 26 26 28 29 26 27 32 29 33 36 35 36 39 43 45
102 97 88 83 79 74 69 64 61 60 58 57 55 51 49 48 47 45 43 42 39 38 40 41 40 39 30 32 36 36 33 33 30 32 29 25 26 31 34 37 39 40 41
102 98 91 84 80 78 74 69 65 63 62 60 58 55 54 53 53 49 47 45 43 42 37 35 37 35 38 39 44 42 34 35 29 35 35 29 34 37 35 35 38 40 43
102 98 94 87 83 76 77 73 68 66 65 61 59 57 57 58 57 54 52 50 49 43 39 38 39 36 42 44 47 43 29 29 38 52 44 42 47 50 50 53 51 53 52
104 100 96 90 83 79 78 75 70 67 67 63 59 59 57 60 57 59 58 56 50 45 40 38 39 43 43 41 38 30 29 40 46 54 51 50 56 54 54 61 65 63 59
105 101 97 92 86 82 79 75 71 69 64 63 62 59 51 55 55 54 57 58 52 45 44 46 44 39 32 40 57 45 35 28 55 61 63 62 60 64 59 61 64 63 64
106 102 99 91 88 82 79 75 70 68 63 57 58 57 55 56 57 56 55 51 49 49 54 49 45 43 37 41 64 60 60 63 73 74 72 69 68 71 65 65 67 70 71
105 101 96 87 84 84 81 75 69 71 67 61 59 53 55 57 54 59 59 55 59 58 60 59 56 58 55 60 68 64 64 71 74 78 73 73 73 71 69 72 70 69 71
105 102 87 83 74 71 72 75 70 70 73 66 63 61 62 62 62 66 68 70 71 66 66 59 58 61 64 67 71 71 73 77 78 79 81 77 79 78 80 81 76 71 72
107 102 100 77 73 78 70 60 69 75 65 66 69 64 64 67 74 59 77 67 70 70 65 60 68 73 71 71 72 75 80 78 73 75 78 80 83 86 87 92 87 81 77
110 104 103 97 83 84 82 67 62 73 76 69 76 66 67 72 71 74 72 72 72 72 67 58 54 54 63 70 74 75 81 85 87 86 88 91 93 94 96 97 94 95 91

GFSGL_250_spd_072.txt.gz
Wind_Speed
26 28 28 26 29 31 29 26 24 22 18 16 17 16 13 12 10 8 7 7 8 10 11 12 15 16 17 19 21 20 18 20 20 19 19 18 17 16 18 18 18 16 16
20 24 27 29 28 29 31 32 30 27 26 24 24 22 19 17 14 12 10 7 9 9 11 12 13 15 16 16 16 17 18 14 14 15 15 16 16 15 16 16 16 16 15
24 23 23 26 30 30 29 31 33 32 30 29 26 25 24 22 19 16 14 11 10 12 11 12 13 15 16 16 17 16 15 15 13 11 11 13 13 14 14 15 16 17 17
28 26 27 24 24 24 25 28 29 29 30 29 29 27 26 25 23 21 20 18 16 15 15 14 13 14 17 18 18 17 17 16 14 13 12 12 12 13 15 16 16 18 19
34 28 29 28 25 24 24 27 26 26 29 26 28 27 25 25 23 23 24 23 22 19 17 18 18 17 17 18 19 20 19 18 17 15 14 13 13 14 15 16 18 20 23
39 32 31 33 31 29 25 26 25 26 24 25 20 22 24 22 23 25 26 27 26 24 22 20 21 21 20 20 20 19 20 20 20 21 20 17 16 16 17 18 19 23 24
41 44 36 38 37 33 28 27 26 27 26 24 23 22 21 19 22 28 29 30 29 27 27 26 24 24 24 23 22 22 21 22 22 23 23 23 21 20 19 21 22 24 26
50 56 46 40 44 37 33 29 28 27 26 27 25 23 22 24 24 25 26 29 29 28 28 28 27 28 29 28 26 24 23 24 24 26 26 27 26 25 25 26 26 28 28
52 48 49 48 46 43 39 35 29 28 30 29 28 27 26 24 25 23 25 27 25 26 27 27 27 26 28 27 26 25 25 25 25 26 26 26 28 29 29 29 28 31 32
45 45 51 54 53 47 40 38 36 31 32 32 30 28 29 27 26 25 23 25 27 26 27 27 25 22 24 24 23 24 21 22 24 25 26 27 26 26 27 29 30 32 35
50 51 60 58 56 54 46 43 42 37 35 35 32 28 27 27 27 27 27 27 27 23 26 28 26 25 25 27 25 25 23 22 23 22 22 20 21 24 26 26 28 31 34
58 52 52 59 59 55 51 48 49 41 37 39 34 31 31 30 26 25 26 28 26 25 26 28 29 29 29 28 27 27 25 24 25 23 23 23 21 19 20 21 23 25 26
64 55 54 54 50 54 54 55 56 46 41 44 41 36 34 31 28 28 28 29 27 27 26 27 29 31 31 30 27 26 25 23 23 23 23 22 23 20 17 20 22 22 24
78 72 67 63 59 50 61 55 59 51 47 48 44 41 37 33 32 31 32 30 29 28 25 24 27 29 30 30 27 26 27 24 22 21 19 19 18 18 16 13 15 18 21
90 83 83 70 66 63 66 67 58 56 55 50 45 42 39 39 38 35 34 35 33 30 27 27 29 29 29 29 26 26 26 22 23 23 24 18 15 17 12 11 14 18 22
104 98 94 77 77 74 64 66 61 58 57 50 46 46 43 42 42 41 40 39 37 32 30 33 34 31 31 31 30 26 25 26 31 31 31 26 24 20 21 19 19 25 27
114 105 98 72 81 74 65 69 64 61 53 50 50 50 48 48 45 45 45 43 40 35 36 39 38 34 32 29 29 30 31 32 33 27 34 32 25 22 25 26 25 28 34
116 111 108 93 88 79 81 75 76 73 61 55 56 56 54 53 50 50 49 47 45 42 42 43 42 40 36 35 31 33 32 29 35 34 33 34 36 39 36 32 28 33 34
120 117 114 108 101 91 80 80 79 79 75 68 67 64 61 59 57 56 52 51 49 47 46 47 46 46 43 40 37 34 30 27 29 23 22 25 27 39 49 42 45 46 39
124 123 121 115 110 103 103 96 93 95 85 80 71 68 66 65 64 61 58 53 50 52 53 53 49 46 46 43 41 37 37 35 34 33 37 33 30 35 37 39 44 51 50
128 126 125 124 116 111 111 109 106 99 91 82 75 71 68 71 70 66 64 61 58 55 50 48 50 46 43 43 40 43 44 41 45 50 46 49 45 38 39 51 66 66 69
130 127 129 128 124 116 114 114 111 106 92 87 79 70 69 71 66 62 62 61 58 57 52 53 53 50 45 45 49 43 43 51 52 54 48 40 42 51 54 59 72 78 80
134 131 127 128 128 121 113 113 109 101 94 86 83 75 73 73 68 64 61 58 61 61 60 58 58 56 62 55 53 52 52 52 56 59 45 48 51 52 71 74 79 81 83
137 134 129 127 125 121 116 111 107 101 95 89 86 82 78 77 72 67 68 65 63 63 63 55 60 56 58 60 63 62 64 67 63 65 70 68 71 73 73 73 79 83 83
133 131 131 129 127 122 113 110 107 104 97 87 83 80 80 77 74 73 71 70 67 70 66 64 64 64 62 66 70 73 73 68 60 66 72 75 76 76 78 84 84 87 88
126 126 127 126 127 125 118 110 105 100 93 85 82 82 79 81 77 73 69 76 77 74 72 71 70 69 75 72 68 69 74 78 77 77 84 88 87 87 88 86 85 88 92

GFSGL_250_spd_075.txt.gz
Wind_Speed
30 35 34 33 32 30 28 27 25 21 17 14 11 11 12 11 9 5 4 4 3 6 8 10 11 13 15 18 20 20 20 18 19 20 20 20 20 19 19 18 18 18 17
26 28 32 33 34 35 33 32 31 27 25 22 19 18 18 16 14 12 10 7 6 5 6 9 11 11 11 12 15 17 17 17 16 15 15 16 16 16 15 15 15 15 16
24 24 25 30 33 35 35 35 35 33 32 30 25 23 22 21 17 15 15 12 9 9 9 10 11 12 12 11 11 13 15 15 13 12 11 11 11 12 12 13 14 15 17
30 26 23 23 27 28 31 33 34 35 35 34 31 29 25 23 20 16 17 16 14 13 13 13 14 15 15 14 14 13 14 13 14 13 13 13 13 14 15 16 17 20 20
34 32 30 26 23 22 24 29 31 31 32 31 29 27 25 22 19 15 16 17 17 16 16 15 16 17 17 17 17 16 15 13 13 13 16 16 16 16 18 18 19 21 26
41 36 33 32 29 26 24 23 27 29 27 27 28 22 18 15 17 16 13 15 17 18 18 18 19 20 20 20 20 21 20 18 16 16 16 18 18 18 20 21 21 21 21
47 41 37 35 36 33 27 22 23 28 27 28 27 25 20 15 15 14 14 11 14 18 19 20 21 21 21 21 21 22 23 23 22 20 19 19 19 21 22 24 24 24 24
46 48 43 41 41 39 35 30 25 25 29 26 25 27 25 22 18 17 18 19 16 12 13 17 19 20 21 21 21 22 22 21 21 21 20 20 19 22 23 24 24 24 25
54 52 47 48 47 48 42 40 33 27 29 29 25 23 24 23 21 20 20 22 18 13 12 16 17 18 20 21 20 19 20 18 21 19 18 18 18 19 23 23 22 23 22
62 57 49 47 48 50 49 48 43 32 30 28 26 26 24 23 23 21 19 21 21 15 14 15 16 16 17 19 19 19 21 17 21 19 18 17 16 17 19 20 18 19 17
69 64 53 51 55 51 51 46 47 41 34 32 30 28 27 23 21 20 18 23 23 19 16 16 17 16 17 19 19 19 21 19 22 20 20 18 17 19 18 17 16 16 15
78 70 69 62 57 54 53 51 47 49 40 36 35 33 31 26 24 22 19 21 20 18 15 15 15 16 17 18 19 17 19 22 23 22 19 18 19 18 17 16 13 10 9
84 84 76 72 69 66 63 56 50 50 52 41 40 38 36 30 26 28 23 22 20 19 15 14 15 16 16 16 15 16 17 19 21 23 23 20 19 14 12 9 6 2 5
87 88 84 69 69 67 63 60 58 50 52 46 45 40 41 35 29 32 30 26 24 24 18 13 16 19 17 17 17 17 19 21 24 25 25 24 22 15 15 13 11 7 8
83 84 84 81 76 72 63 60 61 56 55 51 49 47 45 42 35 35 34 34 31 29 22 20 22 23 22 20 20 21 21 23 26 26 23 28 31 26 22 24 22 17 14
87 87 86 80 77 75 67 66 67 62 55 54 58 57 51 45 39 38 39 36 33 31 27 27 27 26 27 26 26 24 25 25 27 27 26 29 27 29 30 33 33 32 31
108 99 95 89 85 78 73 74 72 67 58 52 53 55 56 49 48 47 43 38 35 33 33 33 31 31 31 29 30 30 30 30 31 31 30 31 30 28 29 37 38 35 32
114 107 99 98 94 88 81 80 74 69 72 72 61 58 64 61 55 51 45 38 39 41 39 38 36 36 37 36 36 37 36 36 37 35 34 30 26 20 24 31 36 40 42
119 115 105 102 100 95 93 83 85 75 76 71 67 61 58 61 57 51 45 41 43 44 44 42 42 41 42 41 41 40 43 43 40 38 37 38 35 32 33 32 34 34 38
121 120 117 109 106 101 99 95 90 90 79 80 73 73 68 67 62 56 47 46 48 48 48 46 47 46 45 43 43 44 42 42 42 41 40 41 43 43 37 31 40 41 48
129 127 123 122 117 111 111 106 101 95 94 84 76 76 69 70 73 64 62 56 54 55 54 55 55 51 50 50 50 52 47 44 46 46 44 44 39 46 50 53 50 47 41
134 127 126 129 124 119 118 116 115 111 104 90 78 80 76 74 79 74 68 66 67 61 59 59 59 57 52 49 48 52 50 47 45 46 50 54 53 50 49 54 54 49 43
136 130 133 130 129 128 125 122 119 115 114 108 91 84 81 84 85 85 83 73 70 69 69 68 61 57 51 49 48 52 52 53 55 57 62 62 62 60 58 57 58 58 57
136 137 134 134 134 133 126 128 128 124 120 117 110 105 98 96 91 92 89 87 82 78 74 72 68 64 62 60 59 60 64 65 66 68 68 65 64 66 66 69 68 66 68
132 136 136 135 138 137 132 125 127 126 125 121 116 116 113 108 107 105 100 96 92 88 84 77 70 67 67 67 66 67 66 67 68 70 71 69 68 67 72 80 80 80 77
128 132 135 135 138 139 138 134 127 126 128 124 121 118 115 109 107 107 106 102 99 93 91 87 82 80 80 78 74 73 72 72 74 76 75 74 74 74 73 72 67 75 84

GFSGL_250_spd_078.txt.gz
Wind_Speed
26 25 28 29 29 27 26 25 23 19 17 16 13 9 8 10 12 12 12 10 8 7 9 10 10 11 12 14 15 17 18 17 16 16 17 17 16 17 16 16 16 16 17
26 23 25 27 30 31 31 28 27 24 22 21 19 16 16 15 14 14 13 12 10 9 8 10 10 10 10 10 10 11 13 13 13 13 13 12 12 12 12 12 13 15 17
30 26 24 25 28 32 31 32 31 28 28 27 27 26 23 22 21 18 16 13 12 12 11 10 11 11 11 11 10 9 9 9 9 9 10 11 12 12 13 13 14 15 18
35 31 28 26 28 29 31 31 32 32 31 32 31 31 29 26 26 22 19 15 13 14 15 13 12 12 13 13 13 13 11 8 8 8 8 9 10 11 13 16 16 17 17
42 39 35 29 27 26 26 29 29 28 32 32 31 32 31 27 22 20 19 16 13 13 15 15 14 13 14 13 14 14 14 13 11 10 9 9 9 11 12 13 16 17 19
50 46 40 35 31 27 25 25 27 25 24 27 29 27 23 22 20 17 14 15 14 13 14 14 15 15 14 14 13 13 14 14 14 14 12 12 10 11 12 12 14 16 18
55 51 46 40 37 33 31 27 27 26 21 22 23 24 22 17 16 16 15 14 12 12 13 13 11 10 11 12 13 11 11 12 12 12 13 12 10 14 15 15 16 15 14
59 57 52 47 42 37 33 31 30 28 24 20 20 19 19 19 17 19 19 18 18 16 14 13 12 12 12 12 11 11 11 10 13 13 12 12 12 16 15 14 14 11 9
62 62 56 52 46 42 38 35 33 30 29 23 19 18 19 18 18 20 21 23 18 16 15 15 14 13 11 14 12 10 12 9 14 14 12 13 15 15 18 16 16 11 7
67 65 61 58 53 49 46 39 34 35 33 30 24 23 21 17 16 20 23 24 23 18 15 17 17 13 11 13 12 10 8 8 13 12 11 13 15 16 17 16 11 9 1
75 69 63 62 59 55 55 52 45 43 39 39 34 29 27 24 19 18 19 21 19 12 15 18 16 14 12 12 12 10 7 10 12 10 9 11 13 16 16 11 9 4 2
83 78 71 68 67 58 55 54 53 50 46 43 42 35 38 32 24 21 19 20 16 13 14 13 11 11 12 12 14 9 7 10 11 13 13 12 14 14 15 13 12 10 8
92 85 81 78 74 67 60 58 62 58 51 46 45 44 42 37 28 26 25 23 20 18 14 13 11 13 16 16 14 11 10 12 13 15 15 16 17 16 14 16 18 16 15
97 90 86 84 81 79 72 66 64 62 56 50 47 45 41 43 37 31 30 26 24 21 18 15 14 19 21 18 17 15 14 13 16 19 19 19 20 19 20 19 20 21 22
101 96 95 92 87 83 81 75 65 62 58 54 52 48 46 44 44 42 34 30 29 30 22 22 25 25 25 24 20 19 19 20 19 18 21 22 22 20 18 21 27 28 27
105 104 99 97 96 94 90 83 78 69 61 55 54 53 56 51 45 47 42 38 35 33 27 31 32 30 28 27 25 23 23 25 23 23 25 24 24 25 27 25 28 25 25
108 107 106 103 104 101 96 88 84 80 70 68 67 64 61 56 53 51 49 42 41 38 37 35 36 35 33 30 29 29 28 29 28 27 27 28 29 27 27 29 31 34 34
115 111 111 108 109 103 98 91 89 85 83 75 70 68 65 60 57 54 50 51 49 47 43 41 42 41 38 35 32 32 31 32 31 33 30 31 31 29 32 32 31 31 29
121 114 112 112 110 106 102 99 93 91 85 83 72 69 74 69 63 65 61 54 49 54 49 45 45 47 42 39 38 36 35 36 36 35 37 39 36 34 37 37 36 37 37
125 120 113 113 112 110 106 102 96 96 88 85 80 72 79 72 66 68 62 54 52 57 61 53 48 48 48 41 38 38 38 39 39 41 44 43 42 41 41 41 42 41 40
128 128 121 118 112 109 113 110 100 98 94 86 86 78 79 77 71 72 77 71 62 55 59 56 53 52 48 45 42 43 44 45 43 44 46 45 46 45 47 47 48 47 42
133 134 130 121 118 119 117 111 107 102 99 94 95 90 86 83 85 82 80 77 71 63 60 63 62 60 51 47 45 44 46 50 48 46 48 46 46 50 53 49 49 49 56
135 136 135 132 129 127 123 118 112 107 102 97 99 99 98 93 90 88 87 80 74 73 67 71 68 71 67 60 60 53 53 54 48 50 48 48 51 54 57 58 58 61 64
132 135 137 137 134 129 127 125 120 116 106 103 104 104 104 102 97 95 89 85 81 73 68 74 80 77 70 68 66 68 59 53 57 60 58 57 62 64 66 68 71 76 73
128 132 135 138 137 133 132 129 126 126 124 122 116 115 108 105 106 103 99 95 93 92 80 76 80 80 73 74 75 72 70 64 62 63 66 68 72 73 74 75 77 79 81
124 127 133 133 138 139 134 131 131 130 128 126 125 120 121 118 112 109 110 110 107 105 100 95 84 80 80 81 80 80 78 82 81 85 81 76 74 75 79 84 83 81 80

GFSGL_250_spd_081.txt.gz
Wind_Speed
24 19 19 24 27 25 23 21 20 18 17 14 9 6 1 6 9 11 11 11 9 8 9 10 11 11 10 10 11 11 12 12 13 14 14 14 13 13 13 13 14 15 16
29 25 19 22 27 30 26 25 23 21 20 18 17 13 9 11 12 14 15 12 9 8 6 8 10 10 11 11 10 9 8 8 9 9 9 10 10 11 12 12 13 14 14
33 30 24 22 24 29 29 27 26 25 23 21 20 20 17 17 16 16 17 15 13 10 9 7 9 10 10 11 10 10 9 7 6 6 6 7 8 8 9 11 11 12 14
38 33 30 26 25 27 31 31 29 28 27 26 24 22 21 23 22 18 17 16 13 12 10 11 9 10 10 11 10 9 9 9 7 7 7 7 8 8 8 8 10 12 12
47 40 37 33 28 26 29 32 32 32 32 31 28 28 28 26 24 20 16 14 13 12 10 9 10 10 11 10 9 8 8 8 6 7 8 8 9 11 11 11 11 11 13
54 52 44 39 34 31 28 29 29 30 33 34 34 32 30 26 21 19 16 11 10 9 8 6 7 9 9 10 8 7 7 6 6 7 7 8 9 12 14 14 13 12 12
60 58 52 47 41 38 33 28 29 29 28 30 31 30 31 26 20 18 16 14 12 10 9 10 9 8 8 10 10 8 8 6 7 7 8 8 8 11 12 12 12 10 5
65 63 59 54 50 45 41 37 33 30 28 27 27 28 26 25 20 20 19 18 17 16 12 11 12 10 11 13 13 10 10 7 11 9 7 9 9 11 8 8 8 6 1
67 67 63 59 55 52 47 44 39 36 32 29 27 26 24 22 20 22 22 23 22 19 14 12 12 13 11 13 13 12 12 8 11 6 6 8 8 9 9 5 3 2 5
67 67 69 66 61 58 55 49 44 41 37 32 30 28 27 24 22 24 25 25 23 21 17 16 14 14 12 14 14 11 8 11 11 5 5 6 7 8 7 4 5 12 11
74 72 72 71 66 64 62 57 51 44 41 37 36 34 31 27 23 23 25 25 21 13 16 20 19 16 14 15 17 15 12 15 15 10 10 8 7 9 10 6 9 14 14
82 78 74 74 72 67 66 64 57 51 49 43 37 34 34 33 29 26 23 25 21 17 18 18 18 16 16 18 20 15 12 17 18 16 12 11 12 12 13 12 13 16 16
86 85 81 78 79 72 68 67 63 59 53 53 46 43 41 43 38 35 29 27 23 20 18 19 19 19 20 22 23 17 15 16 15 16 14 13 16 16 15 17 15 19 22
94 89 88 84 85 81 73 72 69 66 63 58 56 55 50 43 39 39 35 31 28 25 23 21 24 27 28 27 21 18 18 18 19 19 17 16 17 17 17 18 17 21 24
101 97 93 93 88 87 82 77 76 71 69 65 61 60 55 51 48 37 36 35 33 31 28 28 31 32 31 28 25 23 23 24 25 22 21 22 19 17 17 15 21 23 25
107 104 101 97 96 92 90 86 83 79 74 72 68 65 57 51 54 47 41 39 37 35 36 38 36 36 35 31 29 28 28 29 29 25 25 24 23 22 20 22 23 23 26
114 110 107 103 100 100 98 95 91 89 85 79 76 71 68 60 56 53 46 41 41 42 44 44 43 39 39 35 34 34 34 32 32 31 29 26 24 26 26 26 28 29 28
121 117 114 110 106 104 104 105 100 96 96 90 86 80 70 64 56 53 49 48 47 49 49 47 48 47 44 42 39 38 39 38 38 36 33 30 28 27 29 32 33 32 33
124 124 121 117 112 108 107 108 106 105 101 96 91 86 78 68 59 61 56 60 56 55 55 54 56 53 50 50 48 46 44 41 39 39 37 34 32 34 36 36 35 35 36
126 126 127 124 120 116 110 110 109 109 106 102 99 93 89 79 73 61 63 63 64 62 61 62 60 58 58 59 54 51 47 44 43 44 37 32 35 39 44 40 39 38 35
126 126 128 129 126 123 117 111 111 111 111 108 104 99 97 89 84 78 72 75 66 67 63 63 64 61 61 64 62 59 56 55 47 48 41 37 35 38 39 41 41 43 44
123 126 128 128 128 129 125 118 112 112 112 111 107 104 100 95 89 89 86 75 76 69 70 70 62 60 65 64 67 65 64 62 57 50 47 39 36 38 38 40 43 47 50
116 123 125 128 129 131 130 126 120 114 116 113 111 108 103 101 97 96 90 81 80 76 77 71 71 56 63 72 67 60 57 59 62 63 59 54 52 45 45 49 50 50 54
108 115 124 126 127 129 130 130 128 121 115 113 113 112 108 105 103 104 98 96 93 85 78 70 74 65 65 71 79 69 69 67 64 67 71 67 55 54 55 52 55 59 64
103 106 117 126 127 128 128 130 130 128 123 118 117 114 113 110 108 108 104 102 101 97 94 86 82 83 82 79 75 77 75 69 68 71 69 68 63 63 63 64 67 69 71
95 100 106 119 127 128 129 128 134 131 129 123 121 119 116 114 113 111 109 108 104 105 103 105 99 92 90 90 87 84 79 77 76 76 79 83 86 82 82 80 76 72 74

GFSGL_250_spd_084.txt.gz
Wind_Speed
29 24 18 14 17 23 24 22 18 15 10 7 5 5 4 3 6 9 12 10 7 5 5 9 10 10 11 10 9 9 8 9 9 9 10 10 10 11 11 11 10 11 11
34 30 25 20 19 21 26 25 23 19 16 13 10 9 9 9 7 7 10 10 8 4 3 4 6 8 9 9 8 7 6 5 5 5 6 6 7 8 8 9 10 10 12
39 38 34 28 25 23 24 28 26 22 19 18 15 13 14 14 13 10 11 12 9 6 4 3 5 5 6 6 6 5 6 5 5 5 5 6 5 6 8 9 10 12 14
43 42 41 36 31 26 24 28 28 26 25 23 21 19 18 17 16 15 14 13 12 8 5 4 4 6 7 6 5 4 4 4 4 5 6 7 8 8 9 11 13 12 11
47 46 46 42 36 32 28 28 30 30 29 28 26 26 23 22 20 18 18 15 13 10 8 6 5 3 5 7 7 6 5 4 4 5 5 7 9 11 10 10 11 11 10
51 51 49 46 43 37 33 28 27 30 31 30 29 30 28 27 25 22 19 17 17 13 10 8 8 6 4 4 5 6 7 7 5 5 6 7 7 8 8 9 9 11 7
57 55 54 51 49 43 36 32 30 29 28 31 32 31 32 31 27 24 21 19 18 16 15 13 12 10 8 7 7 7 8 9 9 8 9 8 8 7 4 3 3 5 1
57 58 56 56 54 52 46 40 36 31 29 30 30 29 29 30 27 24 23 22 21 21 20 18 15 14 13 11 11 10 9 10 13 10 8 8 6 5 4 2 3 4 5
63 59 57 60 62 58 55 50 42 38 34 32 30 28 27 27 25 24 24 25 26 25 23 23 19 17 15 16 13 11 11 10 15 9 7 9 6 5 3 4 9 10 11
71 66 61 60 63 63 59 55 51 44 41 38 35 33 30 29 26 25 24 26 29 25 22 21 20 18 16 16 16 15 12 12 16 10 9 9 8 6 3 6 13 14 15
77 74 70 65 66 65 66 63 57 52 47 45 43 38 35 32 29 28 26 25 28 23 23 23 23 21 19 18 19 19 12 16 18 13 12 10 10 9 7 7 9 16 23
82 80 78 75 72 69 67 67 63 60 57 53 50 45 40 37 32 29 28 28 27 22 21 23 23 24 23 23 23 21 14 17 15 13 10 11 13 12 11 10 13 17 19
87 86 83 81 79 76 71 72 71 67 64 61 54 49 45 43 40 36 32 30 28 25 22 24 23 25 26 27 28 25 16 18 17 16 14 12 14 15 13 13 13 17 21
92 91 89 87 85 83 80 74 75 73 67 66 63 56 52 47 44 43 37 34 30 30 29 23 25 27 30 32 30 25 19 20 20 21 19 18 18 16 13 14 16 20 22
101 98 95 93 90 88 87 83 78 79 76 71 67 65 58 55 50 48 43 38 36 36 34 32 29 33 32 32 32 27 22 23 26 27 26 24 23 23 19 16 18 18 21
108 106 103 99 97 94 92 90 87 82 81 78 73 69 68 64 59 55 49 45 39 39 38 38 38 37 35 32 31 29 28 29 30 30 31 30 27 25 24 23 24 23 24
117 114 110 107 104 101 98 94 92 91 85 84 79 76 73 73 68 65 60 48 46 43 42 48 49 44 41 32 32 32 33 34 34 33 34 35 33 31 28 28 28 28 29
124 122 119 115 111 107 104 100 97 95 94 89 86 84 80 78 72 72 65 57 54 49 49 49 49 50 45 39 36 38 38 38 38 40 38 36 34 32 32 32 33 34 34
128 127 126 123 118 115 111 107 104 101 97 97 93 91 87 84 81 78 73 63 59 56 49 49 52 53 48 49 46 44 45 43 43 41 43 43 39 37 37 36 36 36 35
130 130 130 127 126 122 119 115 111 107 103 102 101 98 96 93 87 82 76 71 68 68 63 59 59 59 51 50 51 51 50 50 51 50 48 47 46 43 42 39 38 38 38
125 130 132 130 130 131 127 122 118 114 110 105 107 105 102 101 97 92 86 79 77 69 67 65 65 63 61 59 56 58 57 57 56 54 55 54 54 54 50 50 47 47 43
113 120 130 133 133 133 133 130 125 120 117 113 111 110 109 104 104 100 95 91 86 77 72 73 68 69 66 62 57 59 59 57 57 58 57 58 60 61 61 55 54 52 54
104 111 119 126 132 134 134 133 131 127 123 120 116 113 113 112 109 105 102 100 96 89 86 80 75 72 71 68 63 63 66 60 60 60 54 56 65 68 64 67 60 56 53
92 102 110 112 117 126 131 133 133 132 130 126 121 119 115 115 112 111 110 104 100 95 93 91 87 87 83 71 71 73 68 68 65 63 60 58 69 69 66 62 61 61 65
83 89 94 98 104 108 120 130 133 135 134 133 128 125 120 116 114 115 114 110 109 106 101 99 97 98 97 90 86 81 80 72 68 67 61 67 72 71 69 68 67 63 61
72 79 85 89 93 97 105 121 131 135 136 137 134 130 126 122 117 116 115 115 113 110 108 105 105 104 101 100 98 100 89 83 83 81 83 84 83 84 84 80 74 72 72

GFSGL_250_spd_087.txt.gz
Wind_Speed
33 28 23 18 17 15 15 19 18 16 12 9 7 7 6 3 1 5 9 10 8 5 5 8 7 8 8 7 7 7 6 6 6 7 7 7 7 8 9 9 10 12 13
37 34 31 27 26 21 18 19 21 21 20 15 13 10 10 9 8 2 5 7 7 6 4 4 6 7 6 5 4 4 4 4 3 4 5 5 6 7 9 10 13 13 14
43 39 36 34 32 28 22 22 23 24 24 22 18 16 14 14 12 11 9 9 6 5 4 3 3 3 5 6 5 4 3 4 5 5 6 7 8 9 11 12 12 12 14
45 42 40 38 36 34 28 25 26 26 28 27 23 22 20 18 16 15 15 13 11 8 6 6 6 5 3 4 5 4 3 4 5 6 7 8 9 9 9 10 12 13 8
48 50 44 41 40 37 33 31 29 29 30 29 27 26 23 22 21 18 16 16 15 12 10 9 9 9 8 7 5 4 4 5 6 6 7 8 7 6 7 8 8 7 6
40 43 47 47 45 43 39 33 33 31 31 33 31 28 27 24 23 21 18 18 16 17 16 13 12 12 11 10 8 8 8 8 9 9 9 7 5 4 2 3 4 7 8
58 54 50 51 51 49 47 40 36 32 31 34 33 33 31 29 26 24 22 21 19 18 19 17 15 16 14 13 11 10 12 10 11 11 11 9 7 2 4 3 6 13 14
57 54 50 50 52 52 50 47 39 37 33 32 32 34 33 33 30 27 24 23 25 23 23 22 21 19 17 15 15 13 14 13 14 11 9 10 8 6 5 8 13 14 14
63 60 57 53 52 53 53 53 48 44 39 35 33 31 33 32 30 27 24 24 26 27 25 26 24 22 19 17 18 16 16 12 16 14 9 10 8 7 6 8 13 18 17
69 66 63 61 57 55 53 56 55 51 46 42 38 35 32 32 29 28 27 27 29 32 28 27 27 26 20 20 22 19 20 12 19 12 7 11 10 9 7 11 17 20 20
76 72 69 66 65 60 57 57 57 60 55 49 45 41 39 36 31 29 28 28 32 34 30 29 27 24 21 22 23 25 21 16 20 17 8 11 14 13 9 12 14 18 20
81 79 76 73 71 69 66 63 61 60 60 58 54 48 45 42 37 32 31 31 31 29 24 25 26 26 26 26 26 27 20 17 19 13 12 8 13 16 15 13 16 18 20
86 83 82 80 76 75 73 71 68 65 64 64 62 58 53 48 46 40 35 33 31 29 24 20 23 24 25 27 28 28 25 20 18 17 16 11 11 14 17 15 16 16 18
92 89 87 85 83 81 79 78 75 73 70 69 68 66 61 57 53 48 45 41 38 37 32 25 22 26 28 30 29 23 18 17 20 21 19 16 15 16 14 12 17 20 22
101 98 95 93 89 86 85 84 82 79 78 74 72 69 68 65 62 54 51 49 46 41 43 37 32 29 32 32 30 27 21 19 19 23 23 21 19 17 18 17 18 19 20
110 107 103 99 97 95 92 89 87 86 84 83 78 74 74 72 70 64 59 55 51 46 46 43 42 39 35 35 32 28 23 21 24 24 27 27 25 22 20 20 21 24 26
118 117 113 110 105 102 100 96 93 92 91 88 86 82 79 78 77 72 68 63 59 54 51 54 51 48 46 43 39 37 34 29 26 27 30 31 28 26 24 22 21 25 31
128 126 123 120 115 111 107 103 100 98 96 95 93 89 87 83 81 81 77 75 70 64 62 57 53 48 43 38 46 46 44 40 37 35 34 35 32 29 27 26 26 27 31
135 132 131 129 124 121 115 110 108 105 103 100 99 96 94 91 88 86 84 80 78 72 70 61 60 56 50 51 57 51 49 47 46 43 43 43 41 37 35 34 33 33 36
136 135 135 134 132 130 125 121 116 112 110 107 105 102 101 96 96 93 89 87 84 81 79 73 70 65 59 53 51 51 52 52 50 50 50 52 48 46 45 45 44 40 40
125 132 135 134 133 135 132 129 127 120 117 114 112 110 106 103 103 100 95 91 91 87 87 82 78 71 66 59 55 52 52 52 51 51 54 54 54 52 52 54 55 52 51
112 115 121 127 133 134 135 136 131 128 127 122 119 116 111 110 108 106 102 98 95 93 92 89 87 77 71 65 63 63 59 56 59 59 57 58 58 57 57 56 56 56 57
101 105 109 113 119 127 133 136 135 132 131 129 125 123 120 116 114 112 109 105 103 99 98 96 92 87 86 81 71 68 67 64 64 63 58 56 65 64 60 60 59 59 56
89 93 99 104 107 112 119 129 135 134 132 133 133 131 128 123 120 117 116 111 109 107 103 102 99 94 91 91 88 78 75 76 74 73 72 70 66 67 70 67 64 58 60
81 85 89 92 97 103 109 113 120 129 135 136 136 136 135 130 125 122 120 117 115 114 110 106 105 103 98 95 92 90 86 83 82 81 83 84 80 79 79 73 70 70 67
71 76 81 84 87 92 98 104 111 117 125 132 134 137 137 134 131 128 125 123 120 119 117 112 109 108 106 103 99 98 95 93 91 90 88 85 82 83 85 81 78 76 76

GFSGL_250_spd_090.txt.gz
Wind_Speed
32 28 24 23 22 22 20 20 17 10 11 13 10 13 8 4 2 4 6 8 5 4 6 7 9 10 10 10 9 8 7 7 7 6 6 7 7 8 9 10 11 14 16
42 37 29 25 26 26 26 25 25 16 16 16 16 15 14 14 9 3 1 4 5 4 1 1 3 5 6 7 7 7 7 7 7 7 8 7 7 8 10 11 13 13 15
27 33 28 23 28 28 29 29 28 26 20 23 21 22 23 21 15 11 10 6 5 6 6 6 5 3 2 3 3 4 5 7 7 8 8 8 7 8 10 11 11 11 12
16 22 32 31 28 28 31 31 30 31 28 24 27 26 24 22 19 18 17 15 11 9 9 8 8 8 8 6 6 6 5 6 8 10 10 9 7 6 8 7 8 9 11
38 47 39 35 46 43 32 34 35 33 31 28 28 29 25 24 22 20 19 17 15 13 11 11 11 10 11 11 9 8 7 8 8 9 8 8 5 5 5 5 10 13 15
34 35 37 28 48 43 44 37 40 40 35 31 30 31 31 29 26 22 21 18 15 15 12 14 14 14 13 13 13 10 9 9 9 9 8 7 5 1 3 9 12 15 17
69 63 48 39 50 48 46 42 43 45 41 35 32 31 33 34 30 29 26 24 21 19 18 16 15 16 15 14 14 11 11 12 10 9 8 7 6 4 6 8 16 18 17
79 67 52 51 60 67 64 52 47 51 49 41 36 33 32 34 34 33 29 27 26 23 22 21 21 19 19 16 17 16 13 12 12 12 7 8 5 4 9 10 16 22 21
82 77 75 68 62 62 63 60 55 53 49 48 44 39 35 33 33 33 31 29 29 30 28 26 24 24 23 19 18 15 16 14 13 14 7 7 7 7 9 12 17 21 27
76 74 74 73 74 72 69 62 55 53 50 47 47 45 40 37 32 32 31 30 32 35 33 30 28 28 25 21 22 19 21 16 16 13 6 7 9 9 5 11 16 24 23
79 77 75 72 70 68 66 64 59 54 54 53 51 52 48 43 37 32 30 30 33 35 34 31 29 27 25 23 24 25 26 16 18 17 9 9 12 12 11 13 15 17 24
86 84 81 79 76 72 70 67 65 61 58 60 61 58 54 49 47 41 36 34 34 33 32 30 24 24 25 23 24 28 26 21 21 18 14 11 14 15 15 16 16 18 22
93 91 89 86 84 80 76 73 71 68 64 61 61 62 60 60 56 42 44 41 37 36 34 30 26 24 27 29 29 29 26 23 22 19 17 15 15 17 17 15 15 17 18
96 94 93 91 90 87 84 81 78 75 72 70 67 64 64 64 62 61 47 46 44 41 41 39 30 27 26 27 25 26 26 17 15 20 19 17 16 18 17 13 14 17 19
101 99 97 95 93 91 89 87 85 82 79 77 73 70 68 68 69 66 65 57 51 49 46 43 40 35 35 32 28 26 24 19 15 15 17 18 16 14 16 14 15 15 18
109 107 105 103 100 97 94 91 89 86 83 82 81 77 76 74 73 73 70 67 62 56 53 50 49 45 39 39 36 35 31 26 24 17 17 18 21 20 18 18 18 17 18
119 117 114 112 108 105 102 98 96 93 89 85 85 83 82 81 80 77 75 73 71 66 59 57 54 54 47 46 43 42 40 34 29 24 22 23 21 23 24 23 21 21 23
130 127 125 122 120 116 112 108 104 102 100 95 92 90 89 88 87 85 81 77 76 74 70 65 62 61 59 55 51 49 48 42 36 33 31 32 34 35 34 32 29 27 27
138 137 134 132 131 128 124 120 115 110 107 104 102 99 96 94 92 90 90 84 80 80 78 75 70 67 65 61 62 58 52 49 46 42 41 41 36 40 43 42 37 35 33
139 138 138 139 138 136 133 130 127 122 117 113 110 107 104 101 97 96 94 94 89 85 85 83 80 76 71 69 67 62 56 54 52 45 42 42 42 43 45 49 50 48 44
128 135 139 141 142 140 136 134 132 129 127 123 119 116 114 110 105 101 100 97 96 92 89 90 88 85 82 78 75 70 64 59 57 53 51 47 43 41 44 48 53 58 57
116 117 120 124 129 133 137 138 137 135 132 129 128 126 123 117 112 109 106 104 103 101 97 94 94 93 90 87 83 79 70 68 65 56 53 51 45 33 49 51 52 59 58
106 108 109 111 113 116 119 124 131 137 136 134 132 131 131 125 120 118 115 112 110 106 103 102 99 98 97 94 92 89 83 74 72 67 64 60 56 45 48 47 58 70 65
89 91 94 99 103 106 109 114 117 121 128 131 131 132 133 131 128 125 123 121 118 113 110 106 106 102 100 100 98 96 94 91 85 77 76 77 72 72 72 71 73 76 79
80 84 83 85 88 91 97 102 106 108 112 117 123 129 133 134 132 131 130 127 124 122 118 114 111 109 107 104 104 104 102 100 97 91 85 83 84 87 85 81 83 84 84
70 76 73 75 79 82 84 87 90 95 102 107 110 115 123 131 134 133 134 134 131 128 125 121 118 115 113 112 109 107 106 106 104 102 99 93 91 93 94 91 91 87 84

GFSGL_250_spd_093.txt.gz
Wind_Speed
31 22 21 27 20 20 16 13 11 13 15 17 10 13 15 16 13 10 8 11 11 9 7 6 6 7 8 8 8 7 6 6 7 6 7 7 7 8 8 10 13 15 18
20 23 26 29 17 19 19 18 15 14 15 17 19 17 15 16 15 16 11 13 15 15 11 8 8 7 6 5 5 5 4 4 4 5 6 5 7 7 7 10 14 14 19
26 20 24 29 28 18 18 22 23 17 15 16 18 21 22 20 19 18 19 16 16 17 16 11 9 9 9 8 9 8 8 7 8 8 8 7 6 6 7 11 14 17 16
34 19 28 19 23 31 30 25 21 21 18 17 19 20 23 25 22 20 21 21 20 20 17 12 11 11 11 9 9 9 8 8 9 9 9 7 8 7 7 9 13 15 14
42 39 36 25 24 29 30 32 23 21 22 21 21 21 23 24 25 23 20 21 22 21 17 12 12 14 13 11 11 11 10 9 8 7 6 6 5 5 6 10 12 13 14
42 45 39 33 34 32 29 25 26 28 30 24 29 27 27 25 25 28 27 23 22 19 17 15 13 14 14 13 11 11 11 10 9 7 5 3 3 5 12 12 13 15 15
56 54 51 49 47 40 32 26 28 31 32 30 33 38 37 33 28 28 29 32 28 24 21 18 16 14 15 15 14 10 12 11 10 7 9 2 3 10 13 18 16 18 16
57 66 67 64 62 56 54 38 38 38 38 35 43 49 44 42 37 32 31 33 34 31 27 23 20 17 17 15 15 16 16 16 13 10 7 7 4 10 15 22 18 20 17
69 71 74 71 73 70 60 53 55 59 59 53 51 57 50 46 43 37 32 31 37 36 33 29 26 24 21 18 17 18 19 16 16 15 10 8 9 11 14 18 24 25 26
79 80 80 76 77 79 79 74 66 67 67 64 56 62 53 53 49 46 40 36 34 39 39 36 32 29 26 23 22 22 25 17 18 19 15 12 12 12 16 21 27 25 28
88 89 90 90 92 92 89 86 83 76 71 68 63 68 60 54 53 51 48 43 37 34 37 37 36 34 32 29 27 29 29 20 21 23 21 20 16 17 17 18 23 25 26
95 96 97 98 97 97 97 93 90 84 81 79 72 73 64 59 57 58 52 48 43 40 39 37 37 37 34 31 29 30 29 21 22 22 20 21 19 21 20 22 22 22 24
94 96 98 99 99 98 95 90 84 79 77 77 77 75 69 64 61 60 59 55 51 47 45 40 37 33 30 29 30 28 28 24 22 23 21 23 22 20 21 20 20 19 22
99 98 97 96 96 95 94 91 88 85 82 80 78 75 73 69 66 64 64 60 56 51 49 48 41 34 29 34 34 32 29 29 25 25 24 23 24 22 20 16 15 15 19
106 105 104 103 101 99 98 96 94 92 89 86 84 82 80 78 71 68 68 67 67 64 54 52 51 45 41 39 39 35 31 31 29 23 24 24 24 24 23 17 17 15 18
114 113 112 111 109 107 105 103 101 99 98 94 92 89 85 83 81 76 74 73 70 69 69 60 56 56 53 48 43 41 38 34 33 27 25 27 26 28 27 22 21 20 20
117 116 115 115 114 113 111 109 107 104 103 101 97 94 91 89 88 86 81 76 75 72 72 72 66 62 61 56 52 47 45 42 39 38 35 35 32 26 22 22 23 21 23
125 123 122 121 119 116 114 113 110 109 107 105 103 100 97 94 92 90 88 82 82 79 78 77 75 74 68 65 60 57 52 50 47 44 39 37 36 34 30 27 27 27 24
133 131 130 129 127 124 122 120 118 116 114 112 109 107 105 102 98 95 91 90 88 85 84 83 81 79 78 74 70 66 62 59 57 53 49 46 46 46 39 37 37 34 33
140 140 140 139 137 135 132 131 129 126 123 120 118 116 114 109 106 103 100 94 91 89 88 88 87 83 83 81 79 75 72 68 66 63 56 50 49 48 41 39 39 43 38
141 142 141 141 141 142 142 141 138 135 135 132 130 129 127 122 116 113 109 103 99 94 93 93 92 91 88 87 87 83 80 77 74 71 65 59 53 55 50 44 45 45 42
123 127 130 134 138 141 142 142 141 140 139 139 139 138 137 133 129 124 119 115 109 104 102 101 99 95 95 92 90 90 88 85 82 81 78 72 68 63 59 55 51 50 48
117 119 119 119 121 123 124 127 131 135 138 140 141 140 138 136 134 133 129 125 120 116 112 111 108 102 98 98 97 93 94 93 91 87 86 84 79 73 70 67 60 60 57
110 112 113 114 114 115 116 115 115 116 119 122 125 128 131 135 135 135 132 131 129 126 124 122 116 109 107 104 102 101 98 98 98 97 94 91 88 83 78 76 73 69 69
94 95 97 98 99 100 102 101 100 104 107 109 112 116 120 122 126 129 132 130 131 133 132 128 124 120 115 111 109 105 105 104 102 104 104 99 95 92 89 85 82 78 77
86 85 84 81 78 83 85 78 85 93 95 96 99 102 107 113 117 117 120 123 127 130 134 133 129 126 123 120 116 113 110 109 108 108 107 108 105 102 99 96 93 90 87

GFSGL_250_spd_096.txt.gz
Wind_Speed
24 21 23 20 20 16 12 13 17 14 12 15 18 14 13 13 11 13 14 15 15 17 19 15 13 14 13 11 10 9 6 5 6 5 5 5 6 5 6 11 17 20 21
25 14 18 28 19 26 21 11 15 19 16 13 17 19 18 13 12 15 15 15 14 13 18 18 14 13 12 11 11 11 10 8 8 8 8 7 6 5 9 15 15 17 18
21 20 15 15 19 20 26 27 18 20 19 17 14 14 19 16 15 15 16 14 14 14 15 17 13 14 15 13 11 11 10 8 9 8 8 6 5 7 11 16 15 15 20
30 25 23 21 25 21 14 16 27 28 24 16 18 15 13 14 15 17 16 16 18 16 17 15 11 12 14 14 12 10 10 8 6 5 6 5 5 6 12 15 15 16 17
34 35 30 32 28 24 24 26 25 24 28 26 20 19 17 13 13 15 17 16 17 18 16 15 13 12 13 13 12 10 8 8 7 4 2 3 4 6 12 15 13 15 17
48 37 36 37 35 38 32 32 31 27 34 30 33 30 23 19 13 17 20 20 20 19 20 16 14 13 13 14 12 10 7 5 6 3 2 4 6 8 12 17 17 16 20
53 46 36 40 44 39 41 37 36 28 30 24 30 34 29 23 16 19 30 30 25 23 24 23 21 17 16 15 15 14 11 10 7 5 4 7 9 12 16 18 19 20 21
61 62 57 44 42 45 46 46 46 33 38 37 33 32 34 32 23 27 35 33 32 29 29 29 27 23 21 19 18 19 17 14 13 12 10 9 11 14 17 21 22 22 20
69 71 70 59 55 59 61 54 53 51 49 51 50 44 42 34 31 29 35 39 39 38 34 31 33 31 27 27 26 25 24 21 18 18 16 13 15 18 24 27 23 24 23
80 77 77 70 66 69 69 71 70 64 61 63 63 60 55 44 43 43 41 48 42 41 40 38 34 34 34 32 32 31 31 25 23 25 22 18 18 19 21 27 28 33 28
86 85 84 81 74 74 78 78 75 77 74 69 66 63 61 58 56 49 44 40 54 50 50 47 40 41 38 34 35 36 36 30 27 27 28 25 23 24 24 28 32 32 34
98 94 91 89 87 82 83 85 82 85 83 82 75 76 72 71 63 62 60 58 61 57 52 50 47 44 42 36 38 36 36 35 30 27 31 32 27 29 27 29 29 29 31
107 103 99 97 95 93 91 89 93 90 86 89 88 87 86 85 80 78 74 70 67 62 59 55 54 50 47 40 38 36 32 32 32 33 32 33 28 31 32 32 30 29 30
112 111 109 107 105 103 102 100 100 100 100 101 101 99 96 93 92 88 88 83 72 64 64 61 60 58 54 48 45 41 37 35 33 33 35 35 31 32 36 34 32 30 29
108 109 109 108 108 108 107 106 106 107 108 108 107 106 105 104 102 96 90 83 73 66 65 64 63 63 61 58 50 48 44 43 40 37 36 37 35 32 37 36 34 31 31
110 109 109 109 109 109 110 110 110 111 110 112 112 111 110 108 104 100 91 85 79 72 69 67 68 66 65 63 60 54 52 47 46 44 40 40 38 37 39 37 35 35 33
117 117 116 114 113 112 111 112 112 112 112 113 113 112 111 109 105 101 96 90 86 80 78 74 72 72 71 69 68 64 60 57 52 50 48 46 44 40 43 40 40 36 32
122 122 122 122 121 120 119 118 117 117 115 115 114 113 111 109 107 104 101 98 92 87 86 84 81 78 77 76 73 73 69 65 59 56 54 53 51 48 46 44 41 40 39
130 128 127 127 126 125 125 124 124 124 124 122 121 119 118 115 113 112 109 106 104 101 95 91 90 88 84 83 80 77 78 76 71 66 64 62 60 56 54 51 48 47 48
136 135 134 134 133 132 131 130 130 129 128 128 127 125 123 122 121 119 117 114 111 109 106 99 95 93 92 91 88 84 83 83 83 77 72 71 68 65 61 57 53 50 52
138 139 139 140 141 141 140 139 138 137 136 135 134 133 131 129 126 123 121 118 116 112 110 106 101 97 96 95 94 92 89 88 87 88 82 77 76 73 69 65 59 59 57
132 135 138 140 141 142 142 142 143 143 144 144 144 143 142 139 136 134 131 129 125 121 117 113 109 105 102 100 97 95 96 94 94 91 92 90 83 82 79 76 72 68 65
121 124 128 131 134 137 140 142 143 144 144 143 143 143 143 143 143 142 141 140 138 134 129 124 120 116 113 107 103 101 98 99 99 98 96 96 96 91 88 86 83 79 74
116 119 121 123 125 126 128 129 131 134 135 137 138 139 142 143 144 143 141 140 140 138 135 132 130 127 124 120 116 111 104 102 102 103 102 101 100 100 97 94 93 91 87
105 107 109 112 115 116 119 120 122 123 124 124 123 123 126 128 128 129 129 131 133 134 133 132 130 131 133 130 127 125 120 112 109 109 108 106 105 105 105 103 101 99 97
92 93 96 98 99 102 103 103 103 103 103 105 104 106 112 117 119 119 120 121 122 122 123 124 127 129 132 133 132 132 130 126 120 117 114 113 110 109 110 110 109 106 104

GFSGL_250_spd_099.txt.gz
Wind_Speed
22 19 21 20 17 17 16 16 14 11 10 13 13 16 20 16 15 13 16 15 14 18 22 21 21 21 18 18 16 14 12 10 10 9 8 9 8 9 14 18 17 13 9
20 19 18 21 16 11 15 22 19 20 15 13 11 11 14 16 17 15 15 14 11 11 16 17 16 19 19 17 15 14 12 10 8 7 5 6 6 9 15 17 15 13 12
27 22 15 21 18 13 10 11 13 12 21 23 20 11 11 14 16 17 15 12 12 10 13 13 15 14 16 15 14 13 12 9 6 5 5 5 6 11 14 15 16 13 14
36 31 25 24 24 21 16 17 18 17 14 19 13 24 12 11 13 15 15 14 12 13 11 12 12 13 15 14 12 10 9 9 7 5 3 3 7 10 13 13 12 13 15
43 46 42 41 34 30 27 24 24 23 19 18 15 14 22 22 17 15 15 12 10 12 11 10 9 11 11 13 14 11 9 6 5 3 2 2 5 11 14 13 13 16 14
51 50 48 50 40 32 34 32 30 27 27 28 20 15 20 22 26 24 21 9 11 12 13 14 14 13 13 13 15 13 10 7 3 4 4 6 7 10 14 15 15 15 17
55 54 52 52 41 39 38 39 38 37 33 33 28 25 23 19 25 24 21 24 19 14 16 18 23 21 18 18 20 19 15 12 12 10 11 12 13 14 16 19 21 19 19
63 63 60 56 51 49 52 48 43 44 39 37 38 36 34 30 29 26 25 21 19 17 21 21 22 25 25 24 25 26 23 19 18 17 15 15 16 16 19 19 22 23 24
69 67 69 63 54 50 53 46 49 48 47 45 45 41 42 39 38 38 29 26 24 26 22 27 26 28 29 30 30 31 30 27 25 25 22 18 17 21 21 25 23 28 28
80 79 71 69 65 60 56 59 50 49 54 53 50 50 50 48 44 45 38 39 37 34 32 31 24 34 34 33 38 35 34 34 33 30 28 26 24 23 24 26 29 31 28
85 86 84 75 70 67 68 62 67 55 56 58 60 61 60 60 57 55 54 54 47 42 42 37 28 30 41 41 37 40 39 35 33 33 34 33 28 29 27 26 30 34 37
93 95 91 89 81 78 75 73 71 72 72 73 71 69 70 70 70 69 69 65 62 59 53 50 47 45 44 48 48 41 39 37 35 36 38 39 35 32 31 33 35 35 36
103 104 100 93 89 83 81 82 81 79 78 76 78 83 82 81 78 77 72 69 67 67 71 71 63 58 56 59 53 51 48 45 40 40 41 43 40 37 35 34 38 40 38
110 110 112 112 105 95 92 92 90 92 90 87 86 89 89 88 87 84 84 84 86 86 80 74 74 74 72 67 66 58 57 53 50 48 45 46 45 43 39 37 37 42 42
118 118 118 117 118 114 108 101 100 101 102 100 95 94 95 94 93 90 91 88 81 83 89 88 86 84 83 77 75 69 66 59 57 54 53 50 48 46 47 42 37 40 45
122 124 125 126 122 118 117 116 113 111 110 109 107 105 104 105 103 100 98 100 101 104 103 101 99 96 92 85 82 76 71 66 61 60 56 56 54 52 49 48 44 41 47
118 122 127 131 131 129 127 125 124 121 121 121 120 117 113 112 114 114 111 110 108 109 109 108 106 106 101 98 92 85 77 72 67 63 64 61 59 59 56 54 50 47 48
124 123 123 123 125 125 126 129 133 133 132 130 128 127 126 125 124 124 122 120 119 117 115 115 115 113 109 103 97 90 81 78 72 69 67 67 65 62 62 59 57 53 52
132 132 132 131 130 128 128 127 127 127 127 126 126 126 125 124 124 124 123 123 121 120 119 117 116 115 111 106 100 91 85 82 81 78 73 72 71 69 68 68 64 61 57
131 132 134 135 135 134 133 132 130 130 131 131 131 131 129 127 127 126 125 123 122 121 121 119 116 114 110 107 103 97 90 85 85 85 84 80 78 76 76 74 73 69 65
130 131 133 134 135 137 139 139 138 137 136 135 136 136 135 134 133 131 130 130 128 126 125 124 122 119 116 114 111 107 104 100 94 93 91 90 88 85 81 82 80 76 74
126 128 131 133 134 136 137 138 139 141 142 143 143 144 143 142 140 139 138 137 134 132 130 127 126 124 122 118 115 114 112 109 106 102 98 96 95 94 91 87 87 87 83
119 120 122 125 128 131 134 137 138 139 140 142 144 146 147 147 147 146 146 145 144 143 140 138 135 132 130 126 123 120 117 114 111 108 104 100 99 99 98 96 95 92 93
113 115 117 119 121 124 127 129 132 135 138 140 142 142 143 144 144 144 145 146 147 147 148 146 144 141 138 136 133 130 128 126 122 118 113 107 103 102 102 102 102 101 98
110 111 113 115 116 118 119 121 123 126 129 131 134 137 138 137 137 136 138 140 140 141 141 141 140 139 139 137 135 134 134 134 132 130 126 121 115 110 108 108 108 107 105
97 100 103 106 109 111 113 115 117 119 120 123 124 125 123 122 123 127 129 129 128 128 129 131 132 133 133 133 133 133 132 131 131 131 132 130 128 123 119 117 115 113 111

GFSGL_250_spd_102.txt.gz
Wind_Speed
23 18 14 11 13 12 9 7 8 10 11 11 10 8 14 14 17 17 16 15 13 18 18 17 19 19 18 18 16 14 13 11 10 8 7 9 11 12 15 15 12 7 5
28 20 18 17 15 16 10 9 6 3 4 7 14 15 5 9 13 15 16 14 12 14 16 18 15 16 16 15 14 13 11 10 9 8 7 9 12 14 13 12 8 3 5
34 25 17 14 19 15 15 16 8 9 9 7 13 14 11 9 12 10 10 12 8 8 14 17 17 17 14 13 13 11 12 10 10 11 8 9 12 14 11 9 5 8 10
41 36 32 25 21 23 17 21 16 12 13 16 10 12 8 12 12 11 8 10 7 4 3 6 13 19 17 18 13 11 10 9 7 7 6 5 10 11 12 11 7 7 11
44 42 40 33 28 27 23 25 25 23 22 19 18 17 14 12 9 14 15 8 10 6 6 4 7 14 16 19 19 17 10 9 9 8 5 2 3 7 10 13 10 10 12
43 45 42 40 40 38 36 34 32 34 31 27 20 22 24 18 14 15 11 17 14 12 9 6 4 12 17 17 21 21 19 12 9 10 9 7 8 11 12 12 14 16 15
50 52 47 49 48 46 46 43 40 40 37 35 33 28 28 26 25 22 18 16 17 16 12 13 4 8 12 15 19 22 23 20 16 11 14 14 13 13 16 16 17 17 16
50 47 50 51 49 54 55 50 48 46 47 45 45 40 36 33 33 33 31 24 20 21 16 15 12 5 12 14 15 20 24 23 21 20 17 14 17 18 19 20 22 24 24
57 56 55 55 53 56 58 57 54 55 47 51 53 48 42 39 39 36 37 36 31 30 25 21 17 15 14 15 13 22 24 26 26 24 21 17 16 19 23 24 25 29 29
69 62 65 64 60 62 62 58 60 61 61 55 60 56 51 47 45 44 42 40 44 42 35 32 31 30 22 22 22 21 33 30 31 30 30 26 18 18 19 28 31 34 35
77 78 70 67 67 71 70 67 66 67 70 59 59 57 57 52 49 49 47 45 45 49 42 42 39 36 39 38 35 32 40 44 40 34 34 33 30 25 24 24 33 36 38
84 83 80 77 75 77 76 76 75 73 75 75 70 67 60 58 54 56 57 55 54 54 52 52 55 56 55 49 43 43 39 38 51 45 41 39 42 39 38 33 30 34 38
91 91 94 89 89 89 83 81 80 85 86 83 80 80 77 70 70 61 62 63 65 65 65 66 67 66 66 65 62 57 59 59 60 56 52 50 45 46 45 41 37 35 39
117 102 95 94 91 93 95 96 91 90 86 86 88 84 80 74 74 74 75 77 75 75 72 73 73 75 72 72 70 68 69 71 65 61 59 59 55 55 53 53 47 42 41
120 121 119 112 100 97 96 95 100 98 97 95 94 90 92 93 88 84 84 84 83 82 82 81 80 79 80 76 79 77 76 74 73 72 72 71 71 66 61 57 58 52 48
115 115 114 112 112 108 104 103 103 105 106 105 102 100 97 93 92 96 93 90 94 92 92 92 90 90 87 84 82 81 80 81 76 81 82 81 81 76 74 67 62 61 56
120 118 115 115 114 111 118 115 109 110 114 113 116 111 108 106 105 102 99 88 92 86 86 88 98 98 97 94 92 88 90 88 92 96 94 91 88 87 81 77 68 65 62
123 123 122 121 119 118 118 118 120 122 122 122 123 124 122 121 118 116 114 110 108 106 106 107 102 103 106 106 105 106 103 103 102 102 102 101 96 92 89 85 77 70 65
124 125 128 128 127 126 124 123 122 123 127 128 128 130 131 132 132 132 129 127 123 121 120 116 112 113 115 116 118 118 114 112 113 112 111 108 105 100 95 89 81 73 71
126 127 128 129 130 132 133 132 131 129 128 128 127 129 135 141 141 140 139 136 135 135 132 131 130 130 130 129 129 130 129 127 123 118 112 107 103 99 94 88 82 77 77
126 128 130 131 131 132 133 133 134 135 136 136 135 133 131 133 139 144 144 145 145 145 143 143 142 139 137 136 134 131 127 124 122 117 113 110 104 98 92 86 82 82 81
128 128 128 128 129 130 132 134 135 136 137 139 140 142 141 141 141 141 141 143 144 145 144 144 143 141 140 137 135 133 130 127 124 122 121 119 116 110 104 97 94 89 87
124 126 127 128 129 129 129 129 130 132 134 136 138 141 142 144 146 148 149 149 149 150 149 149 148 147 146 145 142 141 137 135 132 130 127 125 124 120 116 110 104 99 96
113 114 116 117 118 120 121 122 123 125 127 129 132 135 137 139 141 143 146 149 151 152 153 152 152 151 151 151 151 149 147 144 141 139 137 134 132 129 126 122 118 113 106
109 110 111 112 113 114 115 115 115 117 118 119 121 124 128 131 135 138 141 143 145 146 146 146 147 146 146 145 145 146 145 144 144 143 142 141 139 139 137 133 129 125 119
101 103 105 107 109 109 110 110 110 111 112 112 113 114 117 120 124 128 131 132 132 132 134 135 136 137 137 137 136 136 137 138 139 139 137 136 136 136 137 137 136 134 130

GFSGL_250_spd_105.txt.gz
Wind_Speed
22 18 15 12 9 9 6 6 1 2 6 7 10 10 14 17 17 18 17 16 16 19 17 16 16 15 15 14 14 13 13 11 8 9 12 14 14 10 11 10 7 7 7
31 27 23 20 14 13 11 10 9 6 4 5 2 7 10 10 13 11 12 11 13 12 15 18 18 18 19 18 15 15 15 14 12 8 6 12 12 8 7 7 2 2 2
37 35 28 22 18 16 15 14 13 11 9 6 7 2 3 3 8 9 9 8 5 7 10 14 15 18 20 20 16 16 17 16 13 8 8 9 10 9 6 4 3 3 8
42 39 34 30 27 23 22 21 17 14 13 12 10 10 5 7 4 2 4 8 8 2 3 4 6 14 16 20 21 19 13 13 15 10 3 6 7 8 5 4 3 5 6
44 38 38 35 35 32 29 28 25 22 21 20 17 17 16 13 11 9 4 2 4 6 5 4 2 8 13 16 17 17 16 12 10 14 5 3 5 8 10 10 8 7 7
46 44 40 44 46 43 38 35 33 29 25 24 25 23 24 19 17 17 14 10 7 9 7 3 6 4 5 9 13 18 16 14 14 12 12 8 6 11 12 13 15 15 13
57 57 53 48 47 49 50 44 40 37 37 35 34 31 29 31 25 22 21 20 20 17 16 15 11 5 6 4 3 8 15 15 20 16 13 11 10 9 12 17 19 17 16
59 59 61 57 52 56 54 52 51 45 47 43 39 37 37 36 36 35 33 28 30 29 25 23 19 16 14 11 6 4 4 15 24 23 23 16 13 13 14 14 20 22 22
71 69 69 62 56 58 59 55 54 52 46 49 48 46 46 49 50 43 41 40 38 37 29 32 30 28 26 22 14 15 10 25 25 28 25 23 21 16 17 18 19 24 25
75 74 72 65 64 64 67 61 56 54 53 46 49 55 56 55 55 57 49 45 45 44 38 34 37 36 31 32 32 28 22 22 26 24 26 28 31 29 22 23 24 25 28
76 79 79 71 66 66 69 66 66 62 59 58 54 55 56 56 55 57 60 56 51 53 47 43 40 42 38 38 37 33 31 36 34 31 28 44 42 35 34 28 25 28 32
86 85 87 82 77 73 71 72 70 66 67 68 63 61 59 63 64 64 64 64 62 56 56 53 49 46 47 47 43 42 44 42 37 40 46 46 47 39 36 37 37 34 31
93 92 95 92 90 85 84 81 79 78 73 72 70 69 67 66 71 71 69 70 67 66 65 62 59 57 58 55 54 52 53 57 57 57 57 58 54 52 43 40 44 45 47
102 101 101 99 96 91 90 88 89 88 84 81 75 76 73 73 73 75 79 80 78 80 77 75 73 73 66 64 63 64 63 61 62 62 62 62 63 60 58 51 46 47 50
104 108 109 106 103 100 98 97 95 93 92 90 88 87 84 81 84 82 77 79 86 86 86 82 75 75 77 74 72 70 72 73 69 66 67 66 63 66 65 62 58 56 55
106 108 117 115 112 113 112 107 103 97 99 100 99 98 89 92 91 90 90 87 77 81 88 81 73 77 80 81 82 81 78 79 77 77 79 77 75 73 74 73 71 67 67
114 112 111 116 120 121 121 119 118 116 110 106 104 108 106 105 100 100 103 98 98 87 83 88 97 97 98 99 101 99 99 96 91 86 85 86 85 82 78 79 82 82 78
114 117 118 117 117 118 125 129 128 127 124 123 123 125 125 119 111 112 108 106 109 111 111 112 105 96 102 95 97 97 99 98 98 90 85 85 81 78 80 85 87 82 89
116 117 118 120 123 125 124 125 128 130 133 132 130 127 127 128 130 129 127 119 117 118 121 121 119 119 114 112 111 112 105 105 101 94 91 85 83 86 94 96 99 102 99
115 117 118 122 123 125 127 130 132 132 131 131 130 129 129 128 127 127 126 125 123 126 126 126 124 124 127 128 126 128 127 115 118 111 110 114 120 116 113 108 110 112 110
115 115 116 118 119 122 125 128 131 132 132 133 135 136 137 136 135 135 133 132 131 128 132 136 137 137 135 133 132 134 137 136 137 135 134 135 136 134 126 124 125 127 123
119 119 119 119 119 119 120 123 127 130 133 135 136 137 137 138 139 140 140 140 140 139 138 138 138 137 137 138 141 142 140 140 140 141 140 140 138 138 137 137 137 134 131
124 123 124 124 124 123 123 123 123 122 124 127 130 134 137 139 140 141 141 141 142 142 144 145 146 146 145 145 144 143 145 145 144 144 144 143 142 142 143 142 139 136 134
121 123 126 128 130 129 130 131 131 129 128 127 127 127 127 128 130 133 135 137 140 142 144 145 146 147 146 145 145 147 149 148 149 149 149 148 147 145 145 144 142 140 138
110 112 113 114 115 116 116 117 116 117 117 117 118 118 118 117 117 118 119 122 125 128 132 136 140 141 142 142 143 144 144 146 148 148 147 147 148 149 148 147 146 145 144
105 106 106 107 108 108 109 110 110 110 111 111 112 111 111 111 111 111 111 111 112 115 118 120 121 120 121 127 132 134 136 137 135 135 135 136 138 140 140 139 139 140 140

GFSGL_250_spd_108.txt.gz
Wind_Speed
16 14 11 9 8 9 5 7 2 2 4 3 7 8 9 12 13 14 16 18 16 19 18 17 19 23 21 17 15 14 12 10 10 13 11 12 10 8 4 3 6 5 5
20 19 17 17 14 15 13 13 10 7 7 4 4 1 3 3 7 8 8 14 15 14 16 16 20 20 24 21 21 17 14 13 10 10 11 10 7 3 1 3 8 10 3
26 24 22 23 22 19 19 18 18 16 12 9 3 3 6 4 3 4 6 6 5 7 9 10 14 19 21 22 21 18 17 14 10 6 6 9 9 5 1 1 7 4 2
34 30 29 26 20 22 21 19 23 21 20 14 12 7 5 9 7 4 2 1 1 1 2 1 5 13 14 19 20 20 18 17 13 7 3 3 6 7 4 4 5 3 6
41 35 33 36 32 30 29 29 28 26 25 23 17 15 14 13 13 11 9 8 5 3 7 5 1 6 9 13 13 15 15 18 15 14 8 5 7 8 9 7 6 7 12
53 46 45 45 42 36 36 35 34 33 32 30 27 23 24 22 19 14 14 13 12 13 11 9 9 7 7 9 9 11 13 9 18 18 15 11 6 7 10 12 12 11 11
59 60 52 47 49 46 43 39 37 40 38 39 38 35 32 31 27 24 23 18 18 18 18 17 18 17 14 9 6 3 4 9 15 13 17 17 14 13 13 12 15 19 16
65 59 55 52 53 51 50 48 42 40 44 45 48 46 39 39 37 34 30 29 29 25 25 26 25 23 27 20 16 14 13 8 10 15 14 14 12 18 19 21 20 16 15
68 66 62 59 58 58 60 54 54 43 42 48 58 56 50 43 42 41 39 38 38 38 36 33 32 32 26 32 27 21 23 18 16 17 14 15 18 24 22 21 21 19 18
76 77 74 66 68 68 61 64 63 63 58 56 58 64 63 55 53 51 47 46 46 45 44 41 42 40 37 33 35 41 39 38 34 32 24 19 20 23 27 25 23 24 21
81 76 75 71 73 75 74 77 74 63 62 56 57 62 68 67 58 57 56 55 55 50 44 46 48 46 46 45 43 41 39 46 43 40 39 33 27 27 31 27 29 26 26
78 74 75 76 76 78 78 79 77 69 71 68 66 64 70 69 58 59 62 59 58 57 51 48 49 51 52 52 50 52 50 47 47 47 44 41 39 36 37 44 37 31 32
85 83 82 80 82 84 80 81 81 80 77 76 68 70 69 77 73 70 68 67 63 63 58 57 56 58 57 56 56 59 59 56 54 52 54 52 51 46 51 51 51 48 39
96 91 91 90 89 90 89 88 89 84 82 80 78 77 78 78 80 81 79 76 69 68 69 67 64 64 64 65 65 65 66 63 67 65 65 64 64 64 60 58 58 55 50
102 107 101 97 96 94 95 97 99 92 86 86 86 82 81 79 81 83 82 80 75 75 74 71 71 71 71 69 70 71 73 73 74 74 73 74 71 73 73 72 66 61 58
104 107 113 116 112 106 103 103 100 98 102 98 95 100 95 95 93 88 89 90 87 92 89 92 86 80 77 78 78 77 74 76 79 78 79 77 74 79 81 78 78 74 69
110 110 110 110 114 119 119 111 110 110 108 110 108 106 107 111 106 104 106 105 104 101 97 96 94 90 93 94 88 87 87 88 91 90 81 83 81 73 84 84 85 86 91
110 112 115 115 116 116 116 120 120 119 119 119 117 114 116 114 113 111 110 110 111 108 107 106 107 103 103 99 93 90 96 90 88 90 91 93 95 98 100 100 100 96 98
112 112 113 114 117 119 121 122 123 123 122 120 118 115 118 123 122 125 122 120 119 119 116 116 115 113 114 112 110 109 104 103 96 98 101 99 100 100 104 104 104 103 96
112 111 112 114 115 116 118 119 121 122 123 124 124 123 122 122 126 130 133 132 131 129 130 133 133 130 126 125 123 126 122 119 119 120 119 119 116 113 108 112 102 98 109
110 114 115 113 110 110 112 114 116 119 121 123 123 124 126 128 130 131 131 133 136 137 136 140 141 141 140 140 140 138 140 142 138 134 135 133 133 131 130 125 126 123 125
109 111 113 116 116 115 115 114 114 114 115 116 118 121 124 127 130 131 133 134 136 139 141 141 141 142 145 148 149 150 147 146 143 140 138 136 136 133 133 132 130 130 128
115 116 116 117 118 118 119 118 118 117 117 117 117 118 120 120 122 125 128 131 134 138 140 142 143 145 146 147 148 150 150 149 148 147 145 144 144 144 143 141 139 137 137
119 120 121 121 122 121 120 120 119 118 118 118 118 118 118 118 119 120 122 125 127 130 133 137 139 140 143 146 147 149 149 148 146 146 145 144 144 143 144 144 145 145 145
126 127 128 128 128 129 129 128 126 124 123 122 122 122 122 122 121 121 121 121 122 123 125 127 130 133 137 141 143 145 145 145 143 142 141 141 141 142 142 143 143 143 143
112 114 117 119 120 121 121 120 120 118 117 115 114 112 112 112 113 113 113 112 112 112 112 113 113 114 115 115 116 116 113 116 122 127 128 126 128 128 128 127 128 127 128

GFSGL_250_spd_111.txt.gz
Wind_Speed
14 13 11 10 8 8 10 8 4 4 3 4 7 6 9 13 14 16 19 20 22 22 23 23 21 22 22 17 14 10 9 9 11 10 7 7 5 2 7 9 14 11 9
18 17 16 16 13 13 13 15 12 11 8 7 6 4 7 6 8 8 8 10 10 13 16 21 25 23 20 19 18 15 10 6 8 9 7 6 3 2 3 8 11 10 11
25 24 20 19 19 18 18 18 19 19 18 10 6 1 3 4 4 3 6 7 3 7 11 12 19 25 23 23 21 20 16 12 6 4 5 6 7 4 2 4 6 8 12
32 27 26 23 22 22 20 22 23 20 24 19 16 14 10 7 4 5 5 4 4 6 7 7 10 14 18 17 22 22 16 18 15 10 5 2 5 7 5 4 3 2 7
39 35 32 32 27 25 22 23 25 26 27 25 22 20 18 14 8 11 12 10 8 6 7 5 5 6 5 7 10 15 16 15 20 19 15 12 8 6 6 5 5 7 9
45 43 38 36 35 30 28 28 31 33 32 31 28 26 26 24 22 18 16 14 13 14 16 15 12 10 7 1 7 8 9 12 11 16 15 16 18 16 16 13 9 10 10
51 49 48 46 44 43 43 37 33 36 39 35 37 35 32 31 31 29 24 23 19 19 19 19 17 16 17 17 13 16 7 6 9 9 11 9 13 19 16 19 15 14 12
65 57 56 55 54 51 50 51 48 44 47 47 46 40 40 41 41 40 40 32 26 27 30 24 24 24 22 22 24 21 19 15 18 13 20 13 12 20 14 19 14 13 12
72 68 67 63 62 58 58 57 53 47 51 55 51 45 48 48 47 46 47 46 43 37 35 34 33 33 32 33 31 29 27 28 27 27 29 26 24 22 20 15 14 17 15
79 75 72 68 68 69 67 64 59 52 54 58 61 54 54 54 47 48 50 53 55 53 48 43 42 41 41 36 38 37 37 33 33 36 32 37 37 33 29 36 25 21 20
75 78 81 79 79 79 76 73 65 61 62 62 66 68 63 60 58 59 56 55 59 60 62 58 54 51 48 47 43 41 39 43 43 45 42 42 42 41 38 41 39 32 31
72 72 78 81 82 81 77 78 77 77 71 69 71 74 74 69 67 67 65 59 60 61 65 66 63 60 60 56 50 46 45 44 44 48 49 48 51 50 49 45 42 47 47
91 85 80 82 77 80 86 81 82 80 78 74 82 83 80 82 77 73 69 70 66 66 66 71 69 68 65 62 60 57 53 52 52 50 52 55 52 55 55 54 49 54 54
107 96 96 93 93 87 89 86 85 84 81 77 80 85 84 87 85 79 79 79 79 75 73 73 74 75 74 72 68 67 64 62 60 60 61 61 59 58 57 59 61 59 58
110 107 105 101 99 90 87 90 86 85 84 87 86 83 89 86 87 90 86 88 87 82 79 79 77 77 77 81 83 79 76 76 74 74 75 73 69 64 65 65 69 69 69
106 105 105 104 104 106 105 101 86 88 89 89 91 89 92 94 95 90 89 89 90 93 91 86 87 85 87 86 79 83 88 85 83 74 75 74 72 71 73 72 72 81 79
110 109 108 106 105 105 105 108 110 107 103 98 100 99 98 98 101 102 100 97 98 96 93 91 90 88 82 82 85 86 87 89 86 86 89 87 85 84 85 82 79 82 88
112 112 111 111 111 110 108 112 111 115 113 114 114 112 111 110 107 108 109 109 108 111 112 101 99 104 106 105 106 107 105 105 100 100 99 100 100 101 102 100 97 93 95
112 112 113 113 113 114 115 115 116 116 118 121 119 116 115 116 117 117 118 117 117 115 115 117 120 119 116 117 121 121 114 112 115 115 118 117 110 103 102 100 100 100 102
110 111 112 112 115 117 116 117 118 120 121 122 123 122 121 121 120 126 128 129 132 132 128 127 130 133 127 126 125 128 129 129 128 128 123 126 123 119 118 117 113 107 106
103 106 107 105 115 117 116 116 116 118 118 119 119 121 121 122 124 127 130 131 132 133 134 134 134 134 135 136 137 137 135 132 135 138 139 138 138 136 132 130 126 128 128
103 103 105 107 109 110 113 113 114 118 118 116 115 118 119 120 122 124 127 128 130 131 132 134 135 136 138 139 139 140 140 141 140 140 143 147 146 148 147 144 142 139 141
104 105 104 105 106 108 109 112 114 114 116 115 116 118 120 119 120 121 122 123 124 126 127 129 129 130 131 133 134 136 138 139 141 143 144 146 148 149 148 149 151 153 152
110 109 108 108 107 110 112 113 113 116 117 115 117 118 119 119 120 121 122 122 123 124 125 126 127 129 131 132 133 135 137 139 141 141 142 143 144 145 146 147 148 146 146
116 117 116 115 116 115 115 117 119 118 119 119 119 121 121 121 121 121 122 123 122 121 120 120 121 123 124 126 128 130 133 135 137 138 139 140 140 141 142 142 142 143 144
120 122 124 123 125 124 123 124 126 127 126 127 128 128 128 128 126 124 124 123 121 119 116 115 115 116 119 121 122 123 123 123 123 122 122 120 123 128 128 127 127 128 127

GFSGL_250_spd_114.txt.gz
Wind_Speed
15 14 12 9 9 8 7 3 6 5 3 7 7 8 9 9 9 12 15 24 25 27 28 30 26 25 22 17 13 12 11 10 8 3 1 1 5 10 15 14 12 10 7
18 19 16 14 13 12 12 9 8 10 10 12 11 9 6 5 8 10 13 13 18 21 24 26 26 25 26 22 16 10 10 9 6 4 5 4 6 8 10 10 7 10 6
24 24 21 19 18 16 13 14 13 13 13 15 15 10 10 4 5 4 9 9 6 14 11 17 19 20 21 20 18 18 11 5 3 4 4 6 6 7 7 6 6 7 8
33 33 29 25 24 21 19 18 16 16 18 18 18 18 16 11 8 8 9 11 11 7 9 12 6 10 11 14 17 16 17 17 14 9 4 2 4 6 6 7 9 7 7
43 37 39 33 29 25 23 22 20 18 19 19 21 22 23 15 12 7 19 19 15 17 12 9 10 9 12 7 6 12 9 13 14 12 14 15 14 15 12 6 7 9 12
51 46 43 38 30 27 27 28 28 26 23 22 25 25 26 24 20 17 17 15 18 14 23 21 17 11 12 8 7 11 13 9 11 6 6 8 12 13 11 15 9 7 7
58 59 49 46 43 35 34 29 33 32 22 25 28 28 28 28 29 25 27 25 24 27 31 27 24 21 20 16 17 15 14 15 13 14 13 8 10 11 12 18 12 9 7
62 64 61 51 50 51 46 47 46 42 43 40 41 37 35 39 38 37 38 35 37 39 37 37 36 30 28 26 24 24 25 21 22 21 22 20 25 23 23 18 17 12 13
65 67 66 61 59 54 55 56 55 53 51 51 49 49 49 41 42 47 47 43 43 45 44 42 42 43 39 40 35 31 29 28 31 30 29 29 29 28 31 27 25 22 18
72 68 71 71 66 66 62 59 62 61 58 55 55 54 53 53 51 43 51 53 51 50 50 49 48 47 50 49 45 45 42 42 35 37 36 34 36 34 34 38 35 34 33
86 81 75 74 74 71 70 72 72 70 65 65 66 67 61 58 55 54 57 55 63 59 60 58 51 53 54 54 55 56 54 51 48 45 41 41 43 41 39 41 44 44 41
86 82 82 81 82 77 80 79 76 77 73 72 72 71 72 71 66 67 66 67 63 64 65 63 63 58 61 61 58 59 59 58 57 56 54 49 47 47 44 42 46 45 46
94 93 86 88 89 88 88 83 82 85 79 83 84 83 78 77 71 67 69 67 72 67 73 73 72 72 72 69 66 67 64 64 62 62 65 61 58 58 56 55 52 53 56
96 91 87 85 79 77 72 79 87 89 86 84 85 85 87 83 81 79 75 78 76 77 75 81 81 83 83 78 76 73 74 72 71 69 67 68 67 68 67 63 62 62 65
111 112 112 105 98 92 89 82 82 85 83 83 83 83 83 84 83 81 82 82 83 82 84 88 89 88 86 86 81 81 83 81 78 77 76 74 75 75 76 79 79 75 74
121 124 125 124 115 115 109 104 101 95 94 94 91 87 89 86 89 91 88 86 87 84 85 91 91 91 92 94 92 91 86 87 92 91 87 85 85 83 80 85 78 78 77
126 128 124 118 116 120 117 115 111 113 111 101 98 95 92 99 98 101 99 93 92 93 92 97 92 100 101 99 98 97 94 92 93 95 96 94 89 96 91 83 91 89 85
124 125 125 122 119 124 120 119 120 121 122 120 116 116 118 116 112 109 101 97 97 100 97 95 104 109 105 103 101 99 104 106 104 106 102 99 99 92 94 86 89 95 96
123 123 124 123 123 127 126 124 123 123 122 122 123 122 121 121 120 120 117 116 116 114 114 118 115 111 113 114 112 113 112 115 116 115 110 113 114 114 112 110 112 114 108
122 126 126 126 128 128 126 126 127 127 127 126 124 122 123 124 123 123 121 121 121 121 118 122 121 118 120 122 125 126 126 125 125 125 125 126 124 118 118 124 126 128 127
118 121 122 123 125 126 126 125 125 125 124 124 123 124 125 125 124 124 124 124 122 123 125 125 126 125 124 129 135 136 135 132 131 130 135 137 138 142 137 139 137 138 140
112 115 117 117 118 120 120 121 121 122 122 122 122 124 124 126 125 124 123 123 124 124 125 125 125 126 128 130 133 134 134 135 135 136 136 138 141 144 144 144 144 146 146
111 111 114 115 114 113 113 114 114 114 114 114 113 116 116 117 118 120 120 121 121 122 124 124 123 126 128 129 130 129 131 132 133 134 137 139 140 141 143 143 145 145 146
112 112 112 113 112 112 113 112 112 112 112 113 113 113 116 118 120 121 122 122 122 122 122 122 122 122 123 124 126 127 129 130 132 135 138 139 141 143 144 145 147 148 147
114 115 115 117 117 117 117 118 116 116 115 114 114 114 114 115 118 118 118 118 118 117 119 117 118 120 117 115 118 118 120 121 121 123 126 128 131 134 137 141 142 142 142
119 120 121 121 122 122 122 122 122 122 120 119 119 119 119 118 120 121 121 121 123 123 124 124 125 126 127 125 126 126 124 121 119 119 119 119 120 120 121 122 124 124 123

GFSGL_250_spd_117.txt.gz
Wind_Speed
15 15 13 10 6 3 4 6 8 7 8 10 13 11 9 8 10 13 19 22 26 28 28 31 28 20 13 10 6 4 3 4 4 3 6 9 9 11 9 11 8 1 7
22 21 20 17 13 9 7 5 8 9 11 10 8 9 8 7 7 8 12 14 17 20 23 25 28 27 23 17 8 5 5 5 4 7 8 9 10 10 9 9 5 3 5
27 27 25 20 16 13 11 9 11 12 12 13 14 12 12 9 8 6 9 12 12 11 9 15 17 18 20 20 21 15 9 5 6 8 6 7 10 8 11 10 8 8 5
33 37 26 22 21 16 15 15 13 14 13 15 15 14 14 11 12 10 6 6 12 10 10 7 8 10 9 9 12 11 13 14 15 10 10 9 12 11 10 12 11 12 12
21 31 25 25 25 21 19 17 19 19 17 14 16 14 13 15 16 16 16 10 13 14 12 11 8 6 5 3 2 5 10 10 13 11 7 9 11 10 15 20 13 13 16
48 42 40 36 24 27 27 22 25 23 20 22 24 25 19 18 21 23 20 20 15 14 12 9 14 17 14 12 13 13 9 14 13 11 12 11 4 9 13 16 17 18 15
45 44 44 43 44 42 37 35 29 29 29 33 31 33 29 24 20 24 25 25 24 22 23 27 27 23 21 22 22 23 23 20 16 15 19 20 16 20 18 19 16 14 16
53 56 52 51 53 52 46 42 39 40 33 34 44 40 30 30 31 33 32 31 33 32 33 33 34 34 34 32 33 34 31 31 31 26 24 29 28 28 28 25 25 25 17
74 74 69 63 66 64 60 54 54 47 47 48 50 50 48 50 49 49 47 42 37 33 39 43 45 43 41 40 39 38 38 39 40 37 38 36 35 37 37 34 35 33 31
83 78 78 74 71 69 67 60 62 60 58 59 59 58 63 59 56 58 55 54 50 47 43 43 40 43 47 52 54 47 47 43 42 44 48 48 48 46 42 40 39 39 38
77 82 80 70 72 70 71 66 66 68 68 69 63 63 65 65 64 66 61 62 58 57 55 52 50 54 53 53 57 59 57 51 49 49 51 53 53 55 53 52 51 49 46
83 83 78 70 69 72 77 78 75 78 76 75 72 74 71 70 72 70 70 65 69 67 66 60 59 64 66 62 55 58 61 62 63 61 60 62 61 56 57 54 56 57 56
91 91 87 86 83 83 81 79 82 81 82 81 82 81 82 78 74 75 73 75 73 78 75 72 69 66 70 70 64 64 63 68 68 69 70 71 68 65 64 66 64 60 57
99 94 97 92 92 90 95 92 88 87 86 91 88 84 88 85 81 83 83 81 81 86 86 84 80 77 73 76 71 74 73 72 73 76 78 76 75 73 73 73 72 69 68
108 104 98 94 98 93 91 90 91 94 90 90 92 90 92 95 92 87 91 91 84 85 85 82 81 86 86 78 81 78 79 80 82 80 82 83 78 75 75 76 78 76 75
127 116 116 110 107 104 111 103 102 96 96 98 95 105 99 98 97 92 86 87 89 91 91 91 88 87 88 91 84 88 85 87 87 91 89 88 90 91 89 88 88 87 87
108 114 119 119 125 123 120 113 114 118 113 107 108 105 97 97 91 91 91 95 96 92 92 90 93 93 94 95 95 94 100 99 100 94 92 96 99 96 95 94 98 98 97
126 125 121 122 125 124 127 123 124 122 121 125 124 121 120 118 117 119 122 121 110 103 102 106 105 103 99 104 110 112 108 110 105 104 101 102 103 105 105 109 110 102 103
123 119 121 122 118 117 129 133 128 128 127 127 130 130 129 128 127 127 129 132 126 120 111 111 109 108 109 107 109 111 113 114 114 114 111 113 117 114 110 111 115 117 119
122 125 126 125 126 124 125 124 126 132 134 137 137 137 134 131 130 133 133 134 132 131 130 132 129 126 125 127 129 129 128 129 130 128 125 126 124 123 123 126 128 130 128
126 129 130 134 133 131 132 130 128 131 133 136 138 139 138 137 136 136 135 131 130 132 132 132 130 131 130 131 131 130 130 130 130 131 129 127 128 128 129 130 131 132 133
132 132 132 132 131 130 131 131 129 129 128 127 130 131 130 130 131 132 134 134 133 133 134 134 134 134 133 132 131 130 130 129 129 128 128 127 127 128 129 131 133 135 136
122 122 122 121 121 121 122 124 125 126 126 126 128 128 127 127 126 125 126 125 126 128 128 128 128 129 129 127 125 124 123 122 123 122 122 123 123 125 126 128 131 132 132
118 118 119 119 117 116 117 118 116 117 117 116 116 117 118 117 117 117 119 119 118 119 118 119 118 117 118 120 119 120 121 121 121 121 119 118 117 118 119 119 120 122 122
119 121 121 119 117 115 117 118 118 118 118 117 116 118 118 118 117 117 117 117 117 119 118 118 118 118 119 120 119 119 120 119 118 119 118 118 115 114 114 115 113 112 112
100 106 111 115 118 120 121 124 126 123 121 119 119 119 120 121 123 122 121 120 120 120 119 119 119 119 121 121 122 124 125 124 124 127 127 127 125 123 121 119 115 110 106